<?xml version='1.0' encoding='UTF-8'?><gpx version="1.1" creator="JPX - https://github.com/jenetics/jpx" xmlns="http://www.topografix.com/GPX/1/1"><trk><trkseg><trkpt lat="45.5503445" lon="9.4381512"><ele>137.2857142857143</ele><time>2026-04-12T06:55:07.002Z</time></trkpt><trkpt lat="45.55042" lon="9.4381223"><ele>137.57142857142858</ele><time>2026-04-12T06:55:09.002Z</time></trkpt><trkpt lat="45.5504344" lon="9.4380187"><ele>137.85714285714286</ele><time>2026-04-12T06:55:12.002Z</time></trkpt><trkpt lat="45.5504203" lon="9.4379017"><ele>138.14285714285717</ele><time>2026-04-12T06:55:16.002Z</time></trkpt><trkpt lat="45.5504297" lon="9.4377941"><ele>138.42857142857144</ele><time>2026-04-12T06:55:18.96Z</time></trkpt><trkpt lat="45.5504458" lon="9.4377056"><ele>138.71428571428572</ele><time>2026-04-12T06:55:20.956Z</time></trkpt><trkpt lat="45.5504593" lon="9.4376118"><ele>139.0</ele><time>2026-04-12T06:55:22.982Z</time></trkpt><trkpt lat="45.5504719" lon="9.4375172"><ele>139.0</ele><time>2026-04-12T06:55:25.001Z</time></trkpt><trkpt lat="45.5504883" lon="9.4374272"><ele>139.0</ele><time>2026-04-12T06:55:26.903Z</time></trkpt><trkpt lat="45.5505078" lon="9.4373374"><ele>139.0</ele><time>2026-04-12T06:55:29.002Z</time></trkpt><trkpt lat="45.5505287" lon="9.4372433"><ele>139.0</ele><time>2026-04-12T06:55:31.029Z</time></trkpt><trkpt lat="45.5505488" lon="9.4371556"><ele>139.0</ele><time>2026-04-12T06:55:33.034Z</time></trkpt><trkpt lat="45.5505641" lon="9.4370683"><ele>139.0</ele><time>2026-04-12T06:55:34.982Z</time></trkpt><trkpt lat="45.5505797" lon="9.4369718"><ele>139.0</ele><time>2026-04-12T06:55:37.002Z</time></trkpt><trkpt lat="45.550597" lon="9.4368763"><ele>139.0</ele><time>2026-04-12T06:55:39.026Z</time></trkpt><trkpt lat="45.5506137" lon="9.4367746"><ele>139.0</ele><time>2026-04-12T06:55:41.001Z</time></trkpt><trkpt lat="45.55063" lon="9.436672"><ele>139.0</ele><time>2026-04-12T06:55:42.985Z</time></trkpt><trkpt lat="45.5506829" lon="9.4365809"><ele>139.0</ele><time>2026-04-12T06:55:45.002Z</time></trkpt><trkpt lat="45.5507581" lon="9.4365267"><ele>139.0</ele><time>2026-04-12T06:55:47.024Z</time></trkpt><trkpt lat="45.5508406" lon="9.4365072"><ele>139.0</ele><time>2026-04-12T06:55:49.001Z</time></trkpt><trkpt lat="45.5509241" lon="9.4364788"><ele>139.0</ele><time>2026-04-12T06:55:51.002Z</time></trkpt><trkpt lat="45.5510043" lon="9.4364434"><ele>139.0</ele><time>2026-04-12T06:55:53.002Z</time></trkpt><trkpt lat="45.5510821" lon="9.4364096"><ele>139.0</ele><time>2026-04-12T06:55:55.002Z</time></trkpt><trkpt lat="45.5511487" lon="9.4363773"><ele>139.0</ele><time>2026-04-12T06:55:57.002Z</time></trkpt><trkpt lat="45.5512191" lon="9.4363414"><ele>139.0</ele><time>2026-04-12T06:55:59.002Z</time></trkpt><trkpt lat="45.5512911" lon="9.4363047"><ele>139.0</ele><time>2026-04-12T06:56:01.001Z</time></trkpt><trkpt lat="45.5513638" lon="9.4362678"><ele>139.16666666666669</ele><time>2026-04-12T06:56:03.001Z</time></trkpt><trkpt lat="45.5514424" lon="9.4362307"><ele>139.33333333333334</ele><time>2026-04-12T06:56:05.002Z</time></trkpt><trkpt lat="45.551522" lon="9.4361964"><ele>139.5</ele><time>2026-04-12T06:56:07.001Z</time></trkpt><trkpt lat="45.5516002" lon="9.4361564"><ele>139.66666666666666</ele><time>2026-04-12T06:56:09.001Z</time></trkpt><trkpt lat="45.5516791" lon="9.4361148"><ele>139.83333333333331</ele><time>2026-04-12T06:56:11.002Z</time></trkpt><trkpt lat="45.5517594" lon="9.4360779"><ele>140.0</ele><time>2026-04-12T06:56:13.002Z</time></trkpt><trkpt lat="45.5518347" lon="9.4360464"><ele>140.0</ele><time>2026-04-12T06:56:15.001Z</time></trkpt><trkpt lat="45.5519099" lon="9.4360121"><ele>140.0</ele><time>2026-04-12T06:56:17.001Z</time></trkpt><trkpt lat="45.5519867" lon="9.4359785"><ele>140.0</ele><time>2026-04-12T06:56:19.001Z</time></trkpt><trkpt lat="45.5520618" lon="9.4359397"><ele>140.0</ele><time>2026-04-12T06:56:21.002Z</time></trkpt><trkpt lat="45.5521356" lon="9.435905"><ele>140.0</ele><time>2026-04-12T06:56:23.002Z</time></trkpt><trkpt lat="45.5522115" lon="9.4358758"><ele>140.0</ele><time>2026-04-12T06:56:25.002Z</time></trkpt><trkpt lat="45.5522873" lon="9.4358431"><ele>140.16666666666666</ele><time>2026-04-12T06:56:27.002Z</time></trkpt><trkpt lat="45.5523622" lon="9.4358127"><ele>140.33333333333331</ele><time>2026-04-12T06:56:29.002Z</time></trkpt><trkpt lat="45.5524375" lon="9.4357791"><ele>140.5</ele><time>2026-04-12T06:56:31.001Z</time></trkpt><trkpt lat="45.5525147" lon="9.4357427"><ele>140.66666666666666</ele><time>2026-04-12T06:56:33.001Z</time></trkpt><trkpt lat="45.5525982" lon="9.4357069"><ele>140.83333333333334</ele><time>2026-04-12T06:56:35.002Z</time></trkpt><trkpt lat="45.5526848" lon="9.435669"><ele>141.0</ele><time>2026-04-12T06:56:37.002Z</time></trkpt><trkpt lat="45.552772" lon="9.4356255"><ele>141.0</ele><time>2026-04-12T06:56:39.001Z</time></trkpt><trkpt lat="45.5528659" lon="9.4355821"><ele>141.0</ele><time>2026-04-12T06:56:41.002Z</time></trkpt><trkpt lat="45.5529651" lon="9.4355494"><ele>141.0</ele><time>2026-04-12T06:56:43.001Z</time></trkpt><trkpt lat="45.5530649" lon="9.4355086"><ele>141.0</ele><time>2026-04-12T06:56:45.002Z</time></trkpt><trkpt lat="45.5531617" lon="9.4354762"><ele>141.0</ele><time>2026-04-12T06:56:47.001Z</time></trkpt><trkpt lat="45.5532535" lon="9.435456"><ele>141.16666666666666</ele><time>2026-04-12T06:56:49.001Z</time></trkpt><trkpt lat="45.5533434" lon="9.435433"><ele>141.33333333333334</ele><time>2026-04-12T06:56:51.001Z</time></trkpt><trkpt lat="45.5534296" lon="9.435412"><ele>141.5</ele><time>2026-04-12T06:56:53.002Z</time></trkpt><trkpt lat="45.5535206" lon="9.4353924"><ele>141.66666666666669</ele><time>2026-04-12T06:56:55.002Z</time></trkpt><trkpt lat="45.5536026" lon="9.4353638"><ele>141.83333333333334</ele><time>2026-04-12T06:56:57.002Z</time></trkpt><trkpt lat="45.5536826" lon="9.4353347"><ele>142.0</ele><time>2026-04-12T06:56:59.002Z</time></trkpt><trkpt lat="45.5537628" lon="9.4353115"><ele>142.42857142857142</ele><time>2026-04-12T06:57:01.001Z</time></trkpt><trkpt lat="45.5538411" lon="9.4352919"><ele>142.85714285714283</ele><time>2026-04-12T06:57:03.002Z</time></trkpt><trkpt lat="45.5539106" lon="9.4352643"><ele>143.28571428571428</ele><time>2026-04-12T06:57:05.001Z</time></trkpt><trkpt lat="45.5539744" lon="9.4352433"><ele>143.71428571428572</ele><time>2026-04-12T06:57:07.002Z</time></trkpt><trkpt lat="45.5540451" lon="9.4352245"><ele>144.14285714285717</ele><time>2026-04-12T06:57:09.002Z</time></trkpt><trkpt lat="45.5541193" lon="9.4352068"><ele>144.57142857142858</ele><time>2026-04-12T06:57:11.002Z</time></trkpt><trkpt lat="45.5542012" lon="9.4351881"><ele>145.0</ele><time>2026-04-12T06:57:13.002Z</time></trkpt><trkpt lat="45.5542886" lon="9.4351728"><ele>145.0</ele><time>2026-04-12T06:57:15.002Z</time></trkpt><trkpt lat="45.5543789" lon="9.43516"><ele>145.0</ele><time>2026-04-12T06:57:17.001Z</time></trkpt><trkpt lat="45.5544753" lon="9.4351413"><ele>145.0</ele><time>2026-04-12T06:57:19.002Z</time></trkpt><trkpt lat="45.5545745" lon="9.4351236"><ele>145.0</ele><time>2026-04-12T06:57:21.002Z</time></trkpt><trkpt lat="45.5546693" lon="9.43511"><ele>145.0</ele><time>2026-04-12T06:57:23.002Z</time></trkpt><trkpt lat="45.5547503" lon="9.4350831"><ele>145.4</ele><time>2026-04-12T06:57:25.002Z</time></trkpt><trkpt lat="45.5548424" lon="9.4350858"><ele>145.8</ele><time>2026-04-12T06:57:27.002Z</time></trkpt><trkpt lat="45.5549369" lon="9.435086"><ele>146.2</ele><time>2026-04-12T06:57:29.002Z</time></trkpt><trkpt lat="45.5550299" lon="9.4350862"><ele>146.6</ele><time>2026-04-12T06:57:31.002Z</time></trkpt><trkpt lat="45.5551204" lon="9.4350769"><ele>147.0</ele><time>2026-04-12T06:57:33.002Z</time></trkpt><trkpt lat="45.555211" lon="9.4350688"><ele>147.0</ele><time>2026-04-12T06:57:35.002Z</time></trkpt><trkpt lat="45.5552974" lon="9.4350612"><ele>147.0</ele><time>2026-04-12T06:57:37.002Z</time></trkpt><trkpt lat="45.5553852" lon="9.4350515"><ele>147.0</ele><time>2026-04-12T06:57:39.002Z</time></trkpt><trkpt lat="45.5554732" lon="9.4350498"><ele>147.0</ele><time>2026-04-12T06:57:41.001Z</time></trkpt><trkpt lat="45.5555593" lon="9.4350433"><ele>147.0</ele><time>2026-04-12T06:57:43.002Z</time></trkpt><trkpt lat="45.5556462" lon="9.4350352"><ele>147.0</ele><time>2026-04-12T06:57:45.002Z</time></trkpt><trkpt lat="45.555736" lon="9.4350238"><ele>147.0</ele><time>2026-04-12T06:57:47.002Z</time></trkpt><trkpt lat="45.5558261" lon="9.4350064"><ele>147.0</ele><time>2026-04-12T06:57:49.002Z</time></trkpt><trkpt lat="45.5559136" lon="9.4349992"><ele>147.0</ele><time>2026-04-12T06:57:51.002Z</time></trkpt><trkpt lat="45.5559999" lon="9.4350065"><ele>147.0</ele><time>2026-04-12T06:57:53.001Z</time></trkpt><trkpt lat="45.5560924" lon="9.4350151"><ele>147.0</ele><time>2026-04-12T06:57:55.002Z</time></trkpt><trkpt lat="45.5561845" lon="9.4350103"><ele>146.79999999999998</ele><time>2026-04-12T06:57:57.002Z</time></trkpt><trkpt lat="45.5562723" lon="9.4350077"><ele>146.6</ele><time>2026-04-12T06:57:59.001Z</time></trkpt><trkpt lat="45.5563616" lon="9.434987"><ele>146.39999999999998</ele><time>2026-04-12T06:58:01.002Z</time></trkpt><trkpt lat="45.5564498" lon="9.4349692"><ele>146.2</ele><time>2026-04-12T06:58:03.001Z</time></trkpt><trkpt lat="45.5565415" lon="9.4349611"><ele>146.0</ele><time>2026-04-12T06:58:05.002Z</time></trkpt><trkpt lat="45.5566325" lon="9.4349481"><ele>146.0</ele><time>2026-04-12T06:58:07.002Z</time></trkpt><trkpt lat="45.5567262" lon="9.4349491"><ele>146.0</ele><time>2026-04-12T06:58:09.002Z</time></trkpt><trkpt lat="45.556827" lon="9.4349477"><ele>146.0</ele><time>2026-04-12T06:58:11.002Z</time></trkpt><trkpt lat="45.5569237" lon="9.4349356"><ele>146.0</ele><time>2026-04-12T06:58:13.002Z</time></trkpt><trkpt lat="45.557022" lon="9.4349198"><ele>146.0</ele><time>2026-04-12T06:58:15.002Z</time></trkpt><trkpt lat="45.5571224" lon="9.4349179"><ele>145.8</ele><time>2026-04-12T06:58:17.002Z</time></trkpt><trkpt lat="45.5572216" lon="9.434909"><ele>145.6</ele><time>2026-04-12T06:58:19.002Z</time></trkpt><trkpt lat="45.5573233" lon="9.4349003"><ele>145.4</ele><time>2026-04-12T06:58:21.001Z</time></trkpt><trkpt lat="45.557414" lon="9.4348972"><ele>145.2</ele><time>2026-04-12T06:58:23.002Z</time></trkpt><trkpt lat="45.5575046" lon="9.4348927"><ele>145.0</ele><time>2026-04-12T06:58:25.002Z</time></trkpt><trkpt lat="45.557592" lon="9.4348641"><ele>145.0</ele><time>2026-04-12T06:58:27.001Z</time></trkpt><trkpt lat="45.5576558" lon="9.4347683"><ele>145.0</ele><time>2026-04-12T06:58:29.002Z</time></trkpt><trkpt lat="45.5576789" lon="9.4346477"><ele>145.0</ele><time>2026-04-12T06:58:31.002Z</time></trkpt><trkpt lat="45.5576951" lon="9.4345249"><ele>145.0</ele><time>2026-04-12T06:58:33.002Z</time></trkpt><trkpt lat="45.557705" lon="9.4343971"><ele>145.0</ele><time>2026-04-12T06:58:35.002Z</time></trkpt><trkpt lat="45.5577136" lon="9.4342712"><ele>145.0</ele><time>2026-04-12T06:58:37.001Z</time></trkpt><trkpt lat="45.5577222" lon="9.4341432"><ele>145.0</ele><time>2026-04-12T06:58:39.002Z</time></trkpt><trkpt lat="45.5577278" lon="9.4340165"><ele>145.0</ele><time>2026-04-12T06:58:41.001Z</time></trkpt><trkpt lat="45.5577297" lon="9.4338942"><ele>145.0</ele><time>2026-04-12T06:58:43.002Z</time></trkpt><trkpt lat="45.5577373" lon="9.4337688"><ele>145.0</ele><time>2026-04-12T06:58:45.002Z</time></trkpt><trkpt lat="45.5577435" lon="9.433642"><ele>145.0</ele><time>2026-04-12T06:58:47.002Z</time></trkpt><trkpt lat="45.5577785" lon="9.4335251"><ele>145.0</ele><time>2026-04-12T06:58:49.001Z</time></trkpt><trkpt lat="45.5578482" lon="9.4334405"><ele>145.0</ele><time>2026-04-12T06:58:51.002Z</time></trkpt><trkpt lat="45.5579343" lon="9.4334374"><ele>145.0</ele><time>2026-04-12T06:58:53.002Z</time></trkpt><trkpt lat="45.558029" lon="9.4334455"><ele>145.0</ele><time>2026-04-12T06:58:55.002Z</time></trkpt><trkpt lat="45.5581266" lon="9.4334353"><ele>145.0</ele><time>2026-04-12T06:58:57.002Z</time></trkpt><trkpt lat="45.5582202" lon="9.4334071"><ele>145.0</ele><time>2026-04-12T06:58:59.002Z</time></trkpt><trkpt lat="45.5583104" lon="9.4333717"><ele>145.0</ele><time>2026-04-12T06:59:01.002Z</time></trkpt><trkpt lat="45.5583982" lon="9.4333309"><ele>145.0</ele><time>2026-04-12T06:59:03.002Z</time></trkpt><trkpt lat="45.5584836" lon="9.4332821"><ele>145.0</ele><time>2026-04-12T06:59:05.002Z</time></trkpt><trkpt lat="45.5585678" lon="9.433248"><ele>145.0</ele><time>2026-04-12T06:59:07.002Z</time></trkpt><trkpt lat="45.558654" lon="9.433222"><ele>145.0</ele><time>2026-04-12T06:59:09.001Z</time></trkpt><trkpt lat="45.5587398" lon="9.4331849"><ele>145.33333333333334</ele><time>2026-04-12T06:59:11.002Z</time></trkpt><trkpt lat="45.5588234" lon="9.4331484"><ele>145.66666666666669</ele><time>2026-04-12T06:59:13.002Z</time></trkpt><trkpt lat="45.5589093" lon="9.4331157"><ele>146.0</ele><time>2026-04-12T06:59:15.002Z</time></trkpt><trkpt lat="45.5589964" lon="9.4330799"><ele>146.33333333333334</ele><time>2026-04-12T06:59:17.002Z</time></trkpt><trkpt lat="45.5590801" lon="9.4330344"><ele>146.66666666666666</ele><time>2026-04-12T06:59:19.002Z</time></trkpt><trkpt lat="45.5591694" lon="9.4329979"><ele>147.0</ele><time>2026-04-12T06:59:21.001Z</time></trkpt><trkpt lat="45.5592572" lon="9.4329651"><ele>147.0</ele><time>2026-04-12T06:59:23.002Z</time></trkpt><trkpt lat="45.5593429" lon="9.4329273"><ele>147.0</ele><time>2026-04-12T06:59:25.002Z</time></trkpt><trkpt lat="45.5594276" lon="9.4328927"><ele>147.0</ele><time>2026-04-12T06:59:27.001Z</time></trkpt><trkpt lat="45.5595147" lon="9.4328616"><ele>147.0</ele><time>2026-04-12T06:59:29.002Z</time></trkpt><trkpt lat="45.5596026" lon="9.432823"><ele>147.0</ele><time>2026-04-12T06:59:31.002Z</time></trkpt><trkpt lat="45.559695" lon="9.4327826"><ele>147.4</ele><time>2026-04-12T06:59:33.001Z</time></trkpt><trkpt lat="45.5597845" lon="9.4327485"><ele>147.79999999999998</ele><time>2026-04-12T06:59:35.002Z</time></trkpt><trkpt lat="45.5598705" lon="9.4327149"><ele>148.2</ele><time>2026-04-12T06:59:37.002Z</time></trkpt><trkpt lat="45.5599591" lon="9.4326768"><ele>148.6</ele><time>2026-04-12T06:59:39.002Z</time></trkpt><trkpt lat="45.5600503" lon="9.4326392"><ele>149.0</ele><time>2026-04-12T06:59:41.001Z</time></trkpt><trkpt lat="45.5601443" lon="9.4326132"><ele>149.0</ele><time>2026-04-12T06:59:43.001Z</time></trkpt><trkpt lat="45.5602373" lon="9.4326189"><ele>149.0</ele><time>2026-04-12T06:59:45.001Z</time></trkpt><trkpt lat="45.5603208" lon="9.4325889"><ele>149.0</ele><time>2026-04-12T06:59:47.002Z</time></trkpt><trkpt lat="45.560408" lon="9.4325642"><ele>149.0</ele><time>2026-04-12T06:59:49.002Z</time></trkpt><trkpt lat="45.5604905" lon="9.4325421"><ele>149.0</ele><time>2026-04-12T06:59:51.001Z</time></trkpt><trkpt lat="45.5605692" lon="9.4324925"><ele>149.0</ele><time>2026-04-12T06:59:54.002Z</time></trkpt><trkpt lat="45.5606397" lon="9.4324672"><ele>148.83333333333331</ele><time>2026-04-12T06:59:56.001Z</time></trkpt><trkpt lat="45.5607152" lon="9.4324348"><ele>148.66666666666666</ele><time>2026-04-12T06:59:58.002Z</time></trkpt><trkpt lat="45.5607945" lon="9.4324004"><ele>148.5</ele><time>2026-04-12T07:00:00.001Z</time></trkpt><trkpt lat="45.5608751" lon="9.4323662"><ele>148.33333333333334</ele><time>2026-04-12T07:00:02.002Z</time></trkpt><trkpt lat="45.5609594" lon="9.4323283"><ele>148.16666666666669</ele><time>2026-04-12T07:00:04.002Z</time></trkpt><trkpt lat="45.561045" lon="9.432293"><ele>148.0</ele><time>2026-04-12T07:00:06.002Z</time></trkpt><trkpt lat="45.5611345" lon="9.4322714"><ele>147.83333333333334</ele><time>2026-04-12T07:00:08.002Z</time></trkpt><trkpt lat="45.5612209" lon="9.4322399"><ele>147.66666666666669</ele><time>2026-04-12T07:00:10.002Z</time></trkpt><trkpt lat="45.5613115" lon="9.4322015"><ele>147.5</ele><time>2026-04-12T07:00:12.002Z</time></trkpt><trkpt lat="45.5613969" lon="9.432169"><ele>147.33333333333334</ele><time>2026-04-12T07:00:14.001Z</time></trkpt><trkpt lat="45.5614803" lon="9.432133"><ele>147.16666666666666</ele><time>2026-04-12T07:00:16.002Z</time></trkpt><trkpt lat="45.561563" lon="9.4320966"><ele>147.0</ele><time>2026-04-12T07:00:18.002Z</time></trkpt><trkpt lat="45.5616421" lon="9.4320635"><ele>147.0</ele><time>2026-04-12T07:00:20.001Z</time></trkpt><trkpt lat="45.5617221" lon="9.4320319"><ele>147.0</ele><time>2026-04-12T07:00:22.001Z</time></trkpt><trkpt lat="45.5618002" lon="9.4320009"><ele>147.0</ele><time>2026-04-12T07:00:24.002Z</time></trkpt><trkpt lat="45.5618783" lon="9.4319716"><ele>147.0</ele><time>2026-04-12T07:00:26.001Z</time></trkpt><trkpt lat="45.5619541" lon="9.431939"><ele>147.0</ele><time>2026-04-12T07:00:28.002Z</time></trkpt><trkpt lat="45.5620318" lon="9.431917"><ele>147.0</ele><time>2026-04-12T07:00:30.001Z</time></trkpt><trkpt lat="45.5621093" lon="9.4318921"><ele>147.0</ele><time>2026-04-12T07:00:32.002Z</time></trkpt><trkpt lat="45.5621865" lon="9.4318617"><ele>147.0</ele><time>2026-04-12T07:00:34.002Z</time></trkpt><trkpt lat="45.562265" lon="9.4318301"><ele>147.0</ele><time>2026-04-12T07:00:36.002Z</time></trkpt><trkpt lat="45.5623435" lon="9.4318006"><ele>147.0</ele><time>2026-04-12T07:00:38.002Z</time></trkpt><trkpt lat="45.5624209" lon="9.4317699"><ele>147.0</ele><time>2026-04-12T07:00:40.002Z</time></trkpt><trkpt lat="45.5624981" lon="9.4317389"><ele>147.0</ele><time>2026-04-12T07:00:42.001Z</time></trkpt><trkpt lat="45.562569" lon="9.4317063"><ele>147.0</ele><time>2026-04-12T07:00:44.002Z</time></trkpt><trkpt lat="45.5626547" lon="9.4317105"><ele>147.0</ele><time>2026-04-12T07:00:47.002Z</time></trkpt><trkpt lat="45.5627051" lon="9.4317936"><ele>147.0</ele><time>2026-04-12T07:00:49.002Z</time></trkpt><trkpt lat="45.5627363" lon="9.4319304"><ele>147.0</ele><time>2026-04-12T07:00:51.002Z</time></trkpt><trkpt lat="45.5627604" lon="9.4320609"><ele>147.0</ele><time>2026-04-12T07:00:53.001Z</time></trkpt><trkpt lat="45.5627848" lon="9.4321907"><ele>147.2</ele><time>2026-04-12T07:00:55.001Z</time></trkpt><trkpt lat="45.5628095" lon="9.432317"><ele>147.39999999999998</ele><time>2026-04-12T07:00:57.002Z</time></trkpt><trkpt lat="45.5628348" lon="9.4324352"><ele>147.60000000000002</ele><time>2026-04-12T07:00:59.001Z</time></trkpt><trkpt lat="45.5628659" lon="9.4325638"><ele>147.8</ele><time>2026-04-12T07:01:01.001Z</time></trkpt><trkpt lat="45.5628865" lon="9.4326917"><ele>148.0</ele><time>2026-04-12T07:01:03.002Z</time></trkpt><trkpt lat="45.562901" lon="9.432821"><ele>148.0</ele><time>2026-04-12T07:01:05.001Z</time></trkpt><trkpt lat="45.5629112" lon="9.4329545"><ele>148.0</ele><time>2026-04-12T07:01:07.002Z</time></trkpt><trkpt lat="45.562923" lon="9.4330868"><ele>148.0</ele><time>2026-04-12T07:01:09.002Z</time></trkpt><trkpt lat="45.5629337" lon="9.4332156"><ele>148.0</ele><time>2026-04-12T07:01:11.001Z</time></trkpt><trkpt lat="45.5629499" lon="9.4333483"><ele>148.0</ele><time>2026-04-12T07:01:13.001Z</time></trkpt><trkpt lat="45.5629591" lon="9.4334786"><ele>148.0</ele><time>2026-04-12T07:01:15.002Z</time></trkpt><trkpt lat="45.5629724" lon="9.4336087"><ele>148.0</ele><time>2026-04-12T07:01:17.001Z</time></trkpt><trkpt lat="45.5629834" lon="9.4337347"><ele>148.0</ele><time>2026-04-12T07:01:19.001Z</time></trkpt><trkpt lat="45.5629969" lon="9.4338671"><ele>148.0</ele><time>2026-04-12T07:01:21.002Z</time></trkpt><trkpt lat="45.5630125" lon="9.4339999"><ele>148.0</ele><time>2026-04-12T07:01:23.002Z</time></trkpt><trkpt lat="45.5630226" lon="9.4341321"><ele>148.4</ele><time>2026-04-12T07:01:25.001Z</time></trkpt><trkpt lat="45.563038" lon="9.434261"><ele>148.8</ele><time>2026-04-12T07:01:27.001Z</time></trkpt><trkpt lat="45.5630518" lon="9.4343948"><ele>149.2</ele><time>2026-04-12T07:01:29.001Z</time></trkpt><trkpt lat="45.5630683" lon="9.4345292"><ele>149.6</ele><time>2026-04-12T07:01:31.002Z</time></trkpt><trkpt lat="45.5630818" lon="9.4346667"><ele>150.0</ele><time>2026-04-12T07:01:33.002Z</time></trkpt><trkpt lat="45.5630926" lon="9.4348002"><ele>150.2</ele><time>2026-04-12T07:01:35.001Z</time></trkpt><trkpt lat="45.5631056" lon="9.4349348"><ele>150.4</ele><time>2026-04-12T07:01:37.001Z</time></trkpt><trkpt lat="45.563121" lon="9.4350689"><ele>150.6</ele><time>2026-04-12T07:01:39.002Z</time></trkpt><trkpt lat="45.5631325" lon="9.4352006"><ele>150.8</ele><time>2026-04-12T07:01:41.002Z</time></trkpt><trkpt lat="45.5631495" lon="9.4353335"><ele>151.0</ele><time>2026-04-12T07:01:43.001Z</time></trkpt><trkpt lat="45.5631659" lon="9.435467"><ele>150.4</ele><time>2026-04-12T07:01:45.002Z</time></trkpt><trkpt lat="45.5631764" lon="9.435605"><ele>149.8</ele><time>2026-04-12T07:01:47.002Z</time></trkpt><trkpt lat="45.5631935" lon="9.435738"><ele>149.20000000000002</ele><time>2026-04-12T07:01:49.001Z</time></trkpt><trkpt lat="45.5632054" lon="9.4358736"><ele>148.6</ele><time>2026-04-12T07:01:51.002Z</time></trkpt><trkpt lat="45.563217" lon="9.4360108"><ele>148.0</ele><time>2026-04-12T07:01:53.002Z</time></trkpt><trkpt lat="45.563233" lon="9.4361431"><ele>148.0</ele><time>2026-04-12T07:01:55.002Z</time></trkpt><trkpt lat="45.5632457" lon="9.4362701"><ele>148.0</ele><time>2026-04-12T07:01:57.001Z</time></trkpt><trkpt lat="45.5632636" lon="9.436397"><ele>148.0</ele><time>2026-04-12T07:01:59.002Z</time></trkpt><trkpt lat="45.5632764" lon="9.4365249"><ele>148.0</ele><time>2026-04-12T07:02:01.001Z</time></trkpt><trkpt lat="45.5632903" lon="9.4366575"><ele>148.0</ele><time>2026-04-12T07:02:03.002Z</time></trkpt><trkpt lat="45.563306" lon="9.436793"><ele>148.0</ele><time>2026-04-12T07:02:05.002Z</time></trkpt><trkpt lat="45.5633196" lon="9.4369251"><ele>148.0</ele><time>2026-04-12T07:02:07.002Z</time></trkpt><trkpt lat="45.563329" lon="9.4370574"><ele>148.0</ele><time>2026-04-12T07:02:09.001Z</time></trkpt><trkpt lat="45.563336" lon="9.4371804"><ele>148.0</ele><time>2026-04-12T07:02:11.002Z</time></trkpt><trkpt lat="45.5633486" lon="9.4372861"><ele>148.0</ele><time>2026-04-12T07:02:13.002Z</time></trkpt><trkpt lat="45.563364" lon="9.4373984"><ele>148.0</ele><time>2026-04-12T07:02:15.001Z</time></trkpt><trkpt lat="45.56339" lon="9.4375354"><ele>148.20000000000002</ele><time>2026-04-12T07:02:17.002Z</time></trkpt><trkpt lat="45.563406" lon="9.4376755"><ele>148.4</ele><time>2026-04-12T07:02:19.002Z</time></trkpt><trkpt lat="45.5634275" lon="9.4378164"><ele>148.60000000000002</ele><time>2026-04-12T07:02:21.002Z</time></trkpt><trkpt lat="45.5634429" lon="9.4379565"><ele>148.8</ele><time>2026-04-12T07:02:23.002Z</time></trkpt><trkpt lat="45.5634548" lon="9.4380822"><ele>149.0</ele><time>2026-04-12T07:02:25.001Z</time></trkpt><trkpt lat="45.563465" lon="9.4381969"><ele>148.6</ele><time>2026-04-12T07:02:27.002Z</time></trkpt><trkpt lat="45.5634785" lon="9.4383038"><ele>148.2</ele><time>2026-04-12T07:02:29.002Z</time></trkpt><trkpt lat="45.563491" lon="9.438421"><ele>147.79999999999998</ele><time>2026-04-12T07:02:31.002Z</time></trkpt><trkpt lat="45.5635073" lon="9.4385502"><ele>147.4</ele><time>2026-04-12T07:02:33.002Z</time></trkpt><trkpt lat="45.5635228" lon="9.4386969"><ele>147.0</ele><time>2026-04-12T07:02:35.002Z</time></trkpt><trkpt lat="45.5635303" lon="9.438832"><ele>147.0</ele><time>2026-04-12T07:02:37.002Z</time></trkpt><trkpt lat="45.5635491" lon="9.4389642"><ele>147.0</ele><time>2026-04-12T07:02:39.001Z</time></trkpt><trkpt lat="45.5635613" lon="9.4391022"><ele>147.0</ele><time>2026-04-12T07:02:41.002Z</time></trkpt><trkpt lat="45.5635723" lon="9.4392377"><ele>147.0</ele><time>2026-04-12T07:02:43.002Z</time></trkpt><trkpt lat="45.5635873" lon="9.4393701"><ele>147.0</ele><time>2026-04-12T07:02:45.002Z</time></trkpt><trkpt lat="45.5636001" lon="9.4395049"><ele>147.4</ele><time>2026-04-12T07:02:47.002Z</time></trkpt><trkpt lat="45.5636134" lon="9.43964"><ele>147.79999999999998</ele><time>2026-04-12T07:02:49.002Z</time></trkpt><trkpt lat="45.5636246" lon="9.4397694"><ele>148.2</ele><time>2026-04-12T07:02:51.001Z</time></trkpt><trkpt lat="45.5636386" lon="9.4398966"><ele>148.6</ele><time>2026-04-12T07:02:53.002Z</time></trkpt><trkpt lat="45.5636536" lon="9.4400264"><ele>149.0</ele><time>2026-04-12T07:02:55.001Z</time></trkpt><trkpt lat="45.5636705" lon="9.4401563"><ele>149.0</ele><time>2026-04-12T07:02:57.002Z</time></trkpt><trkpt lat="45.5636818" lon="9.4402812"><ele>149.0</ele><time>2026-04-12T07:02:59.002Z</time></trkpt><trkpt lat="45.5636907" lon="9.4403964"><ele>149.0</ele><time>2026-04-12T07:03:01.002Z</time></trkpt><trkpt lat="45.5637143" lon="9.4405237"><ele>149.0</ele><time>2026-04-12T07:03:03.002Z</time></trkpt><trkpt lat="45.5637248" lon="9.4406536"><ele>149.0</ele><time>2026-04-12T07:03:05.002Z</time></trkpt><trkpt lat="45.5637343" lon="9.4407825"><ele>149.0</ele><time>2026-04-12T07:03:07.001Z</time></trkpt><trkpt lat="45.563743" lon="9.4409081"><ele>148.8</ele><time>2026-04-12T07:03:09.002Z</time></trkpt><trkpt lat="45.5637589" lon="9.4410332"><ele>148.60000000000002</ele><time>2026-04-12T07:03:11.001Z</time></trkpt><trkpt lat="45.5637727" lon="9.441166"><ele>148.4</ele><time>2026-04-12T07:03:13.001Z</time></trkpt><trkpt lat="45.5637828" lon="9.4412971"><ele>148.20000000000002</ele><time>2026-04-12T07:03:15.002Z</time></trkpt><trkpt lat="45.5637997" lon="9.4414289"><ele>148.0</ele><time>2026-04-12T07:03:17.002Z</time></trkpt><trkpt lat="45.5638135" lon="9.4415637"><ele>147.8</ele><time>2026-04-12T07:03:19.001Z</time></trkpt><trkpt lat="45.5638298" lon="9.4416981"><ele>147.60000000000002</ele><time>2026-04-12T07:03:21.002Z</time></trkpt><trkpt lat="45.5638452" lon="9.4418315"><ele>147.39999999999998</ele><time>2026-04-12T07:03:23.002Z</time></trkpt><trkpt lat="45.5638559" lon="9.4419709"><ele>147.2</ele><time>2026-04-12T07:03:25.002Z</time></trkpt><trkpt lat="45.563872" lon="9.4420991"><ele>147.0</ele><time>2026-04-12T07:03:27.001Z</time></trkpt><trkpt lat="45.5638891" lon="9.442219"><ele>147.4</ele><time>2026-04-12T07:03:29.002Z</time></trkpt><trkpt lat="45.563899" lon="9.4423489"><ele>147.79999999999998</ele><time>2026-04-12T07:03:31.002Z</time></trkpt><trkpt lat="45.5639115" lon="9.4424828"><ele>148.2</ele><time>2026-04-12T07:03:33.002Z</time></trkpt><trkpt lat="45.5639249" lon="9.4426226"><ele>148.6</ele><time>2026-04-12T07:03:35.002Z</time></trkpt><trkpt lat="45.5639413" lon="9.4427601"><ele>149.0</ele><time>2026-04-12T07:03:37.002Z</time></trkpt><trkpt lat="45.5639543" lon="9.4428929"><ele>149.2</ele><time>2026-04-12T07:03:39.001Z</time></trkpt><trkpt lat="45.5639724" lon="9.4430261"><ele>149.4</ele><time>2026-04-12T07:03:41.001Z</time></trkpt><trkpt lat="45.5639853" lon="9.4431604"><ele>149.6</ele><time>2026-04-12T07:03:43.002Z</time></trkpt><trkpt lat="45.5639985" lon="9.4432918"><ele>149.8</ele><time>2026-04-12T07:03:45.002Z</time></trkpt><trkpt lat="45.5640078" lon="9.4434255"><ele>150.0</ele><time>2026-04-12T07:03:47.002Z</time></trkpt><trkpt lat="45.5640242" lon="9.4435558"><ele>150.0</ele><time>2026-04-12T07:03:49.002Z</time></trkpt><trkpt lat="45.5640384" lon="9.4436932"><ele>150.0</ele><time>2026-04-12T07:03:51.002Z</time></trkpt><trkpt lat="45.5640562" lon="9.4438309"><ele>150.0</ele><time>2026-04-12T07:03:53.001Z</time></trkpt><trkpt lat="45.5640713" lon="9.4439756"><ele>150.0</ele><time>2026-04-12T07:03:55.001Z</time></trkpt><trkpt lat="45.564079" lon="9.4441142"><ele>150.0</ele><time>2026-04-12T07:03:57.002Z</time></trkpt><trkpt lat="45.5640832" lon="9.4442352"><ele>150.0</ele><time>2026-04-12T07:03:59.001Z</time></trkpt><trkpt lat="45.564128" lon="9.4443339"><ele>150.0</ele><time>2026-04-12T07:04:01.002Z</time></trkpt><trkpt lat="45.5641987" lon="9.4443458"><ele>150.0</ele><time>2026-04-12T07:04:03.002Z</time></trkpt><trkpt lat="45.5642438" lon="9.4444242"><ele>150.0</ele><time>2026-04-12T07:04:05.002Z</time></trkpt><trkpt lat="45.5642569" lon="9.4445265"><ele>150.0</ele><time>2026-04-12T07:04:07.002Z</time></trkpt><trkpt lat="45.5642688" lon="9.4446592"><ele>150.0</ele><time>2026-04-12T07:04:10.002Z</time></trkpt><trkpt lat="45.5642786" lon="9.4447585"><ele>150.0</ele><time>2026-04-12T07:04:12.001Z</time></trkpt><trkpt lat="45.5642891" lon="9.4448609"><ele>150.0</ele><time>2026-04-12T07:04:14.002Z</time></trkpt><trkpt lat="45.564296" lon="9.4449642"><ele>150.0</ele><time>2026-04-12T07:04:16.002Z</time></trkpt><trkpt lat="45.5643013" lon="9.4450753"><ele>150.0</ele><time>2026-04-12T07:04:18.002Z</time></trkpt><trkpt lat="45.5643117" lon="9.4451897"><ele>150.0</ele><time>2026-04-12T07:04:20.002Z</time></trkpt><trkpt lat="45.5643234" lon="9.4453025"><ele>150.0</ele><time>2026-04-12T07:04:22.002Z</time></trkpt><trkpt lat="45.5643347" lon="9.4454164"><ele>150.16666666666666</ele><time>2026-04-12T07:04:24.002Z</time></trkpt><trkpt lat="45.5643483" lon="9.4455328"><ele>150.33333333333334</ele><time>2026-04-12T07:04:26.001Z</time></trkpt><trkpt lat="45.564363" lon="9.4456493"><ele>150.5</ele><time>2026-04-12T07:04:28.002Z</time></trkpt><trkpt lat="45.5643771" lon="9.4457697"><ele>150.66666666666669</ele><time>2026-04-12T07:04:30.001Z</time></trkpt><trkpt lat="45.5643898" lon="9.4458886"><ele>150.83333333333334</ele><time>2026-04-12T07:04:32.002Z</time></trkpt><trkpt lat="45.5644046" lon="9.446002"><ele>151.0</ele><time>2026-04-12T07:04:34.002Z</time></trkpt><trkpt lat="45.564421" lon="9.4461152"><ele>151.0</ele><time>2026-04-12T07:04:36.002Z</time></trkpt><trkpt lat="45.5644356" lon="9.4462289"><ele>151.0</ele><time>2026-04-12T07:04:38.002Z</time></trkpt><trkpt lat="45.5644497" lon="9.4463411"><ele>151.0</ele><time>2026-04-12T07:04:40.002Z</time></trkpt><trkpt lat="45.5644682" lon="9.4464546"><ele>151.0</ele><time>2026-04-12T07:04:42.002Z</time></trkpt><trkpt lat="45.5644893" lon="9.4465734"><ele>151.0</ele><time>2026-04-12T07:04:44.002Z</time></trkpt><trkpt lat="45.5645012" lon="9.4467006"><ele>151.0</ele><time>2026-04-12T07:04:46.001Z</time></trkpt><trkpt lat="45.5645224" lon="9.4468222"><ele>151.16666666666669</ele><time>2026-04-12T07:04:48.002Z</time></trkpt><trkpt lat="45.5645437" lon="9.4469508"><ele>151.33333333333334</ele><time>2026-04-12T07:04:50.001Z</time></trkpt><trkpt lat="45.564549" lon="9.4470758"><ele>151.5</ele><time>2026-04-12T07:04:52.001Z</time></trkpt><trkpt lat="45.5645606" lon="9.4472026"><ele>151.66666666666666</ele><time>2026-04-12T07:04:54.001Z</time></trkpt><trkpt lat="45.5645845" lon="9.4473221"><ele>151.83333333333331</ele><time>2026-04-12T07:04:56.001Z</time></trkpt><trkpt lat="45.5645902" lon="9.4474445"><ele>152.0</ele><time>2026-04-12T07:04:58.002Z</time></trkpt><trkpt lat="45.5645954" lon="9.4475658"><ele>152.0</ele><time>2026-04-12T07:05:00.001Z</time></trkpt><trkpt lat="45.5646039" lon="9.4476839"><ele>152.0</ele><time>2026-04-12T07:05:02.002Z</time></trkpt><trkpt lat="45.5646177" lon="9.4477991"><ele>152.0</ele><time>2026-04-12T07:05:04.002Z</time></trkpt><trkpt lat="45.5646295" lon="9.4479164"><ele>152.0</ele><time>2026-04-12T07:05:06.002Z</time></trkpt><trkpt lat="45.5646426" lon="9.4480363"><ele>152.0</ele><time>2026-04-12T07:05:08.002Z</time></trkpt><trkpt lat="45.5646556" lon="9.4481624"><ele>152.0</ele><time>2026-04-12T07:05:10.002Z</time></trkpt><trkpt lat="45.5646707" lon="9.4482904"><ele>151.79999999999998</ele><time>2026-04-12T07:05:12.001Z</time></trkpt><trkpt lat="45.5646852" lon="9.4484124"><ele>151.6</ele><time>2026-04-12T07:05:14.002Z</time></trkpt><trkpt lat="45.5646993" lon="9.4485437"><ele>151.39999999999998</ele><time>2026-04-12T07:05:16.002Z</time></trkpt><trkpt lat="45.5647149" lon="9.4486709"><ele>151.2</ele><time>2026-04-12T07:05:18.001Z</time></trkpt><trkpt lat="45.5647255" lon="9.448804"><ele>151.0</ele><time>2026-04-12T07:05:20.001Z</time></trkpt><trkpt lat="45.5647329" lon="9.4489387"><ele>150.8</ele><time>2026-04-12T07:05:22.001Z</time></trkpt><trkpt lat="45.5647462" lon="9.4490791"><ele>150.6</ele><time>2026-04-12T07:05:24.002Z</time></trkpt><trkpt lat="45.5647583" lon="9.4492199"><ele>150.4</ele><time>2026-04-12T07:05:26.002Z</time></trkpt><trkpt lat="45.5647733" lon="9.4493562"><ele>150.2</ele><time>2026-04-12T07:05:28.002Z</time></trkpt><trkpt lat="45.5647859" lon="9.449495"><ele>150.0</ele><time>2026-04-12T07:05:30.002Z</time></trkpt><trkpt lat="45.5648008" lon="9.4496367"><ele>150.0</ele><time>2026-04-12T07:05:32.002Z</time></trkpt><trkpt lat="45.5648266" lon="9.4497813"><ele>150.0</ele><time>2026-04-12T07:05:34.001Z</time></trkpt><trkpt lat="45.5648438" lon="9.4499315"><ele>150.0</ele><time>2026-04-12T07:05:36.002Z</time></trkpt><trkpt lat="45.5648609" lon="9.4500982"><ele>150.0</ele><time>2026-04-12T07:05:38.002Z</time></trkpt><trkpt lat="45.5648771" lon="9.4501855"><ele>150.0</ele><time>2026-04-12T07:05:39.001Z</time></trkpt><trkpt lat="45.5649037" lon="9.4502791"><ele>150.0</ele><time>2026-04-12T07:05:40.002Z</time></trkpt><trkpt lat="45.5649256" lon="9.4503708"><ele>150.0</ele><time>2026-04-12T07:05:41.002Z</time></trkpt><trkpt lat="45.56492" lon="9.4505342"><ele>150.0</ele><time>2026-04-12T07:05:43.002Z</time></trkpt><trkpt lat="45.564912" lon="9.4506259"><ele>150.0</ele><time>2026-04-12T07:05:45.001Z</time></trkpt><trkpt lat="45.5649247" lon="9.4507333"><ele>150.0</ele><time>2026-04-12T07:07:23.002Z</time></trkpt><trkpt lat="45.5649527" lon="9.450836"><ele>150.0</ele><time>2026-04-12T07:07:27.002Z</time></trkpt><trkpt lat="45.5650168" lon="9.4509077"><ele>150.14285714285714</ele><time>2026-04-12T07:07:30.001Z</time></trkpt><trkpt lat="45.5650872" lon="9.450919"><ele>150.28571428571428</ele><time>2026-04-12T07:07:33.002Z</time></trkpt><trkpt lat="45.565091" lon="9.4510145"><ele>150.42857142857144</ele><time>2026-04-12T07:07:59.002Z</time></trkpt><trkpt lat="45.5651101" lon="9.4511123"><ele>150.57142857142856</ele><time>2026-04-12T07:08:03.001Z</time></trkpt><trkpt lat="45.5651946" lon="9.4511281"><ele>150.71428571428572</ele><time>2026-04-12T07:08:07.001Z</time></trkpt><trkpt lat="45.5652596" lon="9.45113"><ele>150.85714285714286</ele><time>2026-04-12T07:08:09.002Z</time></trkpt><trkpt lat="45.5653276" lon="9.4511473"><ele>151.0</ele><time>2026-04-12T07:08:11.001Z</time></trkpt><trkpt lat="45.5653954" lon="9.4511506"><ele>151.0</ele><time>2026-04-12T07:08:13.002Z</time></trkpt><trkpt lat="45.5654672" lon="9.4511359"><ele>151.0</ele><time>2026-04-12T07:08:15.002Z</time></trkpt><trkpt lat="45.5655403" lon="9.4511156"><ele>151.0</ele><time>2026-04-12T07:08:17.002Z</time></trkpt><trkpt lat="45.565617" lon="9.4510941"><ele>151.0</ele><time>2026-04-12T07:08:19.002Z</time></trkpt><trkpt lat="45.5656909" lon="9.4510492"><ele>151.0</ele><time>2026-04-12T07:08:21.001Z</time></trkpt><trkpt lat="45.5657689" lon="9.4510097"><ele>151.0</ele><time>2026-04-12T07:08:23.001Z</time></trkpt><trkpt lat="45.5658457" lon="9.4509495"><ele>151.0</ele><time>2026-04-12T07:08:25.001Z</time></trkpt><trkpt lat="45.5659079" lon="9.4508585"><ele>151.0</ele><time>2026-04-12T07:08:27.002Z</time></trkpt><trkpt lat="45.5659723" lon="9.4507904"><ele>151.0</ele><time>2026-04-12T07:08:29.002Z</time></trkpt><trkpt lat="45.5660375" lon="9.4507058"><ele>151.0</ele><time>2026-04-12T07:08:31.001Z</time></trkpt><trkpt lat="45.5661099" lon="9.4506399"><ele>151.0</ele><time>2026-04-12T07:08:33.002Z</time></trkpt><trkpt lat="45.5661823" lon="9.4505818"><ele>151.0</ele><time>2026-04-12T07:08:35.001Z</time></trkpt><trkpt lat="45.5662472" lon="9.4505119"><ele>150.83333333333334</ele><time>2026-04-12T07:08:37.001Z</time></trkpt><trkpt lat="45.5663131" lon="9.4504516"><ele>150.66666666666669</ele><time>2026-04-12T07:08:39.001Z</time></trkpt><trkpt lat="45.5663761" lon="9.4504107"><ele>150.5</ele><time>2026-04-12T07:08:41.002Z</time></trkpt><trkpt lat="45.5664211" lon="9.4504983"><ele>150.33333333333334</ele><time>2026-04-12T07:08:44.002Z</time></trkpt><trkpt lat="45.5664536" lon="9.4505832"><ele>150.16666666666666</ele><time>2026-04-12T07:08:46.002Z</time></trkpt><trkpt lat="45.5665115" lon="9.4506734"><ele>150.0</ele><time>2026-04-12T07:08:49.001Z</time></trkpt><trkpt lat="45.5666138" lon="9.4506685"><ele>150.33333333333334</ele><time>2026-04-12T07:08:52.002Z</time></trkpt><trkpt lat="45.5667019" lon="9.4506423"><ele>150.66666666666666</ele><time>2026-04-12T07:08:54.001Z</time></trkpt><trkpt lat="45.566794" lon="9.4506244"><ele>151.0</ele><time>2026-04-12T07:08:56.001Z</time></trkpt><trkpt lat="45.566879" lon="9.4506239"><ele>151.33333333333331</ele><time>2026-04-12T07:08:58.002Z</time></trkpt><trkpt lat="45.5669591" lon="9.4506239"><ele>151.66666666666666</ele><time>2026-04-12T07:09:00.002Z</time></trkpt><trkpt lat="45.5670478" lon="9.4506044"><ele>152.0</ele><time>2026-04-12T07:09:02.002Z</time></trkpt><trkpt lat="45.5671197" lon="9.4505553"><ele>152.16666666666666</ele><time>2026-04-12T07:09:04.002Z</time></trkpt><trkpt lat="45.5671879" lon="9.4504775"><ele>152.33333333333331</ele><time>2026-04-12T07:09:07.002Z</time></trkpt><trkpt lat="45.5672742" lon="9.4504405"><ele>152.5</ele><time>2026-04-12T07:09:09.002Z</time></trkpt><trkpt lat="45.5673544" lon="9.4504206"><ele>152.66666666666666</ele><time>2026-04-12T07:09:11.002Z</time></trkpt><trkpt lat="45.5674425" lon="9.4504047"><ele>152.83333333333334</ele><time>2026-04-12T07:09:13.002Z</time></trkpt><trkpt lat="45.5675269" lon="9.450405"><ele>153.0</ele><time>2026-04-12T07:09:15.002Z</time></trkpt><trkpt lat="45.5676102" lon="9.4504107"><ele>153.0</ele><time>2026-04-12T07:09:17.002Z</time></trkpt><trkpt lat="45.5676771" lon="9.4504208"><ele>153.0</ele><time>2026-04-12T07:09:20.002Z</time></trkpt><trkpt lat="45.567759" lon="9.4503636"><ele>153.0</ele><time>2026-04-12T07:09:24.002Z</time></trkpt><trkpt lat="45.567826" lon="9.4503749"><ele>153.0</ele><time>2026-04-12T07:09:32.001Z</time></trkpt><trkpt lat="45.5678886" lon="9.4503598"><ele>153.0</ele><time>2026-04-12T07:09:35.001Z</time></trkpt><trkpt lat="45.5679766" lon="9.4503345"><ele>153.0</ele><time>2026-04-12T07:09:38.001Z</time></trkpt><trkpt lat="45.568052" lon="9.4503143"><ele>153.16666666666666</ele><time>2026-04-12T07:09:40.002Z</time></trkpt><trkpt lat="45.5681263" lon="9.4502816"><ele>153.33333333333334</ele><time>2026-04-12T07:09:42.001Z</time></trkpt><trkpt lat="45.5682099" lon="9.4502891"><ele>153.5</ele><time>2026-04-12T07:09:45.002Z</time></trkpt><trkpt lat="45.5682952" lon="9.4502543"><ele>153.66666666666669</ele><time>2026-04-12T07:09:49.001Z</time></trkpt><trkpt lat="45.5683649" lon="9.4502827"><ele>153.83333333333334</ele><time>2026-04-12T07:09:51.002Z</time></trkpt><trkpt lat="45.5684382" lon="9.4502991"><ele>154.0</ele><time>2026-04-12T07:09:53.001Z</time></trkpt><trkpt lat="45.5684978" lon="9.4503355"><ele>154.0</ele><time>2026-04-12T07:09:58.002Z</time></trkpt><trkpt lat="45.5685574" lon="9.4503044"><ele>154.0</ele><time>2026-04-12T07:10:07.002Z</time></trkpt><trkpt lat="45.5686202" lon="9.4502742"><ele>154.0</ele><time>2026-04-12T07:10:16.002Z</time></trkpt><trkpt lat="45.5686842" lon="9.4502725"><ele>154.0</ele><time>2026-04-12T07:10:23.002Z</time></trkpt><trkpt lat="45.5687653" lon="9.4502463"><ele>154.0</ele><time>2026-04-12T07:10:27.001Z</time></trkpt><trkpt lat="45.568834" lon="9.4502457"><ele>154.0</ele><time>2026-04-12T07:10:31.002Z</time></trkpt><trkpt lat="45.5688932" lon="9.4502129"><ele>154.0</ele><time>2026-04-12T07:10:34.001Z</time></trkpt><trkpt lat="45.5689621" lon="9.4501939"><ele>154.33333333333334</ele><time>2026-04-12T07:10:37.002Z</time></trkpt><trkpt lat="45.5690422" lon="9.4501623"><ele>154.66666666666669</ele><time>2026-04-12T07:10:40.001Z</time></trkpt><trkpt lat="45.5691275" lon="9.4501474"><ele>155.0</ele><time>2026-04-12T07:10:43.002Z</time></trkpt><trkpt lat="45.5692152" lon="9.4501286"><ele>155.33333333333334</ele><time>2026-04-12T07:10:46.001Z</time></trkpt><trkpt lat="45.5693045" lon="9.4501034"><ele>155.66666666666666</ele><time>2026-04-12T07:10:49.002Z</time></trkpt><trkpt lat="45.5693804" lon="9.4500873"><ele>156.0</ele><time>2026-04-12T07:10:52.002Z</time></trkpt><trkpt lat="45.5694432" lon="9.4500759"><ele>156.0</ele><time>2026-04-12T07:10:55.002Z</time></trkpt><trkpt lat="45.5695082" lon="9.4500524"><ele>156.0</ele><time>2026-04-12T07:11:00.002Z</time></trkpt><trkpt lat="45.5695829" lon="9.4500307"><ele>156.0</ele><time>2026-04-12T07:11:10.002Z</time></trkpt><trkpt lat="45.5696497" lon="9.4500471"><ele>156.0</ele><time>2026-04-12T07:11:15.002Z</time></trkpt><trkpt lat="45.5697141" lon="9.450041"><ele>156.0</ele><time>2026-04-12T07:11:18.001Z</time></trkpt><trkpt lat="45.5697858" lon="9.4500346"><ele>156.0</ele><time>2026-04-12T07:11:21.002Z</time></trkpt><trkpt lat="45.5698505" lon="9.4500239"><ele>156.0</ele><time>2026-04-12T07:11:23.001Z</time></trkpt><trkpt lat="45.5699167" lon="9.4500015"><ele>156.14285714285714</ele><time>2026-04-12T07:11:25.001Z</time></trkpt><trkpt lat="45.5699885" lon="9.4500004"><ele>156.28571428571428</ele><time>2026-04-12T07:11:27.002Z</time></trkpt><trkpt lat="45.5700605" lon="9.4500059"><ele>156.42857142857142</ele><time>2026-04-12T07:11:29.001Z</time></trkpt><trkpt lat="45.570132" lon="9.4500229"><ele>156.57142857142856</ele><time>2026-04-12T07:11:31.002Z</time></trkpt><trkpt lat="45.5702001" lon="9.4500343"><ele>156.71428571428572</ele><time>2026-04-12T07:11:33.002Z</time></trkpt><trkpt lat="45.5702803" lon="9.4500342"><ele>156.85714285714283</ele><time>2026-04-12T07:11:35.002Z</time></trkpt><trkpt lat="45.5703571" lon="9.4500296"><ele>157.0</ele><time>2026-04-12T07:11:37.001Z</time></trkpt><trkpt lat="45.5704354" lon="9.4500261"><ele>157.33333333333334</ele><time>2026-04-12T07:11:39.002Z</time></trkpt><trkpt lat="45.5705139" lon="9.4500216"><ele>157.66666666666669</ele><time>2026-04-12T07:11:41.002Z</time></trkpt><trkpt lat="45.570597" lon="9.4500158"><ele>158.0</ele><time>2026-04-12T07:11:43.002Z</time></trkpt><trkpt lat="45.5706727" lon="9.4500109"><ele>158.33333333333334</ele><time>2026-04-12T07:11:45.001Z</time></trkpt><trkpt lat="45.570736" lon="9.4500046"><ele>158.66666666666666</ele><time>2026-04-12T07:11:47.002Z</time></trkpt><trkpt lat="45.5708102" lon="9.4500526"><ele>159.0</ele><time>2026-04-12T07:11:50.002Z</time></trkpt><trkpt lat="45.5708865" lon="9.4500842"><ele>159.0</ele><time>2026-04-12T07:11:52.002Z</time></trkpt><trkpt lat="45.5709703" lon="9.4501147"><ele>159.0</ele><time>2026-04-12T07:11:54.002Z</time></trkpt><trkpt lat="45.5710385" lon="9.4501721"><ele>159.0</ele><time>2026-04-12T07:11:56.001Z</time></trkpt><trkpt lat="45.5711078" lon="9.4502087"><ele>159.0</ele><time>2026-04-12T07:11:58.001Z</time></trkpt><trkpt lat="45.5711744" lon="9.4502455"><ele>159.0</ele><time>2026-04-12T07:12:00.002Z</time></trkpt><trkpt lat="45.5712296" lon="9.4503015"><ele>159.0</ele><time>2026-04-12T07:12:02.002Z</time></trkpt><trkpt lat="45.5712903" lon="9.4503388"><ele>159.0</ele><time>2026-04-12T07:12:04.001Z</time></trkpt><trkpt lat="45.5713592" lon="9.450382"><ele>159.28571428571428</ele><time>2026-04-12T07:12:06.002Z</time></trkpt><trkpt lat="45.5714195" lon="9.4504278"><ele>159.57142857142858</ele><time>2026-04-12T07:12:08.001Z</time></trkpt><trkpt lat="45.5714859" lon="9.4504599"><ele>159.85714285714286</ele><time>2026-04-12T07:12:10.002Z</time></trkpt><trkpt lat="45.5715568" lon="9.4504838"><ele>160.14285714285714</ele><time>2026-04-12T07:12:12.002Z</time></trkpt><trkpt lat="45.5716254" lon="9.450525"><ele>160.42857142857144</ele><time>2026-04-12T07:12:14.002Z</time></trkpt><trkpt lat="45.5716786" lon="9.4505848"><ele>160.71428571428572</ele><time>2026-04-12T07:12:16.002Z</time></trkpt><trkpt lat="45.5717335" lon="9.4506695"><ele>161.0</ele><time>2026-04-12T07:12:19.002Z</time></trkpt><trkpt lat="45.571803" lon="9.4507345"><ele>161.0</ele><time>2026-04-12T07:12:22.002Z</time></trkpt><trkpt lat="45.5718845" lon="9.4507894"><ele>161.0</ele><time>2026-04-12T07:12:25.002Z</time></trkpt><trkpt lat="45.5719626" lon="9.4508494"><ele>161.0</ele><time>2026-04-12T07:12:28.001Z</time></trkpt><trkpt lat="45.5720109" lon="9.4509148"><ele>161.0</ele><time>2026-04-12T07:12:31.002Z</time></trkpt><trkpt lat="45.5720546" lon="9.4509964"><ele>161.0</ele><time>2026-04-12T07:12:34.001Z</time></trkpt><trkpt lat="45.5720718" lon="9.4510835"><ele>161.0</ele><time>2026-04-12T07:12:37.002Z</time></trkpt><trkpt lat="45.5721434" lon="9.4511244"><ele>160.33333333333331</ele><time>2026-04-12T07:12:40.002Z</time></trkpt><trkpt lat="45.5722083" lon="9.4511311"><ele>159.66666666666666</ele><time>2026-04-12T07:12:42.002Z</time></trkpt><trkpt lat="45.5722713" lon="9.4511069"><ele>159.0</ele><time>2026-04-12T07:12:44.002Z</time></trkpt><trkpt lat="45.5723551" lon="9.4511287"><ele>158.33333333333334</ele><time>2026-04-12T07:12:48.001Z</time></trkpt><trkpt lat="45.5724315" lon="9.4511302"><ele>157.66666666666669</ele><time>2026-04-12T07:12:51.001Z</time></trkpt><trkpt lat="45.5725099" lon="9.4510797"><ele>157.0</ele><time>2026-04-12T07:12:54.001Z</time></trkpt><trkpt lat="45.5726016" lon="9.4510383"><ele>157.0</ele><time>2026-04-12T07:12:57.001Z</time></trkpt><trkpt lat="45.5726674" lon="9.4510589"><ele>157.0</ele><time>2026-04-12T07:13:00.001Z</time></trkpt><trkpt lat="45.572738" lon="9.4510697"><ele>157.0</ele><time>2026-04-12T07:13:03.002Z</time></trkpt><trkpt lat="45.5728129" lon="9.4511016"><ele>157.0</ele><time>2026-04-12T07:13:05.002Z</time></trkpt><trkpt lat="45.5728979" lon="9.4511522"><ele>157.0</ele><time>2026-04-12T07:13:07.002Z</time></trkpt><trkpt lat="45.5729782" lon="9.4511934"><ele>157.0</ele><time>2026-04-12T07:13:09.002Z</time></trkpt><trkpt lat="45.5730644" lon="9.4512235"><ele>157.16666666666669</ele><time>2026-04-12T07:13:11.002Z</time></trkpt><trkpt lat="45.5731233" lon="9.451316"><ele>157.33333333333334</ele><time>2026-04-12T07:13:14.001Z</time></trkpt><trkpt lat="45.5731454" lon="9.4514085"><ele>157.5</ele><time>2026-04-12T07:13:17.001Z</time></trkpt><trkpt lat="45.5732227" lon="9.451448"><ele>157.66666666666666</ele><time>2026-04-12T07:13:20.002Z</time></trkpt><trkpt lat="45.5733057" lon="9.4514677"><ele>157.83333333333331</ele><time>2026-04-12T07:13:23.002Z</time></trkpt><trkpt lat="45.5733672" lon="9.4514892"><ele>158.0</ele><time>2026-04-12T07:13:25.002Z</time></trkpt><trkpt lat="45.5734322" lon="9.451502"><ele>158.0</ele><time>2026-04-12T07:13:27.002Z</time></trkpt><trkpt lat="45.5735163" lon="9.4514969"><ele>158.0</ele><time>2026-04-12T07:13:30.002Z</time></trkpt><trkpt lat="45.5735869" lon="9.4515463"><ele>158.0</ele><time>2026-04-12T07:13:33.001Z</time></trkpt><trkpt lat="45.5736848" lon="9.4515598"><ele>158.0</ele><time>2026-04-12T07:13:36.001Z</time></trkpt><trkpt lat="45.5737474" lon="9.4515779"><ele>158.0</ele><time>2026-04-12T07:13:38.001Z</time></trkpt><trkpt lat="45.5738358" lon="9.4515768"><ele>158.0</ele><time>2026-04-12T07:13:41.002Z</time></trkpt><trkpt lat="45.5739004" lon="9.4515725"><ele>158.33333333333331</ele><time>2026-04-12T07:13:43.002Z</time></trkpt><trkpt lat="45.5739605" lon="9.4516153"><ele>158.66666666666666</ele><time>2026-04-12T07:13:46.001Z</time></trkpt><trkpt lat="45.5740315" lon="9.4515896"><ele>159.0</ele><time>2026-04-12T07:13:49.001Z</time></trkpt><trkpt lat="45.5740216" lon="9.4514844"><ele>159.33333333333334</ele><time>2026-04-12T07:13:52.001Z</time></trkpt><trkpt lat="45.5739948" lon="9.4513764"><ele>159.66666666666669</ele><time>2026-04-12T07:13:55.001Z</time></trkpt><trkpt lat="45.5739771" lon="9.4512682"><ele>160.0</ele><time>2026-04-12T07:13:58.002Z</time></trkpt><trkpt lat="45.5739614" lon="9.4511372"><ele>160.0</ele><time>2026-04-12T07:14:01.002Z</time></trkpt><trkpt lat="45.5739546" lon="9.4510327"><ele>160.0</ele><time>2026-04-12T07:14:03.002Z</time></trkpt><trkpt lat="45.5739506" lon="9.4509245"><ele>160.0</ele><time>2026-04-12T07:14:05.002Z</time></trkpt><trkpt lat="45.5739447" lon="9.4508083"><ele>160.0</ele><time>2026-04-12T07:14:07.002Z</time></trkpt><trkpt lat="45.5739425" lon="9.450672"><ele>160.0</ele><time>2026-04-12T07:14:09.002Z</time></trkpt><trkpt lat="45.5739456" lon="9.4505346"><ele>160.0</ele><time>2026-04-12T07:14:11.002Z</time></trkpt><trkpt lat="45.574004" lon="9.4504228"><ele>159.0</ele><time>2026-04-12T07:14:13.002Z</time></trkpt><trkpt lat="45.5740997" lon="9.4503976"><ele>158.0</ele><time>2026-04-12T07:14:15.002Z</time></trkpt><trkpt lat="45.5741816" lon="9.4503921"><ele>157.0</ele><time>2026-04-12T07:14:17.002Z</time></trkpt><trkpt lat="45.574266" lon="9.4503955"><ele>156.0</ele><time>2026-04-12T07:14:19.002Z</time></trkpt><trkpt lat="45.5743587" lon="9.4504011"><ele>155.0</ele><time>2026-04-12T07:14:21.001Z</time></trkpt><trkpt lat="45.5744483" lon="9.4504544"><ele>155.28571428571428</ele><time>2026-04-12T07:14:23.002Z</time></trkpt><trkpt lat="45.574466" lon="9.4505626"><ele>155.57142857142856</ele><time>2026-04-12T07:14:25.002Z</time></trkpt><trkpt lat="45.5744771" lon="9.4506616"><ele>155.85714285714283</ele><time>2026-04-12T07:14:27.002Z</time></trkpt><trkpt lat="45.5744968" lon="9.4507474"><ele>156.14285714285714</ele><time>2026-04-12T07:14:29.001Z</time></trkpt><trkpt lat="45.5745325" lon="9.4508698"><ele>156.42857142857142</ele><time>2026-04-12T07:14:32.001Z</time></trkpt><trkpt lat="45.5745772" lon="9.4509447"><ele>156.7142857142857</ele><time>2026-04-12T07:14:34.001Z</time></trkpt><trkpt lat="45.574631" lon="9.4510062"><ele>157.0</ele><time>2026-04-12T07:14:36.001Z</time></trkpt><trkpt lat="45.5746938" lon="9.4510577"><ele>157.0</ele><time>2026-04-12T07:14:38.002Z</time></trkpt><trkpt lat="45.574762" lon="9.4511128"><ele>157.0</ele><time>2026-04-12T07:14:40.002Z</time></trkpt><trkpt lat="45.5748313" lon="9.4511557"><ele>157.0</ele><time>2026-04-12T07:14:42.002Z</time></trkpt><trkpt lat="45.5749031" lon="9.4511866"><ele>157.0</ele><time>2026-04-12T07:14:44.002Z</time></trkpt><trkpt lat="45.5749856" lon="9.4511291"><ele>157.0</ele><time>2026-04-12T07:14:46.002Z</time></trkpt><trkpt lat="45.5750787" lon="9.4510961"><ele>157.0</ele><time>2026-04-12T07:14:48.002Z</time></trkpt><trkpt lat="45.5751701" lon="9.4511118"><ele>157.0</ele><time>2026-04-12T07:14:50.002Z</time></trkpt><trkpt lat="45.5752552" lon="9.4511298"><ele>157.0</ele><time>2026-04-12T07:14:52.002Z</time></trkpt><trkpt lat="45.5753371" lon="9.4511247"><ele>157.0</ele><time>2026-04-12T07:14:54.001Z</time></trkpt><trkpt lat="45.5754061" lon="9.4511471"><ele>157.0</ele><time>2026-04-12T07:14:56.002Z</time></trkpt><trkpt lat="45.5754693" lon="9.4510585"><ele>157.0</ele><time>2026-04-12T07:14:59.002Z</time></trkpt><trkpt lat="45.5755051" lon="9.4509102"><ele>157.0</ele><time>2026-04-12T07:15:01.002Z</time></trkpt><trkpt lat="45.5755372" lon="9.4507735"><ele>158.16666666666669</ele><time>2026-04-12T07:15:03.002Z</time></trkpt><trkpt lat="45.5756327" lon="9.4507021"><ele>159.33333333333334</ele><time>2026-04-12T07:15:06.002Z</time></trkpt><trkpt lat="45.575703" lon="9.4506682"><ele>160.5</ele><time>2026-04-12T07:15:08.002Z</time></trkpt><trkpt lat="45.5757869" lon="9.4506516"><ele>161.66666666666666</ele><time>2026-04-12T07:15:10.002Z</time></trkpt><trkpt lat="45.5758586" lon="9.4506891"><ele>162.83333333333331</ele><time>2026-04-12T07:15:12.001Z</time></trkpt><trkpt lat="45.5759358" lon="9.4507365"><ele>164.0</ele><time>2026-04-12T07:15:14.001Z</time></trkpt><trkpt lat="45.5760158" lon="9.450799"><ele>164.0</ele><time>2026-04-12T07:15:16.002Z</time></trkpt><trkpt lat="45.5760891" lon="9.4508699"><ele>164.0</ele><time>2026-04-12T07:15:18.001Z</time></trkpt><trkpt lat="45.5761583" lon="9.4509573"><ele>164.0</ele><time>2026-04-12T07:15:20.001Z</time></trkpt><trkpt lat="45.5762283" lon="9.4510387"><ele>164.0</ele><time>2026-04-12T07:15:22.002Z</time></trkpt><trkpt lat="45.5762937" lon="9.451136"><ele>164.0</ele><time>2026-04-12T07:15:24.002Z</time></trkpt><trkpt lat="45.5763654" lon="9.4512239"><ele>164.0</ele><time>2026-04-12T07:15:26.002Z</time></trkpt><trkpt lat="45.5764397" lon="9.4513107"><ele>164.0</ele><time>2026-04-12T07:15:28.002Z</time></trkpt><trkpt lat="45.5765326" lon="9.4513744"><ele>164.0</ele><time>2026-04-12T07:15:30.002Z</time></trkpt><trkpt lat="45.5766203" lon="9.4514233"><ele>164.0</ele><time>2026-04-12T07:15:32.002Z</time></trkpt><trkpt lat="45.5767099" lon="9.451468"><ele>164.0</ele><time>2026-04-12T07:15:34.002Z</time></trkpt><trkpt lat="45.5768106" lon="9.4514915"><ele>164.0</ele><time>2026-04-12T07:15:36.002Z</time></trkpt><trkpt lat="45.5768985" lon="9.4514885"><ele>164.0</ele><time>2026-04-12T07:15:38.002Z</time></trkpt><trkpt lat="45.5769957" lon="9.4515095"><ele>164.0</ele><time>2026-04-12T07:15:40.001Z</time></trkpt><trkpt lat="45.5770702" lon="9.4515135"><ele>164.0</ele><time>2026-04-12T07:15:42.002Z</time></trkpt><trkpt lat="45.5771457" lon="9.4515254"><ele>164.0</ele><time>2026-04-12T07:15:44.002Z</time></trkpt><trkpt lat="45.5772332" lon="9.4515127"><ele>164.0</ele><time>2026-04-12T07:15:47.002Z</time></trkpt><trkpt lat="45.5773065" lon="9.4514674"><ele>164.0</ele><time>2026-04-12T07:15:50.002Z</time></trkpt><trkpt lat="45.5773604" lon="9.4513609"><ele>164.0</ele><time>2026-04-12T07:15:53.001Z</time></trkpt><trkpt lat="45.5774103" lon="9.4512657"><ele>164.0</ele><time>2026-04-12T07:15:55.001Z</time></trkpt><trkpt lat="45.5774758" lon="9.4511782"><ele>164.0</ele><time>2026-04-12T07:15:57.002Z</time></trkpt><trkpt lat="45.5775489" lon="9.4511052"><ele>164.0</ele><time>2026-04-12T07:15:59.002Z</time></trkpt><trkpt lat="45.5776156" lon="9.4510293"><ele>164.0</ele><time>2026-04-12T07:16:01.002Z</time></trkpt><trkpt lat="45.5776784" lon="9.4509529"><ele>164.0</ele><time>2026-04-12T07:16:03.001Z</time></trkpt><trkpt lat="45.5777375" lon="9.4508877"><ele>164.0</ele><time>2026-04-12T07:16:05.001Z</time></trkpt><trkpt lat="45.5778184" lon="9.4508253"><ele>164.0</ele><time>2026-04-12T07:16:07.001Z</time></trkpt><trkpt lat="45.577899" lon="9.4507836"><ele>164.0</ele><time>2026-04-12T07:16:09.001Z</time></trkpt><trkpt lat="45.5779852" lon="9.4507341"><ele>164.0</ele><time>2026-04-12T07:16:11.002Z</time></trkpt><trkpt lat="45.5780772" lon="9.4507095"><ele>164.0</ele><time>2026-04-12T07:16:13.002Z</time></trkpt><trkpt lat="45.5781528" lon="9.4506795"><ele>164.33333333333331</ele><time>2026-04-12T07:16:15.001Z</time></trkpt><trkpt lat="45.5782342" lon="9.4506517"><ele>164.66666666666666</ele><time>2026-04-12T07:16:17.002Z</time></trkpt><trkpt lat="45.5783162" lon="9.450617"><ele>165.0</ele><time>2026-04-12T07:16:19.002Z</time></trkpt><trkpt lat="45.578397" lon="9.4506061"><ele>165.33333333333334</ele><time>2026-04-12T07:16:21.002Z</time></trkpt><trkpt lat="45.5784639" lon="9.4506313"><ele>165.66666666666669</ele><time>2026-04-12T07:16:23.002Z</time></trkpt><trkpt lat="45.5785185" lon="9.4506865"><ele>166.0</ele><time>2026-04-12T07:16:25.002Z</time></trkpt><trkpt lat="45.5785663" lon="9.4507471"><ele>166.0</ele><time>2026-04-12T07:16:27.001Z</time></trkpt><trkpt lat="45.57862" lon="9.450813"><ele>166.0</ele><time>2026-04-12T07:16:30.001Z</time></trkpt><trkpt lat="45.5786935" lon="9.4509056"><ele>166.0</ele><time>2026-04-12T07:16:33.001Z</time></trkpt><trkpt lat="45.5787432" lon="9.4510121"><ele>166.0</ele><time>2026-04-12T07:16:36.002Z</time></trkpt><trkpt lat="45.5787943" lon="9.4511056"><ele>166.0</ele><time>2026-04-12T07:16:39.002Z</time></trkpt><trkpt lat="45.5788299" lon="9.451218"><ele>166.0</ele><time>2026-04-12T07:16:42.002Z</time></trkpt><trkpt lat="45.57884" lon="9.4513359"><ele>165.83333333333334</ele><time>2026-04-12T07:16:45.001Z</time></trkpt><trkpt lat="45.5788446" lon="9.4514516"><ele>165.66666666666669</ele><time>2026-04-12T07:16:48.002Z</time></trkpt><trkpt lat="45.5788802" lon="9.4515575"><ele>165.5</ele><time>2026-04-12T07:16:52.002Z</time></trkpt><trkpt lat="45.5789308" lon="9.4516582"><ele>165.33333333333334</ele><time>2026-04-12T07:17:14.002Z</time></trkpt><trkpt lat="45.5789748" lon="9.4517308"><ele>165.16666666666666</ele><time>2026-04-12T07:17:21.002Z</time></trkpt><trkpt lat="45.5790592" lon="9.4517332"><ele>165.0</ele><time>2026-04-12T07:17:28.002Z</time></trkpt><trkpt lat="45.5791401" lon="9.4517105"><ele>165.0</ele><time>2026-04-12T07:17:31.002Z</time></trkpt><trkpt lat="45.5792135" lon="9.4517454"><ele>165.0</ele><time>2026-04-12T07:17:34.001Z</time></trkpt><trkpt lat="45.5792758" lon="9.4517895"><ele>165.0</ele><time>2026-04-12T07:17:36.002Z</time></trkpt><trkpt lat="45.5793498" lon="9.4517761"><ele>165.0</ele><time>2026-04-12T07:17:38.002Z</time></trkpt><trkpt lat="45.5794291" lon="9.4517811"><ele>165.0</ele><time>2026-04-12T07:17:40.002Z</time></trkpt><trkpt lat="45.5795113" lon="9.4517963"><ele>165.0</ele><time>2026-04-12T07:17:42.002Z</time></trkpt><trkpt lat="45.5795959" lon="9.4518067"><ele>164.66666666666666</ele><time>2026-04-12T07:17:44.002Z</time></trkpt><trkpt lat="45.5796789" lon="9.4518229"><ele>164.33333333333334</ele><time>2026-04-12T07:17:46.002Z</time></trkpt><trkpt lat="45.5797593" lon="9.4518435"><ele>164.0</ele><time>2026-04-12T07:17:48.002Z</time></trkpt><trkpt lat="45.5798308" lon="9.4518736"><ele>163.66666666666669</ele><time>2026-04-12T07:17:50.002Z</time></trkpt><trkpt lat="45.5799225" lon="9.4518873"><ele>163.33333333333334</ele><time>2026-04-12T07:17:53.001Z</time></trkpt><trkpt lat="45.5799694" lon="9.4518233"><ele>163.0</ele><time>2026-04-12T07:17:55.002Z</time></trkpt><trkpt lat="45.580012" lon="9.4517397"><ele>163.0</ele><time>2026-04-12T07:17:58.001Z</time></trkpt><trkpt lat="45.5801011" lon="9.4516637"><ele>163.0</ele><time>2026-04-12T07:18:01.001Z</time></trkpt><trkpt lat="45.5801768" lon="9.4516089"><ele>163.0</ele><time>2026-04-12T07:18:03.002Z</time></trkpt><trkpt lat="45.5802628" lon="9.4515819"><ele>163.0</ele><time>2026-04-12T07:18:05.002Z</time></trkpt><trkpt lat="45.5803526" lon="9.4515702"><ele>163.0</ele><time>2026-04-12T07:18:07.002Z</time></trkpt><trkpt lat="45.5804362" lon="9.4515686"><ele>163.33333333333334</ele><time>2026-04-12T07:18:09.001Z</time></trkpt><trkpt lat="45.5805127" lon="9.4515635"><ele>163.66666666666669</ele><time>2026-04-12T07:18:11.002Z</time></trkpt><trkpt lat="45.5805853" lon="9.4515759"><ele>164.0</ele><time>2026-04-12T07:18:13.002Z</time></trkpt><trkpt lat="45.5806565" lon="9.451534"><ele>164.33333333333334</ele><time>2026-04-12T07:18:16.002Z</time></trkpt><trkpt lat="45.5807042" lon="9.4514475"><ele>164.66666666666666</ele><time>2026-04-12T07:18:18.002Z</time></trkpt><trkpt lat="45.5807664" lon="9.4513202"><ele>165.0</ele><time>2026-04-12T07:18:20.001Z</time></trkpt><trkpt lat="45.5808174" lon="9.4512065"><ele>165.0</ele><time>2026-04-12T07:18:22.001Z</time></trkpt><trkpt lat="45.5808493" lon="9.4510679"><ele>165.0</ele><time>2026-04-12T07:18:24.001Z</time></trkpt><trkpt lat="45.5808864" lon="9.4509668"><ele>165.0</ele><time>2026-04-12T07:18:26.002Z</time></trkpt><trkpt lat="45.5809385" lon="9.4508739"><ele>165.0</ele><time>2026-04-12T07:18:28.001Z</time></trkpt><trkpt lat="45.5809697" lon="9.4507366"><ele>165.0</ele><time>2026-04-12T07:18:30.002Z</time></trkpt><trkpt lat="45.5809814" lon="9.4506226"><ele>165.0</ele><time>2026-04-12T07:18:32.002Z</time></trkpt><trkpt lat="45.5809786" lon="9.4505039"><ele>165.00000000000003</ele><time>2026-04-12T07:18:34.001Z</time></trkpt><trkpt lat="45.5809934" lon="9.4503982"><ele>165.0</ele><time>2026-04-12T07:18:36.001Z</time></trkpt><trkpt lat="45.5810094" lon="9.4502957"><ele>165.0</ele><time>2026-04-12T07:18:38.002Z</time></trkpt><trkpt lat="45.581024" lon="9.4501786"><ele>165.0</ele><time>2026-04-12T07:18:40.002Z</time></trkpt><trkpt lat="45.5810436" lon="9.4500639"><ele>165.0</ele><time>2026-04-12T07:18:42.002Z</time></trkpt><trkpt lat="45.5810893" lon="9.4499865"><ele>165.00000000000003</ele><time>2026-04-12T07:18:44.002Z</time></trkpt><trkpt lat="45.5811415" lon="9.4499344"><ele>165.0</ele><time>2026-04-12T07:18:46.002Z</time></trkpt><trkpt lat="45.5812087" lon="9.4499103"><ele>165.0</ele><time>2026-04-12T07:18:48.002Z</time></trkpt><trkpt lat="45.5812967" lon="9.4498961"><ele>165.0</ele><time>2026-04-12T07:18:51.001Z</time></trkpt><trkpt lat="45.5814004" lon="9.4499209"><ele>165.0</ele><time>2026-04-12T07:18:53.002Z</time></trkpt><trkpt lat="45.5814989" lon="9.4499459"><ele>165.0</ele><time>2026-04-12T07:18:55.002Z</time></trkpt><trkpt lat="45.5815743" lon="9.4499417"><ele>165.0</ele><time>2026-04-12T07:18:58.002Z</time></trkpt><trkpt lat="45.5816376" lon="9.4499137"><ele>165.0</ele><time>2026-04-12T07:19:31.002Z</time></trkpt><trkpt lat="45.5817056" lon="9.4498698"><ele>165.00000000000003</ele><time>2026-04-12T07:19:35.001Z</time></trkpt><trkpt lat="45.5817341" lon="9.4497847"><ele>165.0</ele><time>2026-04-12T07:19:37.002Z</time></trkpt><trkpt lat="45.5817609" lon="9.4496884"><ele>165.0</ele><time>2026-04-12T07:19:39.002Z</time></trkpt><trkpt lat="45.5817959" lon="9.4495887"><ele>165.0</ele><time>2026-04-12T07:19:41.001Z</time></trkpt><trkpt lat="45.581828" lon="9.4494876"><ele>165.0</ele><time>2026-04-12T07:19:43.001Z</time></trkpt><trkpt lat="45.5818601" lon="9.4493882"><ele>165.00000000000003</ele><time>2026-04-12T07:19:45.002Z</time></trkpt><trkpt lat="45.5818902" lon="9.4492951"><ele>165.0</ele><time>2026-04-12T07:19:47.002Z</time></trkpt><trkpt lat="45.5819192" lon="9.4492095"><ele>165.0</ele><time>2026-04-12T07:19:49.002Z</time></trkpt><trkpt lat="45.5819631" lon="9.4491192"><ele>165.0</ele><time>2026-04-12T07:19:52.002Z</time></trkpt><trkpt lat="45.5820316" lon="9.4491104"><ele>165.0</ele><time>2026-04-12T07:20:05.002Z</time></trkpt><trkpt lat="45.5821176" lon="9.4490893"><ele>165.0</ele><time>2026-04-12T07:20:08.001Z</time></trkpt><trkpt lat="45.5821444" lon="9.448992"><ele>165.0</ele><time>2026-04-12T07:20:10.001Z</time></trkpt><trkpt lat="45.5821758" lon="9.4488908"><ele>165.0</ele><time>2026-04-12T07:20:12.001Z</time></trkpt><trkpt lat="45.5821997" lon="9.4487904"><ele>165.85714285714286</ele><time>2026-04-12T07:20:14.002Z</time></trkpt><trkpt lat="45.5822224" lon="9.4486799"><ele>166.71428571428572</ele><time>2026-04-12T07:20:16.002Z</time></trkpt><trkpt lat="45.5822701" lon="9.4486054"><ele>167.57142857142856</ele><time>2026-04-12T07:20:18.001Z</time></trkpt><trkpt lat="45.5823541" lon="9.4485953"><ele>168.42857142857144</ele><time>2026-04-12T07:20:21.002Z</time></trkpt><trkpt lat="45.5824168" lon="9.4485662"><ele>169.28571428571428</ele><time>2026-04-12T07:20:23.001Z</time></trkpt><trkpt lat="45.5824785" lon="9.4485192"><ele>170.14285714285714</ele><time>2026-04-12T07:20:25.002Z</time></trkpt><trkpt lat="45.5825523" lon="9.4485074"><ele>171.0</ele><time>2026-04-12T07:20:27.002Z</time></trkpt><trkpt lat="45.5826142" lon="9.4484858"><ele>170.99999999999997</ele><time>2026-04-12T07:20:29.001Z</time></trkpt><trkpt lat="45.5826806" lon="9.4484791"><ele>171.0</ele><time>2026-04-12T07:20:31.002Z</time></trkpt><trkpt lat="45.5827434" lon="9.4484268"><ele>171.0</ele><time>2026-04-12T07:20:34.001Z</time></trkpt><trkpt lat="45.5828029" lon="9.4484684"><ele>171.0</ele><time>2026-04-12T07:20:39.002Z</time></trkpt><trkpt lat="45.5828778" lon="9.448486"><ele>171.0</ele><time>2026-04-12T07:20:42.002Z</time></trkpt><trkpt lat="45.5829503" lon="9.4484852"><ele>170.99999999999997</ele><time>2026-04-12T07:20:45.002Z</time></trkpt><trkpt lat="45.5830149" lon="9.4484664"><ele>171.0</ele><time>2026-04-12T07:20:47.002Z</time></trkpt><trkpt lat="45.5830786" lon="9.4484883"><ele>171.28571428571428</ele><time>2026-04-12T07:20:49.002Z</time></trkpt><trkpt lat="45.5831433" lon="9.4485072"><ele>171.57142857142856</ele><time>2026-04-12T07:20:51.002Z</time></trkpt><trkpt lat="45.5832096" lon="9.4485332"><ele>171.85714285714283</ele><time>2026-04-12T07:20:53.001Z</time></trkpt><trkpt lat="45.5832803" lon="9.4485545"><ele>172.14285714285714</ele><time>2026-04-12T07:20:55.002Z</time></trkpt><trkpt lat="45.5833433" lon="9.4485917"><ele>172.42857142857144</ele><time>2026-04-12T07:20:57.002Z</time></trkpt><trkpt lat="45.583376" lon="9.4486818"><ele>172.7142857142857</ele><time>2026-04-12T07:20:59.002Z</time></trkpt><trkpt lat="45.5834397" lon="9.4487612"><ele>173.0</ele><time>2026-04-12T07:21:01.002Z</time></trkpt><trkpt lat="45.5835306" lon="9.4487614"><ele>173.0</ele><time>2026-04-12T07:21:03.002Z</time></trkpt><trkpt lat="45.5836174" lon="9.4487734"><ele>173.0</ele><time>2026-04-12T07:21:05.002Z</time></trkpt><trkpt lat="45.583683" lon="9.4487839"><ele>173.0</ele><time>2026-04-12T07:21:18.002Z</time></trkpt><trkpt lat="45.5837487" lon="9.4487968"><ele>173.0</ele><time>2026-04-12T07:21:27.002Z</time></trkpt><trkpt lat="45.5838312" lon="9.4487877"><ele>173.0</ele><time>2026-04-12T07:21:31.001Z</time></trkpt><trkpt lat="45.5838938" lon="9.4488016"><ele>173.0</ele><time>2026-04-12T07:21:34.001Z</time></trkpt><trkpt lat="45.5839833" lon="9.4488323"><ele>173.0</ele><time>2026-04-12T07:21:37.002Z</time></trkpt><trkpt lat="45.5840506" lon="9.4488089"><ele>173.0</ele><time>2026-04-12T07:21:39.001Z</time></trkpt><trkpt lat="45.5841123" lon="9.4487728"><ele>173.0</ele><time>2026-04-12T07:21:42.002Z</time></trkpt><trkpt lat="45.5841824" lon="9.4487167"><ele>173.0</ele><time>2026-04-12T07:21:46.001Z</time></trkpt><trkpt lat="45.5842399" lon="9.4486507"><ele>173.0</ele><time>2026-04-12T07:21:49.002Z</time></trkpt><trkpt lat="45.584312" lon="9.4486"><ele>173.0</ele><time>2026-04-12T07:21:52.002Z</time></trkpt><trkpt lat="45.5843914" lon="9.4485628"><ele>173.0</ele><time>2026-04-12T07:21:55.002Z</time></trkpt><trkpt lat="45.5844559" lon="9.4484982"><ele>173.0</ele><time>2026-04-12T07:22:00.002Z</time></trkpt><trkpt lat="45.584519" lon="9.4484694"><ele>173.0</ele><time>2026-04-12T07:22:04.002Z</time></trkpt><trkpt lat="45.5845883" lon="9.4484371"><ele>173.0</ele><time>2026-04-12T07:22:08.002Z</time></trkpt><trkpt lat="45.5846534" lon="9.4484919"><ele>173.0</ele><time>2026-04-12T07:22:12.002Z</time></trkpt><trkpt lat="45.5847217" lon="9.44851"><ele>173.0</ele><time>2026-04-12T07:22:15.002Z</time></trkpt><trkpt lat="45.5847792" lon="9.4485621"><ele>173.0</ele><time>2026-04-12T07:22:23.002Z</time></trkpt><trkpt lat="45.5848125" lon="9.4486413"><ele>173.0</ele><time>2026-04-12T07:22:31.002Z</time></trkpt><trkpt lat="45.5848802" lon="9.4486109"><ele>173.0</ele><time>2026-04-12T07:23:02.001Z</time></trkpt><trkpt lat="45.5849445" lon="9.4485651"><ele>173.0</ele><time>2026-04-12T07:23:06.001Z</time></trkpt><trkpt lat="45.5849781" lon="9.4484838"><ele>173.0</ele><time>2026-04-12T07:23:09.001Z</time></trkpt><trkpt lat="45.5850117" lon="9.4483862"><ele>173.0</ele><time>2026-04-12T07:23:12.002Z</time></trkpt><trkpt lat="45.5850704" lon="9.4483024"><ele>173.0</ele><time>2026-04-12T07:23:15.002Z</time></trkpt><trkpt lat="45.5851381" lon="9.4482531"><ele>173.0</ele><time>2026-04-12T07:23:18.002Z</time></trkpt><trkpt lat="45.5851996" lon="9.4482283"><ele>173.0</ele><time>2026-04-12T07:23:20.002Z</time></trkpt><trkpt lat="45.5852642" lon="9.4482051"><ele>173.0</ele><time>2026-04-12T07:23:22.002Z</time></trkpt><trkpt lat="45.5853012" lon="9.4481285"><ele>173.0</ele><time>2026-04-12T07:23:26.002Z</time></trkpt><trkpt lat="45.5853695" lon="9.4481097"><ele>173.0</ele><time>2026-04-12T07:23:29.002Z</time></trkpt><trkpt lat="45.5854797" lon="9.4481594"><ele>173.0</ele><time>2026-04-12T07:23:31.002Z</time></trkpt><trkpt lat="45.5855599" lon="9.4482141"><ele>173.0</ele><time>2026-04-12T07:23:33.002Z</time></trkpt><trkpt lat="45.5856157" lon="9.4482806"><ele>173.14285714285714</ele><time>2026-04-12T07:23:35.002Z</time></trkpt><trkpt lat="45.585645" lon="9.4483812"><ele>173.2857142857143</ele><time>2026-04-12T07:23:38.002Z</time></trkpt><trkpt lat="45.5856424" lon="9.4484866"><ele>173.42857142857144</ele><time>2026-04-12T07:23:41.001Z</time></trkpt><trkpt lat="45.5856332" lon="9.448606"><ele>173.57142857142856</ele><time>2026-04-12T07:23:45.002Z</time></trkpt><trkpt lat="45.5856395" lon="9.4487236"><ele>173.71428571428572</ele><time>2026-04-12T07:23:49.001Z</time></trkpt><trkpt lat="45.585656" lon="9.4488113"><ele>173.85714285714286</ele><time>2026-04-12T07:23:52.001Z</time></trkpt><trkpt lat="45.5856793" lon="9.4489002"><ele>174.0</ele><time>2026-04-12T07:23:55.001Z</time></trkpt><trkpt lat="45.5857425" lon="9.4489765"><ele>174.33333333333334</ele><time>2026-04-12T07:23:58.001Z</time></trkpt><trkpt lat="45.5857986" lon="9.449019"><ele>174.66666666666666</ele><time>2026-04-12T07:24:00.001Z</time></trkpt><trkpt lat="45.5858566" lon="9.4490569"><ele>175.0</ele><time>2026-04-12T07:24:02.001Z</time></trkpt><trkpt lat="45.5859226" lon="9.4490945"><ele>175.33333333333331</ele><time>2026-04-12T07:24:04.001Z</time></trkpt><trkpt lat="45.5860069" lon="9.4491497"><ele>175.66666666666666</ele><time>2026-04-12T07:24:07.002Z</time></trkpt><trkpt lat="45.5860828" lon="9.4491988"><ele>176.0</ele><time>2026-04-12T07:24:10.002Z</time></trkpt><trkpt lat="45.586151" lon="9.4492492"><ele>176.0</ele><time>2026-04-12T07:24:14.001Z</time></trkpt><trkpt lat="45.5862106" lon="9.449287"><ele>176.0</ele><time>2026-04-12T07:24:17.001Z</time></trkpt><trkpt lat="45.586288" lon="9.4493288"><ele>176.0</ele><time>2026-04-12T07:24:21.002Z</time></trkpt><trkpt lat="45.5863647" lon="9.4493673"><ele>176.0</ele><time>2026-04-12T07:24:25.002Z</time></trkpt><trkpt lat="45.586448" lon="9.4493904"><ele>176.0</ele><time>2026-04-12T07:24:29.002Z</time></trkpt><trkpt lat="45.5865112" lon="9.4494023"><ele>176.0</ele><time>2026-04-12T07:24:32.002Z</time></trkpt><trkpt lat="45.5865949" lon="9.4494111"><ele>176.0</ele><time>2026-04-12T07:24:35.001Z</time></trkpt><trkpt lat="45.5866781" lon="9.4494094"><ele>176.0</ele><time>2026-04-12T07:24:38.001Z</time></trkpt><trkpt lat="45.5867658" lon="9.4494034"><ele>176.0</ele><time>2026-04-12T07:24:41.002Z</time></trkpt><trkpt lat="45.5868495" lon="9.4494121"><ele>176.0</ele><time>2026-04-12T07:24:45.002Z</time></trkpt><trkpt lat="45.586924" lon="9.449407"><ele>176.0</ele><time>2026-04-12T07:24:48.001Z</time></trkpt><trkpt lat="45.5869954" lon="9.449428"><ele>176.0</ele><time>2026-04-12T07:24:51.001Z</time></trkpt><trkpt lat="45.587069" lon="9.4494608"><ele>175.66666666666666</ele><time>2026-04-12T07:24:54.002Z</time></trkpt><trkpt lat="45.587147" lon="9.4494852"><ele>175.33333333333331</ele><time>2026-04-12T07:24:57.002Z</time></trkpt><trkpt lat="45.5872372" lon="9.4495003"><ele>175.0</ele><time>2026-04-12T07:25:00.002Z</time></trkpt><trkpt lat="45.587324" lon="9.4495114"><ele>174.66666666666666</ele><time>2026-04-12T07:25:03.002Z</time></trkpt><trkpt lat="45.587415" lon="9.4495191"><ele>174.33333333333334</ele><time>2026-04-12T07:25:06.002Z</time></trkpt><trkpt lat="45.5874903" lon="9.4495019"><ele>174.0</ele><time>2026-04-12T07:25:09.001Z</time></trkpt><trkpt lat="45.5875253" lon="9.4493856"><ele>174.0</ele><time>2026-04-12T07:25:12.001Z</time></trkpt><trkpt lat="45.5875274" lon="9.4492556"><ele>174.0</ele><time>2026-04-12T07:25:15.002Z</time></trkpt><trkpt lat="45.5874871" lon="9.4491474"><ele>174.0</ele><time>2026-04-12T07:25:18.002Z</time></trkpt><trkpt lat="45.5874305" lon="9.4490828"><ele>174.0</ele><time>2026-04-12T07:25:20.001Z</time></trkpt><trkpt lat="45.587376" lon="9.4490055"><ele>174.0</ele><time>2026-04-12T07:25:22.002Z</time></trkpt><trkpt lat="45.5873147" lon="9.4489207"><ele>174.0</ele><time>2026-04-12T07:25:24.002Z</time></trkpt><trkpt lat="45.5872462" lon="9.4488319"><ele>174.0</ele><time>2026-04-12T07:25:26.002Z</time></trkpt><trkpt lat="45.5871832" lon="9.44873"><ele>174.0</ele><time>2026-04-12T07:25:28.002Z</time></trkpt><trkpt lat="45.5871131" lon="9.4486299"><ele>174.0</ele><time>2026-04-12T07:25:30.001Z</time></trkpt><trkpt lat="45.5870465" lon="9.4485346"><ele>174.0</ele><time>2026-04-12T07:25:32.002Z</time></trkpt><trkpt lat="45.5869819" lon="9.4484349"><ele>174.0</ele><time>2026-04-12T07:25:34.002Z</time></trkpt><trkpt lat="45.5869121" lon="9.4483359"><ele>174.0</ele><time>2026-04-12T07:25:36.002Z</time></trkpt><trkpt lat="45.5868478" lon="9.4482418"><ele>174.0</ele><time>2026-04-12T07:25:38.001Z</time></trkpt><trkpt lat="45.5867748" lon="9.4481531"><ele>174.0</ele><time>2026-04-12T07:25:40.001Z</time></trkpt><trkpt lat="45.5867041" lon="9.4480545"><ele>174.0</ele><time>2026-04-12T07:25:42.002Z</time></trkpt><trkpt lat="45.5866417" lon="9.4479495"><ele>174.0</ele><time>2026-04-12T07:25:44.002Z</time></trkpt><trkpt lat="45.5865764" lon="9.4478603"><ele>174.16666666666666</ele><time>2026-04-12T07:25:46.002Z</time></trkpt><trkpt lat="45.5865082" lon="9.4477673"><ele>174.33333333333334</ele><time>2026-04-12T07:25:48.002Z</time></trkpt><trkpt lat="45.5864379" lon="9.4476693"><ele>174.5</ele><time>2026-04-12T07:25:50.001Z</time></trkpt><trkpt lat="45.5863726" lon="9.4475772"><ele>174.66666666666669</ele><time>2026-04-12T07:25:52.002Z</time></trkpt><trkpt lat="45.5863051" lon="9.4475003"><ele>174.83333333333334</ele><time>2026-04-12T07:25:54.002Z</time></trkpt><trkpt lat="45.5862921" lon="9.4474055"><ele>175.0</ele><time>2026-04-12T07:25:57.001Z</time></trkpt><trkpt lat="45.5863422" lon="9.447328"><ele>175.0</ele><time>2026-04-12T07:26:00.002Z</time></trkpt><trkpt lat="45.5864046" lon="9.447292"><ele>175.0</ele><time>2026-04-12T07:26:02.001Z</time></trkpt><trkpt lat="45.5864736" lon="9.4472943"><ele>175.0</ele><time>2026-04-12T07:26:05.001Z</time></trkpt><trkpt lat="45.5865561" lon="9.447287"><ele>175.0</ele><time>2026-04-12T07:26:08.001Z</time></trkpt><trkpt lat="45.5866439" lon="9.4472572"><ele>175.0</ele><time>2026-04-12T07:26:11.002Z</time></trkpt><trkpt lat="45.5867148" lon="9.4472076"><ele>175.0</ele><time>2026-04-12T07:26:14.001Z</time></trkpt><trkpt lat="45.586799" lon="9.4471445"><ele>175.6</ele><time>2026-04-12T07:26:17.002Z</time></trkpt><trkpt lat="45.5868912" lon="9.4470684"><ele>176.2</ele><time>2026-04-12T07:26:19.002Z</time></trkpt><trkpt lat="45.5869819" lon="9.4469627"><ele>176.8</ele><time>2026-04-12T07:26:21.002Z</time></trkpt><trkpt lat="45.5870659" lon="9.4469113"><ele>177.4</ele><time>2026-04-12T07:26:23.001Z</time></trkpt><trkpt lat="45.5871402" lon="9.4468517"><ele>178.0</ele><time>2026-04-12T07:26:25.001Z</time></trkpt><trkpt lat="45.5872129" lon="9.4467743"><ele>177.99999999999997</ele><time>2026-04-12T07:26:28.002Z</time></trkpt><trkpt lat="45.5872865" lon="9.4467423"><ele>178.0</ele><time>2026-04-12T07:26:31.001Z</time></trkpt><trkpt lat="45.5873519" lon="9.4467361"><ele>178.0</ele><time>2026-04-12T07:26:33.002Z</time></trkpt><trkpt lat="45.5874261" lon="9.4467263"><ele>178.0</ele><time>2026-04-12T07:26:36.001Z</time></trkpt><trkpt lat="45.5874906" lon="9.4467319"><ele>178.0</ele><time>2026-04-12T07:26:38.002Z</time></trkpt><trkpt lat="45.5875527" lon="9.4467721"><ele>177.99999999999997</ele><time>2026-04-12T07:26:40.001Z</time></trkpt><trkpt lat="45.5876183" lon="9.4468059"><ele>178.0</ele><time>2026-04-12T07:26:42.002Z</time></trkpt><trkpt lat="45.587713" lon="9.4468348"><ele>177.99999999999997</ele><time>2026-04-12T07:26:45.002Z</time></trkpt><trkpt lat="45.5877784" lon="9.4468494"><ele>178.0</ele><time>2026-04-12T07:26:47.001Z</time></trkpt><trkpt lat="45.5878525" lon="9.4468398"><ele>178.0</ele><time>2026-04-12T07:26:49.002Z</time></trkpt><trkpt lat="45.5879182" lon="9.4468441"><ele>178.0</ele><time>2026-04-12T07:26:51.001Z</time></trkpt><trkpt lat="45.587989" lon="9.4468396"><ele>178.0</ele><time>2026-04-12T07:26:53.002Z</time></trkpt><trkpt lat="45.5880691" lon="9.4468101"><ele>177.99999999999997</ele><time>2026-04-12T07:26:57.001Z</time></trkpt><trkpt lat="45.5881455" lon="9.4468083"><ele>178.0</ele><time>2026-04-12T07:27:00.002Z</time></trkpt><trkpt lat="45.5882097" lon="9.4467966"><ele>177.57142857142856</ele><time>2026-04-12T07:27:03.001Z</time></trkpt><trkpt lat="45.5882583" lon="9.446739"><ele>177.14285714285714</ele><time>2026-04-12T07:27:08.001Z</time></trkpt><trkpt lat="45.5882405" lon="9.4466461"><ele>176.71428571428572</ele><time>2026-04-12T07:27:19.001Z</time></trkpt><trkpt lat="45.5882047" lon="9.4465628"><ele>176.28571428571428</ele><time>2026-04-12T07:27:25.002Z</time></trkpt><trkpt lat="45.5881855" lon="9.4464745"><ele>175.85714285714286</ele><time>2026-04-12T07:27:30.002Z</time></trkpt><trkpt lat="45.5882514" lon="9.4464566"><ele>175.42857142857142</ele><time>2026-04-12T07:27:36.002Z</time></trkpt><trkpt lat="45.5883173" lon="9.4464103"><ele>175.0</ele><time>2026-04-12T07:27:43.002Z</time></trkpt><trkpt lat="45.5883733" lon="9.4463507"><ele>175.0</ele><time>2026-04-12T07:27:46.002Z</time></trkpt><trkpt lat="45.5884425" lon="9.4463027"><ele>175.0</ele><time>2026-04-12T07:27:50.002Z</time></trkpt><trkpt lat="45.5885038" lon="9.4462747"><ele>175.0</ele><time>2026-04-12T07:27:53.001Z</time></trkpt><trkpt lat="45.5885718" lon="9.4462559"><ele>175.0</ele><time>2026-04-12T07:27:56.001Z</time></trkpt><trkpt lat="45.5886485" lon="9.4462174"><ele>175.0</ele><time>2026-04-12T07:28:00.002Z</time></trkpt><trkpt lat="45.588683" lon="9.4461406"><ele>175.0</ele><time>2026-04-12T07:28:03.002Z</time></trkpt><trkpt lat="45.5886719" lon="9.4460466"><ele>175.0</ele><time>2026-04-12T07:28:06.002Z</time></trkpt><trkpt lat="45.5886455" lon="9.4459392"><ele>175.42857142857142</ele><time>2026-04-12T07:28:10.002Z</time></trkpt><trkpt lat="45.5886221" lon="9.4458334"><ele>175.85714285714286</ele><time>2026-04-12T07:28:14.002Z</time></trkpt><trkpt lat="45.5886077" lon="9.4457418"><ele>176.28571428571428</ele><time>2026-04-12T07:28:17.002Z</time></trkpt><trkpt lat="45.5886024" lon="9.4456418"><ele>176.71428571428572</ele><time>2026-04-12T07:28:20.002Z</time></trkpt><trkpt lat="45.5886341" lon="9.4455614"><ele>177.14285714285714</ele><time>2026-04-12T07:28:23.002Z</time></trkpt><trkpt lat="45.5887026" lon="9.4455207"><ele>177.57142857142856</ele><time>2026-04-12T07:28:26.002Z</time></trkpt><trkpt lat="45.5887785" lon="9.4454829"><ele>178.0</ele><time>2026-04-12T07:28:29.002Z</time></trkpt><trkpt lat="45.5888494" lon="9.44544"><ele>178.33333333333334</ele><time>2026-04-12T07:28:32.001Z</time></trkpt><trkpt lat="45.5889234" lon="9.4454002"><ele>178.66666666666669</ele><time>2026-04-12T07:28:35.001Z</time></trkpt><trkpt lat="45.5889954" lon="9.4453632"><ele>179.0</ele><time>2026-04-12T07:28:38.002Z</time></trkpt><trkpt lat="45.5890682" lon="9.4453275"><ele>179.33333333333334</ele><time>2026-04-12T07:28:41.002Z</time></trkpt><trkpt lat="45.589144" lon="9.4452832"><ele>179.66666666666666</ele><time>2026-04-12T07:28:44.002Z</time></trkpt><trkpt lat="45.58922" lon="9.4452465"><ele>180.0</ele><time>2026-04-12T07:28:47.002Z</time></trkpt><trkpt lat="45.5892955" lon="9.4452121"><ele>180.0</ele><time>2026-04-12T07:28:50.002Z</time></trkpt><trkpt lat="45.5893727" lon="9.4451783"><ele>180.0</ele><time>2026-04-12T07:28:53.001Z</time></trkpt><trkpt lat="45.5894503" lon="9.4451449"><ele>180.0</ele><time>2026-04-12T07:28:56.002Z</time></trkpt><trkpt lat="45.5895277" lon="9.4451041"><ele>180.0</ele><time>2026-04-12T07:28:59.002Z</time></trkpt><trkpt lat="45.5896072" lon="9.4450751"><ele>180.0</ele><time>2026-04-12T07:29:02.002Z</time></trkpt><trkpt lat="45.5896947" lon="9.4450357"><ele>180.0</ele><time>2026-04-12T07:29:05.001Z</time></trkpt><trkpt lat="45.5897852" lon="9.4449914"><ele>180.33333333333334</ele><time>2026-04-12T07:29:08.001Z</time></trkpt><trkpt lat="45.5898454" lon="9.4449623"><ele>180.66666666666666</ele><time>2026-04-12T07:29:10.002Z</time></trkpt><trkpt lat="45.5899345" lon="9.4449222"><ele>181.0</ele><time>2026-04-12T07:29:13.002Z</time></trkpt><trkpt lat="45.5900223" lon="9.4448794"><ele>181.33333333333331</ele><time>2026-04-12T07:29:16.002Z</time></trkpt><trkpt lat="45.5901034" lon="9.4448355"><ele>181.66666666666666</ele><time>2026-04-12T07:29:19.002Z</time></trkpt><trkpt lat="45.5901846" lon="9.44479"><ele>182.0</ele><time>2026-04-12T07:29:22.002Z</time></trkpt><trkpt lat="45.5902404" lon="9.4447288"><ele>182.0</ele><time>2026-04-12T07:29:24.001Z</time></trkpt><trkpt lat="45.590298" lon="9.4446793"><ele>182.0</ele><time>2026-04-12T07:29:26.002Z</time></trkpt><trkpt lat="45.5903657" lon="9.4446764"><ele>182.0</ele><time>2026-04-12T07:29:28.002Z</time></trkpt><trkpt lat="45.5904563" lon="9.4447061"><ele>182.0</ele><time>2026-04-12T07:29:31.002Z</time></trkpt><trkpt lat="45.5904994" lon="9.4448103"><ele>182.0</ele><time>2026-04-12T07:29:34.002Z</time></trkpt><trkpt lat="45.590516" lon="9.4449114"><ele>182.0</ele><time>2026-04-12T07:29:36.001Z</time></trkpt><trkpt lat="45.5905425" lon="9.4450195"><ele>181.66666666666666</ele><time>2026-04-12T07:29:38.002Z</time></trkpt><trkpt lat="45.5906443" lon="9.4451064"><ele>181.33333333333331</ele><time>2026-04-12T07:29:40.002Z</time></trkpt><trkpt lat="45.5906958" lon="9.4451586"><ele>181.0</ele><time>2026-04-12T07:29:41.002Z</time></trkpt><trkpt lat="45.5907548" lon="9.4451952"><ele>180.66666666666666</ele><time>2026-04-12T07:29:42.002Z</time></trkpt><trkpt lat="45.5908196" lon="9.4451836"><ele>180.33333333333334</ele><time>2026-04-12T07:29:43.002Z</time></trkpt><trkpt lat="45.5908859" lon="9.4451478"><ele>180.0</ele><time>2026-04-12T07:29:44.001Z</time></trkpt><trkpt lat="45.590953" lon="9.4451341"><ele>180.0</ele><time>2026-04-12T07:29:45.001Z</time></trkpt><trkpt lat="45.5910184" lon="9.4451377"><ele>180.0</ele><time>2026-04-12T07:29:46.002Z</time></trkpt><trkpt lat="45.5910886" lon="9.4451011"><ele>180.0</ele><time>2026-04-12T07:29:47.002Z</time></trkpt><trkpt lat="45.5911862" lon="9.4450052"><ele>180.0</ele><time>2026-04-12T07:29:49.002Z</time></trkpt><trkpt lat="45.591299" lon="9.44492"><ele>180.0</ele><time>2026-04-12T07:29:51.002Z</time></trkpt><trkpt lat="45.5913593" lon="9.4448783"><ele>179.6</ele><time>2026-04-12T07:29:52.002Z</time></trkpt><trkpt lat="45.5914587" lon="9.4447792"><ele>179.2</ele><time>2026-04-12T07:29:54.002Z</time></trkpt><trkpt lat="45.591522" lon="9.4446463"><ele>178.8</ele><time>2026-04-12T07:29:56.001Z</time></trkpt><trkpt lat="45.5915758" lon="9.444516"><ele>178.4</ele><time>2026-04-12T07:29:58.001Z</time></trkpt><trkpt lat="45.5916537" lon="9.4444148"><ele>178.0</ele><time>2026-04-12T07:30:00.002Z</time></trkpt><trkpt lat="45.5917008" lon="9.4443102"><ele>178.0</ele><time>2026-04-12T07:30:02.001Z</time></trkpt><trkpt lat="45.5916714" lon="9.4441977"><ele>178.0</ele><time>2026-04-12T07:30:04.001Z</time></trkpt><trkpt lat="45.5917043" lon="9.444102"><ele>178.0</ele><time>2026-04-12T07:30:06.001Z</time></trkpt><trkpt lat="45.5917515" lon="9.4440109"><ele>178.0</ele><time>2026-04-12T07:30:08.002Z</time></trkpt><trkpt lat="45.5917971" lon="9.4439162"><ele>178.0</ele><time>2026-04-12T07:30:10.002Z</time></trkpt><trkpt lat="45.5918407" lon="9.4438179"><ele>178.0</ele><time>2026-04-12T07:30:12.002Z</time></trkpt><trkpt lat="45.5918758" lon="9.4437258"><ele>178.0</ele><time>2026-04-12T07:30:14.002Z</time></trkpt><trkpt lat="45.5919214" lon="9.4436593"><ele>178.0</ele><time>2026-04-12T07:30:16.002Z</time></trkpt><trkpt lat="45.5919983" lon="9.4435927"><ele>178.0</ele><time>2026-04-12T07:30:19.001Z</time></trkpt><trkpt lat="45.5920651" lon="9.4435394"><ele>178.0</ele><time>2026-04-12T07:30:21.002Z</time></trkpt><trkpt lat="45.5921389" lon="9.4434865"><ele>178.0</ele><time>2026-04-12T07:30:23.001Z</time></trkpt><trkpt lat="45.5922016" lon="9.4434353"><ele>178.0</ele><time>2026-04-12T07:30:25.001Z</time></trkpt><trkpt lat="45.5922759" lon="9.4433838"><ele>178.0</ele><time>2026-04-12T07:30:27.001Z</time></trkpt><trkpt lat="45.5923453" lon="9.4433296"><ele>178.0</ele><time>2026-04-12T07:30:29.002Z</time></trkpt><trkpt lat="45.5924184" lon="9.4432831"><ele>178.0</ele><time>2026-04-12T07:30:31.002Z</time></trkpt><trkpt lat="45.5924898" lon="9.4432337"><ele>178.0</ele><time>2026-04-12T07:30:33.002Z</time></trkpt><trkpt lat="45.5925773" lon="9.4432021"><ele>178.0</ele><time>2026-04-12T07:30:35.002Z</time></trkpt><trkpt lat="45.5926578" lon="9.443187"><ele>178.0</ele><time>2026-04-12T07:30:37.002Z</time></trkpt><trkpt lat="45.5927289" lon="9.4431606"><ele>177.99999999999997</ele><time>2026-04-12T07:30:39.002Z</time></trkpt><trkpt lat="45.5927955" lon="9.4431237"><ele>178.0</ele><time>2026-04-12T07:30:41.001Z</time></trkpt><trkpt lat="45.5928617" lon="9.4430982"><ele>178.0</ele><time>2026-04-12T07:30:43.001Z</time></trkpt><trkpt lat="45.5929322" lon="9.4430685"><ele>178.0</ele><time>2026-04-12T07:30:45.001Z</time></trkpt><trkpt lat="45.5930136" lon="9.4430448"><ele>178.0</ele><time>2026-04-12T07:30:47.002Z</time></trkpt><trkpt lat="45.5930886" lon="9.4430347"><ele>177.99999999999997</ele><time>2026-04-12T07:30:49.001Z</time></trkpt><trkpt lat="45.5931612" lon="9.4430295"><ele>178.0</ele><time>2026-04-12T07:30:51.002Z</time></trkpt><trkpt lat="45.5932392" lon="9.4429871"><ele>179.33333333333334</ele><time>2026-04-12T07:30:53.002Z</time></trkpt><trkpt lat="45.5933031" lon="9.4429116"><ele>180.66666666666669</ele><time>2026-04-12T07:30:55.002Z</time></trkpt><trkpt lat="45.5933587" lon="9.4428268"><ele>182.0</ele><time>2026-04-12T07:30:57.002Z</time></trkpt><trkpt lat="45.5934215" lon="9.4427523"><ele>183.33333333333334</ele><time>2026-04-12T07:30:59.002Z</time></trkpt><trkpt lat="45.5934857" lon="9.4426931"><ele>184.66666666666666</ele><time>2026-04-12T07:31:01.002Z</time></trkpt><trkpt lat="45.5935564" lon="9.442622"><ele>186.0</ele><time>2026-04-12T07:31:03.002Z</time></trkpt><trkpt lat="45.5936338" lon="9.4425604"><ele>185.71428571428572</ele><time>2026-04-12T07:31:05.002Z</time></trkpt><trkpt lat="45.5937118" lon="9.442529"><ele>185.42857142857144</ele><time>2026-04-12T07:31:07.001Z</time></trkpt><trkpt lat="45.5937864" lon="9.4424897"><ele>185.14285714285717</ele><time>2026-04-12T07:31:09.002Z</time></trkpt><trkpt lat="45.5938581" lon="9.4424673"><ele>184.85714285714286</ele><time>2026-04-12T07:31:11.002Z</time></trkpt><trkpt lat="45.5939213" lon="9.4424262"><ele>184.57142857142856</ele><time>2026-04-12T07:31:14.001Z</time></trkpt><trkpt lat="45.5939665" lon="9.4423627"><ele>184.2857142857143</ele><time>2026-04-12T07:31:45.002Z</time></trkpt><trkpt lat="45.5940334" lon="9.442312"><ele>184.0</ele><time>2026-04-12T07:31:49.002Z</time></trkpt><trkpt lat="45.5940861" lon="9.442237"><ele>184.0</ele><time>2026-04-12T07:31:52.001Z</time></trkpt><trkpt lat="45.5941356" lon="9.4421537"><ele>184.0</ele><time>2026-04-12T07:31:56.002Z</time></trkpt><trkpt lat="45.5942108" lon="9.4420883"><ele>184.0</ele><time>2026-04-12T07:31:59.002Z</time></trkpt><trkpt lat="45.5942701" lon="9.4420183"><ele>184.0</ele><time>2026-04-12T07:32:01.002Z</time></trkpt><trkpt lat="45.5943279" lon="9.4419432"><ele>184.0</ele><time>2026-04-12T07:32:03.001Z</time></trkpt><trkpt lat="45.5943846" lon="9.4418664"><ele>184.0</ele><time>2026-04-12T07:32:05.001Z</time></trkpt><trkpt lat="45.594459" lon="9.4418153"><ele>184.85714285714286</ele><time>2026-04-12T07:32:07.002Z</time></trkpt><trkpt lat="45.59453" lon="9.4418123"><ele>185.7142857142857</ele><time>2026-04-12T07:32:09.002Z</time></trkpt><trkpt lat="45.5946079" lon="9.441824"><ele>186.57142857142856</ele><time>2026-04-12T07:32:11.002Z</time></trkpt><trkpt lat="45.5946874" lon="9.4418129"><ele>187.42857142857144</ele><time>2026-04-12T07:32:13.002Z</time></trkpt><trkpt lat="45.5947528" lon="9.4417938"><ele>188.28571428571428</ele><time>2026-04-12T07:32:15.002Z</time></trkpt><trkpt lat="45.5948081" lon="9.4417508"><ele>189.14285714285714</ele><time>2026-04-12T07:32:17.002Z</time></trkpt><trkpt lat="45.5948777" lon="9.4417119"><ele>190.0</ele><time>2026-04-12T07:32:19.002Z</time></trkpt><trkpt lat="45.594942" lon="9.441678"><ele>190.0</ele><time>2026-04-12T07:32:21.001Z</time></trkpt><trkpt lat="45.5950116" lon="9.4415925"><ele>190.0</ele><time>2026-04-12T07:32:24.001Z</time></trkpt><trkpt lat="45.5950669" lon="9.4414911"><ele>190.0</ele><time>2026-04-12T07:32:27.002Z</time></trkpt><trkpt lat="45.5951295" lon="9.4414295"><ele>190.0</ele><time>2026-04-12T07:32:30.001Z</time></trkpt><trkpt lat="45.5951879" lon="9.4413457"><ele>190.0</ele><time>2026-04-12T07:32:33.002Z</time></trkpt><trkpt lat="45.5952326" lon="9.4412493"><ele>190.0</ele><time>2026-04-12T07:32:36.002Z</time></trkpt><trkpt lat="45.595289" lon="9.4411847"><ele>190.71428571428572</ele><time>2026-04-12T07:32:39.001Z</time></trkpt><trkpt lat="45.5953531" lon="9.4411318"><ele>191.42857142857144</ele><time>2026-04-12T07:32:42.002Z</time></trkpt><trkpt lat="45.5954166" lon="9.4410986"><ele>192.14285714285714</ele><time>2026-04-12T07:32:45.002Z</time></trkpt><trkpt lat="45.5954839" lon="9.4410605"><ele>192.85714285714286</ele><time>2026-04-12T07:32:48.001Z</time></trkpt><trkpt lat="45.595542" lon="9.4409978"><ele>193.57142857142856</ele><time>2026-04-12T07:32:51.001Z</time></trkpt><trkpt lat="45.5956037" lon="9.4409386"><ele>194.28571428571428</ele><time>2026-04-12T07:32:54.002Z</time></trkpt><trkpt lat="45.5956653" lon="9.4408788"><ele>195.0</ele><time>2026-04-12T07:32:57.002Z</time></trkpt><trkpt lat="45.5957365" lon="9.4408258"><ele>195.0</ele><time>2026-04-12T07:33:00.002Z</time></trkpt><trkpt lat="45.5958182" lon="9.4407819"><ele>195.0</ele><time>2026-04-12T07:33:03.001Z</time></trkpt><trkpt lat="45.5958987" lon="9.4407523"><ele>195.0</ele><time>2026-04-12T07:33:06.002Z</time></trkpt><trkpt lat="45.5959851" lon="9.4407221"><ele>195.0</ele><time>2026-04-12T07:33:09.002Z</time></trkpt><trkpt lat="45.5960486" lon="9.4406844"><ele>195.0</ele><time>2026-04-12T07:33:11.002Z</time></trkpt><trkpt lat="45.5961124" lon="9.4406458"><ele>195.0</ele><time>2026-04-12T07:33:13.002Z</time></trkpt><trkpt lat="45.5961714" lon="9.4405889"><ele>194.57142857142856</ele><time>2026-04-12T07:33:15.002Z</time></trkpt><trkpt lat="45.5962246" lon="9.4405368"><ele>194.14285714285714</ele><time>2026-04-12T07:33:17.001Z</time></trkpt><trkpt lat="45.5962896" lon="9.4404979"><ele>193.71428571428572</ele><time>2026-04-12T07:33:19.002Z</time></trkpt><trkpt lat="45.5963528" lon="9.4404653"><ele>193.28571428571428</ele><time>2026-04-12T07:33:21.002Z</time></trkpt><trkpt lat="45.5964121" lon="9.4404209"><ele>192.85714285714286</ele><time>2026-04-12T07:33:23.002Z</time></trkpt><trkpt lat="45.5964751" lon="9.4403759"><ele>192.42857142857142</ele><time>2026-04-12T07:33:25.001Z</time></trkpt><trkpt lat="45.5965433" lon="9.4403487"><ele>192.0</ele><time>2026-04-12T07:33:27.001Z</time></trkpt><trkpt lat="45.5966114" lon="9.4403554"><ele>191.99999999999997</ele><time>2026-04-12T07:33:29.002Z</time></trkpt><trkpt lat="45.5966764" lon="9.4403704"><ele>192.0</ele><time>2026-04-12T07:33:31.001Z</time></trkpt><trkpt lat="45.5967511" lon="9.4403872"><ele>192.0</ele><time>2026-04-12T07:33:33.002Z</time></trkpt><trkpt lat="45.5968106" lon="9.4404375"><ele>192.0</ele><time>2026-04-12T07:33:35.001Z</time></trkpt><trkpt lat="45.5968714" lon="9.4404746"><ele>192.0</ele><time>2026-04-12T07:33:37.001Z</time></trkpt><trkpt lat="45.5969388" lon="9.4404753"><ele>191.99999999999997</ele><time>2026-04-12T07:33:39.002Z</time></trkpt><trkpt lat="45.5970258" lon="9.4404297"><ele>192.0</ele><time>2026-04-12T07:33:42.002Z</time></trkpt><trkpt lat="45.5970827" lon="9.4403905"><ele>191.83333333333334</ele><time>2026-04-12T07:33:44.001Z</time></trkpt><trkpt lat="45.5971748" lon="9.4403546"><ele>191.66666666666666</ele><time>2026-04-12T07:33:47.002Z</time></trkpt><trkpt lat="45.5972623" lon="9.4403135"><ele>191.5</ele><time>2026-04-12T07:33:50.002Z</time></trkpt><trkpt lat="45.5973608" lon="9.4402874"><ele>191.33333333333331</ele><time>2026-04-12T07:33:53.002Z</time></trkpt><trkpt lat="45.5974301" lon="9.4402623"><ele>191.16666666666666</ele><time>2026-04-12T07:33:55.002Z</time></trkpt><trkpt lat="45.597497" lon="9.4402283"><ele>191.0</ele><time>2026-04-12T07:33:57.002Z</time></trkpt><trkpt lat="45.5975585" lon="9.4401963"><ele>191.0</ele><time>2026-04-12T07:33:59.001Z</time></trkpt><trkpt lat="45.597621" lon="9.440162"><ele>191.0</ele><time>2026-04-12T07:34:01.002Z</time></trkpt><trkpt lat="45.5976894" lon="9.4401345"><ele>191.0</ele><time>2026-04-12T07:34:03.002Z</time></trkpt><trkpt lat="45.5977585" lon="9.4401109"><ele>191.0</ele><time>2026-04-12T07:34:05.001Z</time></trkpt><trkpt lat="45.5978239" lon="9.4400858"><ele>191.0</ele><time>2026-04-12T07:34:07.001Z</time></trkpt><trkpt lat="45.5978923" lon="9.440063"><ele>191.0</ele><time>2026-04-12T07:34:09.001Z</time></trkpt><trkpt lat="45.5979563" lon="9.4400404"><ele>191.0</ele><time>2026-04-12T07:34:11.002Z</time></trkpt><trkpt lat="45.5980179" lon="9.440006"><ele>191.83333333333331</ele><time>2026-04-12T07:34:13.001Z</time></trkpt><trkpt lat="45.59808" lon="9.4399818"><ele>192.66666666666666</ele><time>2026-04-12T07:34:15.002Z</time></trkpt><trkpt lat="45.5981654" lon="9.4399454"><ele>193.5</ele><time>2026-04-12T07:34:18.002Z</time></trkpt><trkpt lat="45.5982594" lon="9.4399288"><ele>194.33333333333331</ele><time>2026-04-12T07:34:21.002Z</time></trkpt><trkpt lat="45.598327" lon="9.4399159"><ele>195.16666666666666</ele><time>2026-04-12T07:34:23.002Z</time></trkpt><trkpt lat="45.5983897" lon="9.4398789"><ele>196.0</ele><time>2026-04-12T07:34:25.001Z</time></trkpt><trkpt lat="45.5984527" lon="9.4398527"><ele>195.99999999999997</ele><time>2026-04-12T07:34:27.001Z</time></trkpt><trkpt lat="45.5985379" lon="9.4398199"><ele>196.0</ele><time>2026-04-12T07:34:30.001Z</time></trkpt><trkpt lat="45.5986186" lon="9.4397722"><ele>196.0</ele><time>2026-04-12T07:34:33.002Z</time></trkpt><trkpt lat="45.5987006" lon="9.4397483"><ele>196.0</ele><time>2026-04-12T07:34:36.001Z</time></trkpt><trkpt lat="45.5987469" lon="9.4396796"><ele>195.99999999999997</ele><time>2026-04-12T07:34:40.001Z</time></trkpt><trkpt lat="45.5987306" lon="9.4395755"><ele>196.0</ele><time>2026-04-12T07:34:43.001Z</time></trkpt><trkpt lat="45.5987296" lon="9.439459"><ele>195.33333333333331</ele><time>2026-04-12T07:34:46.002Z</time></trkpt><trkpt lat="45.5987229" lon="9.4393518"><ele>194.66666666666666</ele><time>2026-04-12T07:34:49.001Z</time></trkpt><trkpt lat="45.5987239" lon="9.4392406"><ele>194.0</ele><time>2026-04-12T07:34:52.001Z</time></trkpt><trkpt lat="45.5987288" lon="9.4391248"><ele>193.33333333333331</ele><time>2026-04-12T07:34:55.001Z</time></trkpt><trkpt lat="45.5987271" lon="9.4390072"><ele>192.66666666666666</ele><time>2026-04-12T07:34:58.002Z</time></trkpt><trkpt lat="45.5987277" lon="9.4388913"><ele>192.0</ele><time>2026-04-12T07:35:01.002Z</time></trkpt><trkpt lat="45.5987338" lon="9.4387803"><ele>191.66666666666666</ele><time>2026-04-12T07:35:04.001Z</time></trkpt><trkpt lat="45.5987311" lon="9.4386734"><ele>191.33333333333334</ele><time>2026-04-12T07:35:07.001Z</time></trkpt><trkpt lat="45.5987294" lon="9.4385533"><ele>191.0</ele><time>2026-04-12T07:35:10.001Z</time></trkpt><trkpt lat="45.5987258" lon="9.4384302"><ele>190.66666666666669</ele><time>2026-04-12T07:35:13.002Z</time></trkpt><trkpt lat="45.5987235" lon="9.4383057"><ele>190.33333333333334</ele><time>2026-04-12T07:35:16.002Z</time></trkpt><trkpt lat="45.5987219" lon="9.4381794"><ele>190.0</ele><time>2026-04-12T07:35:19.001Z</time></trkpt><trkpt lat="45.5987211" lon="9.4380767"><ele>190.0</ele><time>2026-04-12T07:35:22.002Z</time></trkpt><trkpt lat="45.598718" lon="9.437974"><ele>190.0</ele><time>2026-04-12T07:35:27.001Z</time></trkpt><trkpt lat="45.5987709" lon="9.4378964"><ele>190.0</ele><time>2026-04-12T07:35:33.002Z</time></trkpt><trkpt lat="45.5988021" lon="9.4378133"><ele>190.0</ele><time>2026-04-12T07:35:36.001Z</time></trkpt><trkpt lat="45.5988729" lon="9.437788"><ele>190.0</ele><time>2026-04-12T07:35:39.001Z</time></trkpt><trkpt lat="45.598947" lon="9.4377815"><ele>190.0</ele><time>2026-04-12T07:35:42.002Z</time></trkpt><trkpt lat="45.599039" lon="9.4377681"><ele>190.0</ele><time>2026-04-12T07:35:45.002Z</time></trkpt><trkpt lat="45.5991047" lon="9.437756"><ele>190.0</ele><time>2026-04-12T07:35:47.001Z</time></trkpt><trkpt lat="45.5991984" lon="9.4377427"><ele>190.0</ele><time>2026-04-12T07:35:50.002Z</time></trkpt><trkpt lat="45.5992645" lon="9.4377349"><ele>190.0</ele><time>2026-04-12T07:35:52.001Z</time></trkpt><trkpt lat="45.5993296" lon="9.437727"><ele>190.0</ele><time>2026-04-12T07:35:54.002Z</time></trkpt><trkpt lat="45.5993952" lon="9.4377146"><ele>190.0</ele><time>2026-04-12T07:35:56.002Z</time></trkpt><trkpt lat="45.5994641" lon="9.4377037"><ele>190.0</ele><time>2026-04-12T07:35:58.002Z</time></trkpt><trkpt lat="45.5995268" lon="9.437694"><ele>190.14285714285714</ele><time>2026-04-12T07:36:00.002Z</time></trkpt><trkpt lat="45.5995918" lon="9.4376835"><ele>190.28571428571428</ele><time>2026-04-12T07:36:02.002Z</time></trkpt><trkpt lat="45.5996591" lon="9.4376775"><ele>190.42857142857144</ele><time>2026-04-12T07:36:04.001Z</time></trkpt><trkpt lat="45.5997247" lon="9.4376708"><ele>190.57142857142856</ele><time>2026-04-12T07:36:06.001Z</time></trkpt><trkpt lat="45.5997962" lon="9.4376688"><ele>190.7142857142857</ele><time>2026-04-12T07:36:08.002Z</time></trkpt><trkpt lat="45.599867" lon="9.4376641"><ele>190.85714285714286</ele><time>2026-04-12T07:36:10.002Z</time></trkpt><trkpt lat="45.5999355" lon="9.4376598"><ele>191.0</ele><time>2026-04-12T07:36:12.002Z</time></trkpt><trkpt lat="45.6000062" lon="9.4376588"><ele>191.0</ele><time>2026-04-12T07:36:14.002Z</time></trkpt><trkpt lat="45.6000784" lon="9.4376525"><ele>191.0</ele><time>2026-04-12T07:36:16.001Z</time></trkpt><trkpt lat="45.6001453" lon="9.4376431"><ele>191.0</ele><time>2026-04-12T07:36:18.002Z</time></trkpt><trkpt lat="45.6002132" lon="9.4376327"><ele>191.0</ele><time>2026-04-12T07:36:20.002Z</time></trkpt><trkpt lat="45.600286" lon="9.4376269"><ele>191.0</ele><time>2026-04-12T07:36:22.002Z</time></trkpt><trkpt lat="45.6003529" lon="9.4376232"><ele>191.0</ele><time>2026-04-12T07:36:24.001Z</time></trkpt><trkpt lat="45.6004205" lon="9.4376225"><ele>191.0</ele><time>2026-04-12T07:36:26.002Z</time></trkpt><trkpt lat="45.6004988" lon="9.4376225"><ele>191.16666666666666</ele><time>2026-04-12T07:36:28.001Z</time></trkpt><trkpt lat="45.6005832" lon="9.4376272"><ele>191.33333333333331</ele><time>2026-04-12T07:36:30.002Z</time></trkpt><trkpt lat="45.6006686" lon="9.4376274"><ele>191.5</ele><time>2026-04-12T07:36:32.001Z</time></trkpt><trkpt lat="45.6007537" lon="9.4376386"><ele>191.66666666666666</ele><time>2026-04-12T07:36:34.002Z</time></trkpt><trkpt lat="45.6008383" lon="9.4376511"><ele>191.83333333333334</ele><time>2026-04-12T07:36:36.001Z</time></trkpt><trkpt lat="45.6009222" lon="9.4376559"><ele>192.0</ele><time>2026-04-12T07:36:38.002Z</time></trkpt><trkpt lat="45.601007" lon="9.4376652"><ele>192.0</ele><time>2026-04-12T07:36:40.002Z</time></trkpt><trkpt lat="45.6010899" lon="9.4376714"><ele>192.0</ele><time>2026-04-12T07:36:42.001Z</time></trkpt><trkpt lat="45.6011723" lon="9.437679"><ele>192.0</ele><time>2026-04-12T07:36:44.001Z</time></trkpt><trkpt lat="45.6012565" lon="9.4376919"><ele>192.0</ele><time>2026-04-12T07:36:46.001Z</time></trkpt><trkpt lat="45.6013413" lon="9.4377056"><ele>192.0</ele><time>2026-04-12T07:36:48.002Z</time></trkpt><trkpt lat="45.6014266" lon="9.4377166"><ele>192.0</ele><time>2026-04-12T07:36:50.002Z</time></trkpt><trkpt lat="45.601509" lon="9.4377287"><ele>192.16666666666666</ele><time>2026-04-12T07:36:52.001Z</time></trkpt><trkpt lat="45.6015877" lon="9.437743"><ele>192.33333333333331</ele><time>2026-04-12T07:36:54.001Z</time></trkpt><trkpt lat="45.6016617" lon="9.4377642"><ele>192.5</ele><time>2026-04-12T07:36:56.002Z</time></trkpt><trkpt lat="45.6017355" lon="9.4377685"><ele>192.66666666666666</ele><time>2026-04-12T07:36:58.001Z</time></trkpt><trkpt lat="45.601809" lon="9.437765"><ele>192.83333333333331</ele><time>2026-04-12T07:37:00.002Z</time></trkpt><trkpt lat="45.601887" lon="9.4377606"><ele>193.0</ele><time>2026-04-12T07:37:02.001Z</time></trkpt><trkpt lat="45.6019563" lon="9.4377762"><ele>193.00000000000003</ele><time>2026-04-12T07:37:04.001Z</time></trkpt><trkpt lat="45.6020295" lon="9.4377808"><ele>193.0</ele><time>2026-04-12T07:37:06.002Z</time></trkpt><trkpt lat="45.6021007" lon="9.4377833"><ele>193.0</ele><time>2026-04-12T07:37:08.001Z</time></trkpt><trkpt lat="45.6021744" lon="9.4377904"><ele>193.0</ele><time>2026-04-12T07:37:10.001Z</time></trkpt><trkpt lat="45.6022502" lon="9.4378011"><ele>193.0</ele><time>2026-04-12T07:37:12.002Z</time></trkpt><trkpt lat="45.602322" lon="9.4378143"><ele>193.00000000000003</ele><time>2026-04-12T07:37:14.002Z</time></trkpt><trkpt lat="45.6023949" lon="9.4378228"><ele>193.0</ele><time>2026-04-12T07:37:16.002Z</time></trkpt><trkpt lat="45.6024645" lon="9.4378278"><ele>193.00000000000003</ele><time>2026-04-12T07:37:18.001Z</time></trkpt><trkpt lat="45.6025375" lon="9.4378319"><ele>193.0</ele><time>2026-04-12T07:37:20.001Z</time></trkpt><trkpt lat="45.6026089" lon="9.4378452"><ele>193.0</ele><time>2026-04-12T07:37:22.001Z</time></trkpt><trkpt lat="45.6026829" lon="9.4378542"><ele>193.0</ele><time>2026-04-12T07:37:24.001Z</time></trkpt><trkpt lat="45.6027567" lon="9.4378621"><ele>193.0</ele><time>2026-04-12T07:37:26.001Z</time></trkpt><trkpt lat="45.6028296" lon="9.4378748"><ele>193.00000000000003</ele><time>2026-04-12T07:37:28.002Z</time></trkpt><trkpt lat="45.6029036" lon="9.4378808"><ele>193.0</ele><time>2026-04-12T07:37:30.001Z</time></trkpt><trkpt lat="45.6029815" lon="9.437887"><ele>193.16666666666666</ele><time>2026-04-12T07:37:32.001Z</time></trkpt><trkpt lat="45.6030553" lon="9.4378868"><ele>193.33333333333331</ele><time>2026-04-12T07:37:34.002Z</time></trkpt><trkpt lat="45.6031293" lon="9.4378884"><ele>193.5</ele><time>2026-04-12T07:37:36.002Z</time></trkpt><trkpt lat="45.6032031" lon="9.4378946"><ele>193.66666666666669</ele><time>2026-04-12T07:37:38.002Z</time></trkpt><trkpt lat="45.6032787" lon="9.4379013"><ele>193.83333333333334</ele><time>2026-04-12T07:37:40.001Z</time></trkpt><trkpt lat="45.6033555" lon="9.4379141"><ele>194.0</ele><time>2026-04-12T07:37:42.002Z</time></trkpt><trkpt lat="45.6034328" lon="9.4379256"><ele>194.00000000000003</ele><time>2026-04-12T07:37:44.002Z</time></trkpt><trkpt lat="45.6035102" lon="9.437937"><ele>194.0</ele><time>2026-04-12T07:37:46.002Z</time></trkpt><trkpt lat="45.6035865" lon="9.4379429"><ele>194.0</ele><time>2026-04-12T07:37:48.001Z</time></trkpt><trkpt lat="45.603662" lon="9.4379498"><ele>194.0</ele><time>2026-04-12T07:37:50.002Z</time></trkpt><trkpt lat="45.6037363" lon="9.4379651"><ele>194.00000000000003</ele><time>2026-04-12T07:37:52.001Z</time></trkpt><trkpt lat="45.6038121" lon="9.437983"><ele>194.0</ele><time>2026-04-12T07:37:54.002Z</time></trkpt><trkpt lat="45.6038887" lon="9.4380024"><ele>193.83333333333334</ele><time>2026-04-12T07:37:56.002Z</time></trkpt><trkpt lat="45.6039661" lon="9.4380239"><ele>193.66666666666669</ele><time>2026-04-12T07:37:58.001Z</time></trkpt><trkpt lat="45.6040453" lon="9.4380397"><ele>193.5</ele><time>2026-04-12T07:38:00.002Z</time></trkpt><trkpt lat="45.6041231" lon="9.4380601"><ele>193.33333333333331</ele><time>2026-04-12T07:38:02.002Z</time></trkpt><trkpt lat="45.604201" lon="9.4380881"><ele>193.16666666666666</ele><time>2026-04-12T07:38:04.001Z</time></trkpt><trkpt lat="45.60428" lon="9.4381202"><ele>193.0</ele><time>2026-04-12T07:38:06.002Z</time></trkpt><trkpt lat="45.6043589" lon="9.4381469"><ele>192.99999999999997</ele><time>2026-04-12T07:38:08.001Z</time></trkpt><trkpt lat="45.6044385" lon="9.4381763"><ele>193.0</ele><time>2026-04-12T07:38:10.001Z</time></trkpt><trkpt lat="45.6045172" lon="9.4382065"><ele>193.0</ele><time>2026-04-12T07:38:12.002Z</time></trkpt><trkpt lat="45.604596" lon="9.4382313"><ele>193.0</ele><time>2026-04-12T07:38:14.002Z</time></trkpt><trkpt lat="45.6046763" lon="9.4382618"><ele>192.99999999999997</ele><time>2026-04-12T07:38:16.002Z</time></trkpt><trkpt lat="45.6047593" lon="9.438285"><ele>193.0</ele><time>2026-04-12T07:38:18.001Z</time></trkpt><trkpt lat="45.6048385" lon="9.4383136"><ele>193.16666666666666</ele><time>2026-04-12T07:38:20.002Z</time></trkpt><trkpt lat="45.6049183" lon="9.4383421"><ele>193.33333333333331</ele><time>2026-04-12T07:38:22.001Z</time></trkpt><trkpt lat="45.6050012" lon="9.4383679"><ele>193.5</ele><time>2026-04-12T07:38:24.002Z</time></trkpt><trkpt lat="45.6050824" lon="9.4383968"><ele>193.66666666666669</ele><time>2026-04-12T07:38:26.002Z</time></trkpt><trkpt lat="45.6051598" lon="9.4384278"><ele>193.83333333333334</ele><time>2026-04-12T07:38:28.002Z</time></trkpt><trkpt lat="45.6052364" lon="9.4384524"><ele>194.0</ele><time>2026-04-12T07:38:30.001Z</time></trkpt><trkpt lat="45.605308" lon="9.4384755"><ele>194.00000000000003</ele><time>2026-04-12T07:38:32.001Z</time></trkpt><trkpt lat="45.605376" lon="9.4384977"><ele>194.0</ele><time>2026-04-12T07:38:34.001Z</time></trkpt><trkpt lat="45.6054441" lon="9.4385171"><ele>194.0</ele><time>2026-04-12T07:38:36.001Z</time></trkpt><trkpt lat="45.6055074" lon="9.4385147"><ele>194.0</ele><time>2026-04-12T07:38:38.002Z</time></trkpt><trkpt lat="45.6055664" lon="9.438413"><ele>194.00000000000003</ele><time>2026-04-12T07:38:41.001Z</time></trkpt><trkpt lat="45.6055841" lon="9.4383063"><ele>194.0</ele><time>2026-04-12T07:38:43.002Z</time></trkpt><trkpt lat="45.6056024" lon="9.438196"><ele>194.00000000000003</ele><time>2026-04-12T07:38:45.002Z</time></trkpt><trkpt lat="45.6056231" lon="9.4380865"><ele>194.0</ele><time>2026-04-12T07:38:47.001Z</time></trkpt><trkpt lat="45.6056472" lon="9.4379751"><ele>194.0</ele><time>2026-04-12T07:38:49.002Z</time></trkpt><trkpt lat="45.6056692" lon="9.4378593"><ele>194.0</ele><time>2026-04-12T07:38:51.002Z</time></trkpt><trkpt lat="45.6056907" lon="9.4377446"><ele>194.00000000000003</ele><time>2026-04-12T07:38:53.002Z</time></trkpt><trkpt lat="45.6057111" lon="9.4376269"><ele>194.0</ele><time>2026-04-12T07:38:55.002Z</time></trkpt><trkpt lat="45.6057322" lon="9.4375105"><ele>194.16666666666669</ele><time>2026-04-12T07:38:57.002Z</time></trkpt><trkpt lat="45.6057549" lon="9.4374001"><ele>194.33333333333334</ele><time>2026-04-12T07:38:59.002Z</time></trkpt><trkpt lat="45.6057801" lon="9.4372979"><ele>194.5</ele><time>2026-04-12T07:39:01.001Z</time></trkpt><trkpt lat="45.6058211" lon="9.4372119"><ele>194.66666666666669</ele><time>2026-04-12T07:39:03.002Z</time></trkpt><trkpt lat="45.6058895" lon="9.4371584"><ele>194.83333333333334</ele><time>2026-04-12T07:39:05.002Z</time></trkpt><trkpt lat="45.6059678" lon="9.437131"><ele>195.0</ele><time>2026-04-12T07:39:07.002Z</time></trkpt><trkpt lat="45.6060423" lon="9.4371067"><ele>195.0</ele><time>2026-04-12T07:39:09.002Z</time></trkpt><trkpt lat="45.606113" lon="9.4370562"><ele>195.0</ele><time>2026-04-12T07:39:11.002Z</time></trkpt><trkpt lat="45.6061708" lon="9.4369825"><ele>195.0</ele><time>2026-04-12T07:39:13.002Z</time></trkpt><trkpt lat="45.6062102" lon="9.4368871"><ele>195.0</ele><time>2026-04-12T07:39:15.002Z</time></trkpt><trkpt lat="45.6062466" lon="9.4367923"><ele>195.0</ele><time>2026-04-12T07:39:17.001Z</time></trkpt><trkpt lat="45.6062841" lon="9.4366931"><ele>195.0</ele><time>2026-04-12T07:39:19.001Z</time></trkpt><trkpt lat="45.6063231" lon="9.4366021"><ele>195.0</ele><time>2026-04-12T07:39:21.001Z</time></trkpt><trkpt lat="45.6063655" lon="9.4365028"><ele>195.0</ele><time>2026-04-12T07:39:23.001Z</time></trkpt><trkpt lat="45.6064055" lon="9.436406"><ele>195.0</ele><time>2026-04-12T07:39:25.002Z</time></trkpt><trkpt lat="45.6064326" lon="9.4363157"><ele>195.0</ele><time>2026-04-12T07:39:27.002Z</time></trkpt><trkpt lat="45.6064594" lon="9.436231"><ele>195.0</ele><time>2026-04-12T07:39:29.001Z</time></trkpt><trkpt lat="45.6065035" lon="9.4361163"><ele>195.0</ele><time>2026-04-12T07:39:32.002Z</time></trkpt><trkpt lat="45.6065355" lon="9.4360292"><ele>195.0</ele><time>2026-04-12T07:39:34.002Z</time></trkpt><trkpt lat="45.6065819" lon="9.4359419"><ele>195.0</ele><time>2026-04-12T07:39:36.001Z</time></trkpt><trkpt lat="45.6066169" lon="9.4358497"><ele>195.0</ele><time>2026-04-12T07:39:38.002Z</time></trkpt><trkpt lat="45.6066496" lon="9.4357568"><ele>195.0</ele><time>2026-04-12T07:39:40.002Z</time></trkpt><trkpt lat="45.606681" lon="9.4356619"><ele>195.0</ele><time>2026-04-12T07:39:42.001Z</time></trkpt><trkpt lat="45.6067123" lon="9.4355652"><ele>195.0</ele><time>2026-04-12T07:39:44.002Z</time></trkpt><trkpt lat="45.6067391" lon="9.4354674"><ele>195.0</ele><time>2026-04-12T07:39:46.002Z</time></trkpt><trkpt lat="45.6067779" lon="9.4353766"><ele>195.5</ele><time>2026-04-12T07:39:48.002Z</time></trkpt><trkpt lat="45.6068162" lon="9.4352829"><ele>196.0</ele><time>2026-04-12T07:39:50.001Z</time></trkpt><trkpt lat="45.6068574" lon="9.4351873"><ele>196.5</ele><time>2026-04-12T07:39:52.002Z</time></trkpt><trkpt lat="45.6069026" lon="9.4350928"><ele>197.0</ele><time>2026-04-12T07:39:54.002Z</time></trkpt><trkpt lat="45.6069563" lon="9.4349995"><ele>197.5</ele><time>2026-04-12T07:39:56.001Z</time></trkpt><trkpt lat="45.6070224" lon="9.4349164"><ele>198.0</ele><time>2026-04-12T07:39:58.002Z</time></trkpt><trkpt lat="45.6070762" lon="9.4348201"><ele>198.0</ele><time>2026-04-12T07:40:00.002Z</time></trkpt><trkpt lat="45.6071299" lon="9.4347441"><ele>198.0</ele><time>2026-04-12T07:40:02.002Z</time></trkpt><trkpt lat="45.6071881" lon="9.4346665"><ele>198.0</ele><time>2026-04-12T07:40:04.002Z</time></trkpt><trkpt lat="45.6072525" lon="9.4345712"><ele>198.0</ele><time>2026-04-12T07:40:06.002Z</time></trkpt><trkpt lat="45.6073192" lon="9.4344825"><ele>198.0</ele><time>2026-04-12T07:40:08.002Z</time></trkpt><trkpt lat="45.6073895" lon="9.4344027"><ele>198.0</ele><time>2026-04-12T07:40:10.002Z</time></trkpt><trkpt lat="45.6074631" lon="9.4343302"><ele>197.8</ele><time>2026-04-12T07:40:12.002Z</time></trkpt><trkpt lat="45.6075417" lon="9.4342638"><ele>197.60000000000002</ele><time>2026-04-12T07:40:14.001Z</time></trkpt><trkpt lat="45.6076225" lon="9.4341879"><ele>197.39999999999998</ele><time>2026-04-12T07:40:16.002Z</time></trkpt><trkpt lat="45.6077042" lon="9.4341257"><ele>197.2</ele><time>2026-04-12T07:40:18.001Z</time></trkpt><trkpt lat="45.607771" lon="9.4340536"><ele>197.0</ele><time>2026-04-12T07:40:20.002Z</time></trkpt><trkpt lat="45.6078484" lon="9.4339942"><ele>197.00000000000003</ele><time>2026-04-12T07:40:22.001Z</time></trkpt><trkpt lat="45.6079373" lon="9.4339226"><ele>197.0</ele><time>2026-04-12T07:40:24.002Z</time></trkpt><trkpt lat="45.6080061" lon="9.4338591"><ele>197.0</ele><time>2026-04-12T07:40:26.002Z</time></trkpt><trkpt lat="45.6080708" lon="9.4337836"><ele>197.0</ele><time>2026-04-12T07:40:28.002Z</time></trkpt><trkpt lat="45.6081204" lon="9.4336807"><ele>197.00000000000003</ele><time>2026-04-12T07:40:30.001Z</time></trkpt><trkpt lat="45.6081617" lon="9.4335861"><ele>197.0</ele><time>2026-04-12T07:40:32.002Z</time></trkpt><trkpt lat="45.6081911" lon="9.433487"><ele>197.00000000000003</ele><time>2026-04-12T07:40:34.001Z</time></trkpt><trkpt lat="45.6082076" lon="9.4333745"><ele>197.0</ele><time>2026-04-12T07:40:36.001Z</time></trkpt><trkpt lat="45.6082271" lon="9.4332739"><ele>197.0</ele><time>2026-04-12T07:40:38.002Z</time></trkpt><trkpt lat="45.6082456" lon="9.4331675"><ele>197.0</ele><time>2026-04-12T07:40:40.002Z</time></trkpt><trkpt lat="45.6082726" lon="9.4330572"><ele>197.00000000000003</ele><time>2026-04-12T07:40:42.001Z</time></trkpt><trkpt lat="45.6082981" lon="9.4329353"><ele>197.0</ele><time>2026-04-12T07:40:44.002Z</time></trkpt><trkpt lat="45.6083327" lon="9.4328191"><ele>197.00000000000003</ele><time>2026-04-12T07:40:46.002Z</time></trkpt><trkpt lat="45.6083502" lon="9.4327013"><ele>197.0</ele><time>2026-04-12T07:40:48.001Z</time></trkpt><trkpt lat="45.6083688" lon="9.432582"><ele>197.0</ele><time>2026-04-12T07:40:50.002Z</time></trkpt><trkpt lat="45.6083847" lon="9.4324552"><ele>197.0</ele><time>2026-04-12T07:40:52.002Z</time></trkpt><trkpt lat="45.6084014" lon="9.4323283"><ele>197.00000000000003</ele><time>2026-04-12T07:40:54.001Z</time></trkpt><trkpt lat="45.6084352" lon="9.4322097"><ele>197.0</ele><time>2026-04-12T07:40:56.002Z</time></trkpt><trkpt lat="45.6085003" lon="9.4321346"><ele>197.16666666666669</ele><time>2026-04-12T07:40:58.002Z</time></trkpt><trkpt lat="45.6085724" lon="9.4321158"><ele>197.33333333333334</ele><time>2026-04-12T07:41:00.001Z</time></trkpt><trkpt lat="45.6086477" lon="9.4321342"><ele>197.5</ele><time>2026-04-12T07:41:02.001Z</time></trkpt><trkpt lat="45.6087243" lon="9.4321649"><ele>197.66666666666669</ele><time>2026-04-12T07:41:04.002Z</time></trkpt><trkpt lat="45.6088042" lon="9.4321992"><ele>197.83333333333334</ele><time>2026-04-12T07:41:06.002Z</time></trkpt><trkpt lat="45.6088815" lon="9.4322373"><ele>198.0</ele><time>2026-04-12T07:41:08.002Z</time></trkpt><trkpt lat="45.6089584" lon="9.4322775"><ele>197.66666666666666</ele><time>2026-04-12T07:41:10.002Z</time></trkpt><trkpt lat="45.6090487" lon="9.4323261"><ele>197.33333333333331</ele><time>2026-04-12T07:41:12.002Z</time></trkpt><trkpt lat="45.609125" lon="9.4323709"><ele>197.0</ele><time>2026-04-12T07:41:14.002Z</time></trkpt><trkpt lat="45.6092032" lon="9.4324036"><ele>196.66666666666666</ele><time>2026-04-12T07:41:16.002Z</time></trkpt><trkpt lat="45.6092783" lon="9.4324386"><ele>196.33333333333331</ele><time>2026-04-12T07:41:18.001Z</time></trkpt><trkpt lat="45.6093564" lon="9.4324744"><ele>196.0</ele><time>2026-04-12T07:41:20.002Z</time></trkpt><trkpt lat="45.6094324" lon="9.4325138"><ele>195.99999999999997</ele><time>2026-04-12T07:41:22.002Z</time></trkpt><trkpt lat="45.6095125" lon="9.432558"><ele>196.0</ele><time>2026-04-12T07:41:24.002Z</time></trkpt><trkpt lat="45.6095939" lon="9.4325839"><ele>196.0</ele><time>2026-04-12T07:41:26.002Z</time></trkpt><trkpt lat="45.609677" lon="9.432618"><ele>196.0</ele><time>2026-04-12T07:41:28.001Z</time></trkpt><trkpt lat="45.6097671" lon="9.432643"><ele>195.99999999999997</ele><time>2026-04-12T07:41:30.002Z</time></trkpt><trkpt lat="45.609857" lon="9.4326583"><ele>196.0</ele><time>2026-04-12T07:41:32.002Z</time></trkpt><trkpt lat="45.6099395" lon="9.4326662"><ele>196.0</ele><time>2026-04-12T07:41:34.002Z</time></trkpt><trkpt lat="45.6100095" lon="9.4326324"><ele>196.0</ele><time>2026-04-12T07:41:36.001Z</time></trkpt><trkpt lat="45.6100744" lon="9.4325851"><ele>196.0</ele><time>2026-04-12T07:41:38.002Z</time></trkpt><trkpt lat="45.6101331" lon="9.4325363"><ele>196.0</ele><time>2026-04-12T07:41:40.002Z</time></trkpt><trkpt lat="45.6101855" lon="9.4324784"><ele>196.0</ele><time>2026-04-12T07:41:42.002Z</time></trkpt><trkpt lat="45.6102373" lon="9.4324075"><ele>196.0</ele><time>2026-04-12T07:41:44.002Z</time></trkpt><trkpt lat="45.6102964" lon="9.4323343"><ele>196.0</ele><time>2026-04-12T07:41:46.002Z</time></trkpt><trkpt lat="45.6103606" lon="9.43228"><ele>196.16666666666666</ele><time>2026-04-12T07:41:48.002Z</time></trkpt><trkpt lat="45.6104248" lon="9.4322262"><ele>196.33333333333331</ele><time>2026-04-12T07:41:50.002Z</time></trkpt><trkpt lat="45.6104817" lon="9.4321486"><ele>196.5</ele><time>2026-04-12T07:41:52.002Z</time></trkpt><trkpt lat="45.6105397" lon="9.4320749"><ele>196.66666666666669</ele><time>2026-04-12T07:41:54.002Z</time></trkpt><trkpt lat="45.6106015" lon="9.4320088"><ele>196.83333333333334</ele><time>2026-04-12T07:41:56.002Z</time></trkpt><trkpt lat="45.6106704" lon="9.4319535"><ele>197.0</ele><time>2026-04-12T07:41:58.002Z</time></trkpt><trkpt lat="45.6107464" lon="9.4319245"><ele>197.33333333333334</ele><time>2026-04-12T07:42:00.002Z</time></trkpt><trkpt lat="45.6108276" lon="9.431918"><ele>197.66666666666669</ele><time>2026-04-12T07:42:02.002Z</time></trkpt><trkpt lat="45.6109095" lon="9.4319378"><ele>198.0</ele><time>2026-04-12T07:42:04.001Z</time></trkpt><trkpt lat="45.6109865" lon="9.4319639"><ele>198.33333333333331</ele><time>2026-04-12T07:42:06.002Z</time></trkpt><trkpt lat="45.6110638" lon="9.4319789"><ele>198.66666666666666</ele><time>2026-04-12T07:42:08.001Z</time></trkpt><trkpt lat="45.6111395" lon="9.4319814"><ele>199.0</ele><time>2026-04-12T07:42:10.002Z</time></trkpt><trkpt lat="45.6112181" lon="9.4319776"><ele>199.49999999999997</ele><time>2026-04-12T07:42:12.002Z</time></trkpt><trkpt lat="45.6112913" lon="9.4319717"><ele>200.0</ele><time>2026-04-12T07:42:14.001Z</time></trkpt><trkpt lat="45.6113685" lon="9.4319668"><ele>200.5</ele><time>2026-04-12T07:42:16.001Z</time></trkpt><trkpt lat="45.6114444" lon="9.4319724"><ele>201.0</ele><time>2026-04-12T07:42:18.001Z</time></trkpt><trkpt lat="45.611521" lon="9.4319717"><ele>201.49999999999997</ele><time>2026-04-12T07:42:20.002Z</time></trkpt><trkpt lat="45.6116174" lon="9.4320033"><ele>202.0</ele><time>2026-04-12T07:42:23.002Z</time></trkpt><trkpt lat="45.6116907" lon="9.4320609"><ele>201.99999999999997</ele><time>2026-04-12T07:42:25.001Z</time></trkpt><trkpt lat="45.6117403" lon="9.4321481"><ele>202.0</ele><time>2026-04-12T07:42:27.002Z</time></trkpt><trkpt lat="45.6117777" lon="9.4322452"><ele>202.0</ele><time>2026-04-12T07:42:29.002Z</time></trkpt><trkpt lat="45.61184" lon="9.4323109"><ele>202.0</ele><time>2026-04-12T07:42:31.002Z</time></trkpt><trkpt lat="45.6119367" lon="9.4323104"><ele>201.99999999999997</ele><time>2026-04-12T07:42:33.002Z</time></trkpt><trkpt lat="45.6120281" lon="9.4323138"><ele>202.0</ele><time>2026-04-12T07:42:35.002Z</time></trkpt><trkpt lat="45.6121182" lon="9.4323226"><ele>202.16666666666666</ele><time>2026-04-12T07:42:37.001Z</time></trkpt><trkpt lat="45.6122032" lon="9.4323253"><ele>202.33333333333331</ele><time>2026-04-12T07:42:39.001Z</time></trkpt><trkpt lat="45.612287" lon="9.4323328"><ele>202.5</ele><time>2026-04-12T07:42:41.002Z</time></trkpt><trkpt lat="45.6123715" lon="9.4323457"><ele>202.66666666666669</ele><time>2026-04-12T07:42:43.001Z</time></trkpt><trkpt lat="45.612453" lon="9.4323626"><ele>202.83333333333334</ele><time>2026-04-12T07:42:45.001Z</time></trkpt><trkpt lat="45.6125319" lon="9.4323703"><ele>203.0</ele><time>2026-04-12T07:42:47.001Z</time></trkpt><trkpt lat="45.612597" lon="9.432376"><ele>203.0</ele><time>2026-04-12T07:42:49.002Z</time></trkpt><trkpt lat="45.612672" lon="9.4323861"><ele>203.0</ele><time>2026-04-12T07:42:52.002Z</time></trkpt><trkpt lat="45.6127352" lon="9.432398"><ele>203.0</ele><time>2026-04-12T07:42:56.001Z</time></trkpt><trkpt lat="45.6128023" lon="9.4324369"><ele>203.0</ele><time>2026-04-12T07:42:59.002Z</time></trkpt><trkpt lat="45.6128947" lon="9.4324722"><ele>203.0</ele><time>2026-04-12T07:43:02.002Z</time></trkpt><trkpt lat="45.6129599" lon="9.4325047"><ele>203.0</ele><time>2026-04-12T07:43:04.002Z</time></trkpt><trkpt lat="45.6130225" lon="9.4325433"><ele>203.0</ele><time>2026-04-12T07:43:06.002Z</time></trkpt><trkpt lat="45.613082" lon="9.4325852"><ele>203.00000000000003</ele><time>2026-04-12T07:43:08.002Z</time></trkpt><trkpt lat="45.6131494" lon="9.4326126"><ele>203.0</ele><time>2026-04-12T07:43:10.002Z</time></trkpt><trkpt lat="45.6132292" lon="9.432636"><ele>203.0</ele><time>2026-04-12T07:43:12.001Z</time></trkpt><trkpt lat="45.6133099" lon="9.4326921"><ele>203.0</ele><time>2026-04-12T07:43:14.002Z</time></trkpt><trkpt lat="45.613394" lon="9.4327479"><ele>203.00000000000003</ele><time>2026-04-12T07:43:16.002Z</time></trkpt><trkpt lat="45.6134769" lon="9.4327902"><ele>203.0</ele><time>2026-04-12T07:43:18.002Z</time></trkpt><trkpt lat="45.613555" lon="9.4328326"><ele>203.00000000000003</ele><time>2026-04-12T07:43:20.002Z</time></trkpt><trkpt lat="45.6136328" lon="9.4328612"><ele>203.0</ele><time>2026-04-12T07:43:22.001Z</time></trkpt><trkpt lat="45.6137122" lon="9.4328817"><ele>203.0</ele><time>2026-04-12T07:43:24.002Z</time></trkpt><trkpt lat="45.6137919" lon="9.4328684"><ele>203.0</ele><time>2026-04-12T07:43:26.001Z</time></trkpt><trkpt lat="45.6138619" lon="9.4328142"><ele>203.00000000000003</ele><time>2026-04-12T07:43:28.002Z</time></trkpt><trkpt lat="45.6139344" lon="9.4327659"><ele>203.0</ele><time>2026-04-12T07:43:30.002Z</time></trkpt><trkpt lat="45.6140154" lon="9.432775"><ele>203.00000000000003</ele><time>2026-04-12T07:43:32.002Z</time></trkpt><trkpt lat="45.6140954" lon="9.4328179"><ele>203.0</ele><time>2026-04-12T07:43:34.002Z</time></trkpt><trkpt lat="45.6141733" lon="9.4328666"><ele>203.0</ele><time>2026-04-12T07:43:36.001Z</time></trkpt><trkpt lat="45.6142524" lon="9.4329075"><ele>203.0</ele><time>2026-04-12T07:43:38.002Z</time></trkpt><trkpt lat="45.6143276" lon="9.4329491"><ele>203.00000000000003</ele><time>2026-04-12T07:43:40.002Z</time></trkpt><trkpt lat="45.6144012" lon="9.4329849"><ele>203.0</ele><time>2026-04-12T07:43:42.002Z</time></trkpt><trkpt lat="45.614473" lon="9.4330233"><ele>203.28571428571428</ele><time>2026-04-12T07:43:44.001Z</time></trkpt><trkpt lat="45.6145435" lon="9.4330447"><ele>203.57142857142856</ele><time>2026-04-12T07:43:46.002Z</time></trkpt><trkpt lat="45.6146127" lon="9.4330654"><ele>203.85714285714286</ele><time>2026-04-12T07:43:48.002Z</time></trkpt><trkpt lat="45.6146808" lon="9.433092"><ele>204.14285714285714</ele><time>2026-04-12T07:43:50.002Z</time></trkpt><trkpt lat="45.6147479" lon="9.4331305"><ele>204.42857142857142</ele><time>2026-04-12T07:43:52.001Z</time></trkpt><trkpt lat="45.6148122" lon="9.4331701"><ele>204.71428571428572</ele><time>2026-04-12T07:43:54.002Z</time></trkpt><trkpt lat="45.614877" lon="9.4332142"><ele>205.0</ele><time>2026-04-12T07:43:56.001Z</time></trkpt><trkpt lat="45.6149444" lon="9.4332448"><ele>205.0</ele><time>2026-04-12T07:43:58.001Z</time></trkpt><trkpt lat="45.6150124" lon="9.4332738"><ele>205.0</ele><time>2026-04-12T07:44:00.002Z</time></trkpt><trkpt lat="45.6150778" lon="9.433306"><ele>205.0</ele><time>2026-04-12T07:44:02.002Z</time></trkpt><trkpt lat="45.6151474" lon="9.4333376"><ele>205.0</ele><time>2026-04-12T07:44:04.001Z</time></trkpt><trkpt lat="45.6152191" lon="9.433365"><ele>205.0</ele><time>2026-04-12T07:44:06.002Z</time></trkpt><trkpt lat="45.6152877" lon="9.4333992"><ele>205.0</ele><time>2026-04-12T07:44:08.002Z</time></trkpt><trkpt lat="45.6153546" lon="9.4334296"><ele>205.0</ele><time>2026-04-12T07:44:10.001Z</time></trkpt><trkpt lat="45.6154211" lon="9.433458"><ele>204.83333333333331</ele><time>2026-04-12T07:44:12.001Z</time></trkpt><trkpt lat="45.6155057" lon="9.433492"><ele>204.66666666666666</ele><time>2026-04-12T07:44:15.001Z</time></trkpt><trkpt lat="45.6155676" lon="9.4335235"><ele>204.5</ele><time>2026-04-12T07:44:18.002Z</time></trkpt><trkpt lat="45.6156242" lon="9.4334399"><ele>204.33333333333331</ele><time>2026-04-12T07:44:22.002Z</time></trkpt><trkpt lat="45.6156172" lon="9.4333347"><ele>204.16666666666666</ele><time>2026-04-12T07:44:24.002Z</time></trkpt><trkpt lat="45.6156047" lon="9.4332116"><ele>204.0</ele><time>2026-04-12T07:44:26.002Z</time></trkpt><trkpt lat="45.6156085" lon="9.4330967"><ele>204.0</ele><time>2026-04-12T07:44:28.002Z</time></trkpt><trkpt lat="45.6156589" lon="9.4330024"><ele>204.0</ele><time>2026-04-12T07:44:30.002Z</time></trkpt><trkpt lat="45.6157221" lon="9.432924"><ele>204.0</ele><time>2026-04-12T07:44:33.002Z</time></trkpt><trkpt lat="45.6158073" lon="9.4327724"><ele>204.0</ele><time>2026-04-12T07:44:36.002Z</time></trkpt><trkpt lat="45.6158615" lon="9.4326874"><ele>204.0</ele><time>2026-04-12T07:44:38.001Z</time></trkpt><trkpt lat="45.6159018" lon="9.432577"><ele>204.0</ele><time>2026-04-12T07:44:41.002Z</time></trkpt><trkpt lat="45.6159253" lon="9.4324752"><ele>204.0</ele><time>2026-04-12T07:44:44.002Z</time></trkpt><trkpt lat="45.6159442" lon="9.4323668"><ele>204.0</ele><time>2026-04-12T07:44:47.002Z</time></trkpt><trkpt lat="45.6159569" lon="9.4322624"><ele>204.0</ele><time>2026-04-12T07:44:50.002Z</time></trkpt><trkpt lat="45.6159718" lon="9.4321495"><ele>204.0</ele><time>2026-04-12T07:44:53.001Z</time></trkpt><trkpt lat="45.6159861" lon="9.4320311"><ele>204.0</ele><time>2026-04-12T07:44:56.002Z</time></trkpt><trkpt lat="45.6160043" lon="9.431899"><ele>204.14285714285714</ele><time>2026-04-12T07:44:59.002Z</time></trkpt><trkpt lat="45.6160185" lon="9.4318098"><ele>204.28571428571428</ele><time>2026-04-12T07:45:01.002Z</time></trkpt><trkpt lat="45.6160296" lon="9.4317171"><ele>204.42857142857144</ele><time>2026-04-12T07:45:03.002Z</time></trkpt><trkpt lat="45.6160427" lon="9.4316216"><ele>204.57142857142856</ele><time>2026-04-12T07:45:05.002Z</time></trkpt><trkpt lat="45.6160554" lon="9.4315221"><ele>204.7142857142857</ele><time>2026-04-12T07:45:07.002Z</time></trkpt><trkpt lat="45.6160747" lon="9.4314254"><ele>204.85714285714286</ele><time>2026-04-12T07:45:09.002Z</time></trkpt><trkpt lat="45.6160899" lon="9.4313232"><ele>205.0</ele><time>2026-04-12T07:45:11.001Z</time></trkpt><trkpt lat="45.6161105" lon="9.4312285"><ele>205.0</ele><time>2026-04-12T07:45:13.001Z</time></trkpt><trkpt lat="45.616137" lon="9.4311408"><ele>205.0</ele><time>2026-04-12T07:45:15.001Z</time></trkpt><trkpt lat="45.6161914" lon="9.4310781"><ele>205.0</ele><time>2026-04-12T07:45:17.001Z</time></trkpt><trkpt lat="45.6162464" lon="9.4310213"><ele>205.0</ele><time>2026-04-12T07:45:19.002Z</time></trkpt><trkpt lat="45.6162273" lon="9.4309201"><ele>205.0</ele><time>2026-04-12T07:45:21.001Z</time></trkpt><trkpt lat="45.6161698" lon="9.4308489"><ele>205.0</ele><time>2026-04-12T07:45:23.002Z</time></trkpt><trkpt lat="45.6161742" lon="9.4307432"><ele>205.0</ele><time>2026-04-12T07:45:25.001Z</time></trkpt><trkpt lat="45.6161896" lon="9.4306379"><ele>204.83333333333331</ele><time>2026-04-12T07:45:27.002Z</time></trkpt><trkpt lat="45.616198" lon="9.4305302"><ele>204.66666666666666</ele><time>2026-04-12T07:45:29.002Z</time></trkpt><trkpt lat="45.6161979" lon="9.4304198"><ele>204.5</ele><time>2026-04-12T07:45:31.002Z</time></trkpt><trkpt lat="45.6161881" lon="9.4303032"><ele>204.33333333333331</ele><time>2026-04-12T07:45:33.002Z</time></trkpt><trkpt lat="45.616198" lon="9.4301793"><ele>204.16666666666666</ele><time>2026-04-12T07:45:35.001Z</time></trkpt><trkpt lat="45.6162139" lon="9.430055"><ele>204.0</ele><time>2026-04-12T07:45:37.001Z</time></trkpt><trkpt lat="45.6162282" lon="9.4299291"><ele>204.0</ele><time>2026-04-12T07:45:39.002Z</time></trkpt><trkpt lat="45.6162443" lon="9.4298043"><ele>204.0</ele><time>2026-04-12T07:45:41.001Z</time></trkpt><trkpt lat="45.6162576" lon="9.4296718"><ele>204.0</ele><time>2026-04-12T07:45:43.002Z</time></trkpt><trkpt lat="45.6162691" lon="9.4295466"><ele>204.0</ele><time>2026-04-12T07:45:45.001Z</time></trkpt><trkpt lat="45.6162804" lon="9.4294274"><ele>204.0</ele><time>2026-04-12T07:45:47.002Z</time></trkpt><trkpt lat="45.6162891" lon="9.429316"><ele>204.0</ele><time>2026-04-12T07:45:49.002Z</time></trkpt><trkpt lat="45.6163071" lon="9.4292165"><ele>204.33333333333334</ele><time>2026-04-12T07:45:51.002Z</time></trkpt><trkpt lat="45.6163215" lon="9.4291039"><ele>204.66666666666669</ele><time>2026-04-12T07:45:53.001Z</time></trkpt><trkpt lat="45.6163393" lon="9.4289862"><ele>205.0</ele><time>2026-04-12T07:45:55.002Z</time></trkpt><trkpt lat="45.6163518" lon="9.4288626"><ele>205.33333333333334</ele><time>2026-04-12T07:45:57.001Z</time></trkpt><trkpt lat="45.6163627" lon="9.4287365"><ele>205.66666666666669</ele><time>2026-04-12T07:45:59.002Z</time></trkpt><trkpt lat="45.6163744" lon="9.4286125"><ele>206.0</ele><time>2026-04-12T07:46:01.002Z</time></trkpt><trkpt lat="45.6163854" lon="9.4284879"><ele>206.0</ele><time>2026-04-12T07:46:03.001Z</time></trkpt><trkpt lat="45.616396" lon="9.4283628"><ele>206.0</ele><time>2026-04-12T07:46:05.001Z</time></trkpt><trkpt lat="45.6164048" lon="9.4282418"><ele>206.0</ele><time>2026-04-12T07:46:07.002Z</time></trkpt><trkpt lat="45.61642" lon="9.4281165"><ele>206.0</ele><time>2026-04-12T07:46:09.001Z</time></trkpt><trkpt lat="45.6164313" lon="9.4279805"><ele>206.0</ele><time>2026-04-12T07:46:11.002Z</time></trkpt><trkpt lat="45.6164503" lon="9.4278437"><ele>206.0</ele><time>2026-04-12T07:46:13.002Z</time></trkpt><trkpt lat="45.6164664" lon="9.4277125"><ele>206.0</ele><time>2026-04-12T07:46:15.001Z</time></trkpt><trkpt lat="45.6164838" lon="9.4275779"><ele>206.0</ele><time>2026-04-12T07:46:17.002Z</time></trkpt><trkpt lat="45.6165006" lon="9.4274438"><ele>206.0</ele><time>2026-04-12T07:46:19.002Z</time></trkpt><trkpt lat="45.616512" lon="9.4273178"><ele>206.0</ele><time>2026-04-12T07:46:21.001Z</time></trkpt><trkpt lat="45.6165256" lon="9.4271989"><ele>205.8</ele><time>2026-04-12T07:46:23.001Z</time></trkpt><trkpt lat="45.6165366" lon="9.4270749"><ele>205.60000000000002</ele><time>2026-04-12T07:46:25.001Z</time></trkpt><trkpt lat="45.6165491" lon="9.4269517"><ele>205.4</ele><time>2026-04-12T07:46:27.002Z</time></trkpt><trkpt lat="45.6165595" lon="9.4268205"><ele>205.2</ele><time>2026-04-12T07:46:29.002Z</time></trkpt><trkpt lat="45.6165727" lon="9.4266869"><ele>205.0</ele><time>2026-04-12T07:46:31.002Z</time></trkpt><trkpt lat="45.6165853" lon="9.4265551"><ele>205.0</ele><time>2026-04-12T07:46:33.002Z</time></trkpt><trkpt lat="45.6165952" lon="9.4264211"><ele>205.0</ele><time>2026-04-12T07:46:35.002Z</time></trkpt><trkpt lat="45.616612" lon="9.4262963"><ele>205.0</ele><time>2026-04-12T07:46:37.002Z</time></trkpt><trkpt lat="45.6166233" lon="9.4261676"><ele>205.0</ele><time>2026-04-12T07:46:39.001Z</time></trkpt><trkpt lat="45.6166395" lon="9.4260426"><ele>205.0</ele><time>2026-04-12T07:46:41.002Z</time></trkpt><trkpt lat="45.6166582" lon="9.4259115"><ele>205.0</ele><time>2026-04-12T07:46:43.002Z</time></trkpt><trkpt lat="45.6166715" lon="9.4257754"><ele>205.0</ele><time>2026-04-12T07:46:45.001Z</time></trkpt><trkpt lat="45.616684" lon="9.4256439"><ele>205.0</ele><time>2026-04-12T07:46:47.002Z</time></trkpt><trkpt lat="45.6167027" lon="9.4255029"><ele>205.0</ele><time>2026-04-12T07:46:49.002Z</time></trkpt><trkpt lat="45.6167169" lon="9.4253677"><ele>205.0</ele><time>2026-04-12T07:46:51.001Z</time></trkpt><trkpt lat="45.6167244" lon="9.4252311"><ele>205.2</ele><time>2026-04-12T07:46:53.001Z</time></trkpt><trkpt lat="45.6167314" lon="9.4250906"><ele>205.4</ele><time>2026-04-12T07:46:55.002Z</time></trkpt><trkpt lat="45.6167465" lon="9.4249553"><ele>205.60000000000002</ele><time>2026-04-12T07:46:57.002Z</time></trkpt><trkpt lat="45.6167608" lon="9.4248242"><ele>205.8</ele><time>2026-04-12T07:46:59.001Z</time></trkpt><trkpt lat="45.616784" lon="9.4246921"><ele>206.0</ele><time>2026-04-12T07:47:01.001Z</time></trkpt><trkpt lat="45.6168111" lon="9.4245593"><ele>206.00000000000003</ele><time>2026-04-12T07:47:03.001Z</time></trkpt><trkpt lat="45.6168285" lon="9.4244254"><ele>206.0</ele><time>2026-04-12T07:47:05.001Z</time></trkpt><trkpt lat="45.6168415" lon="9.4242934"><ele>206.0</ele><time>2026-04-12T07:47:07.002Z</time></trkpt><trkpt lat="45.6168492" lon="9.4241646"><ele>206.0</ele><time>2026-04-12T07:47:09.001Z</time></trkpt><trkpt lat="45.6168612" lon="9.4240407"><ele>206.00000000000003</ele><time>2026-04-12T07:47:11.002Z</time></trkpt><trkpt lat="45.6168824" lon="9.4239268"><ele>206.0</ele><time>2026-04-12T07:47:13.002Z</time></trkpt><trkpt lat="45.6169011" lon="9.4238106"><ele>206.00000000000003</ele><time>2026-04-12T07:47:15.001Z</time></trkpt><trkpt lat="45.616923" lon="9.4236947"><ele>206.0</ele><time>2026-04-12T07:47:17.001Z</time></trkpt><trkpt lat="45.6169388" lon="9.4235823"><ele>206.0</ele><time>2026-04-12T07:47:19.002Z</time></trkpt><trkpt lat="45.616958" lon="9.4234826"><ele>206.0</ele><time>2026-04-12T07:47:23.002Z</time></trkpt><trkpt lat="45.616978" lon="9.4233726"><ele>206.00000000000003</ele><time>2026-04-12T07:47:29.002Z</time></trkpt><trkpt lat="45.6169856" lon="9.4232822"><ele>206.0</ele><time>2026-04-12T07:47:31.001Z</time></trkpt><trkpt lat="45.6169953" lon="9.4231756"><ele>206.00000000000003</ele><time>2026-04-12T07:47:33.001Z</time></trkpt><trkpt lat="45.6169893" lon="9.423064"><ele>206.0</ele><time>2026-04-12T07:47:35.002Z</time></trkpt><trkpt lat="45.6169752" lon="9.4229486"><ele>206.0</ele><time>2026-04-12T07:47:37.001Z</time></trkpt><trkpt lat="45.616974" lon="9.4228286"><ele>206.0</ele><time>2026-04-12T07:47:39.002Z</time></trkpt><trkpt lat="45.6169754" lon="9.4227106"><ele>206.00000000000003</ele><time>2026-04-12T07:47:41.002Z</time></trkpt><trkpt lat="45.6169799" lon="9.422593"><ele>206.0</ele><time>2026-04-12T07:47:43.002Z</time></trkpt><trkpt lat="45.6169802" lon="9.4224754"><ele>206.0</ele><time>2026-04-12T07:47:45.001Z</time></trkpt><trkpt lat="45.6169787" lon="9.4223532"><ele>206.0</ele><time>2026-04-12T07:47:47.001Z</time></trkpt><trkpt lat="45.6169657" lon="9.4222248"><ele>206.0</ele><time>2026-04-12T07:47:49.001Z</time></trkpt><trkpt lat="45.6169643" lon="9.4220912"><ele>206.0</ele><time>2026-04-12T07:47:51.002Z</time></trkpt><trkpt lat="45.6169655" lon="9.4219564"><ele>206.0</ele><time>2026-04-12T07:47:53.001Z</time></trkpt><trkpt lat="45.6169646" lon="9.4218178"><ele>206.0</ele><time>2026-04-12T07:47:55.002Z</time></trkpt><trkpt lat="45.616968" lon="9.4216808"><ele>206.0</ele><time>2026-04-12T07:47:57.002Z</time></trkpt><trkpt lat="45.6169662" lon="9.4215487"><ele>206.0</ele><time>2026-04-12T07:47:59.002Z</time></trkpt><trkpt lat="45.6169574" lon="9.4214258"><ele>206.0</ele><time>2026-04-12T07:48:01.001Z</time></trkpt><trkpt lat="45.6169508" lon="9.421291"><ele>206.0</ele><time>2026-04-12T07:48:03.002Z</time></trkpt><trkpt lat="45.6169521" lon="9.421162"><ele>205.8</ele><time>2026-04-12T07:48:05.002Z</time></trkpt><trkpt lat="45.6169491" lon="9.4210266"><ele>205.60000000000002</ele><time>2026-04-12T07:48:07.002Z</time></trkpt><trkpt lat="45.6169448" lon="9.4208844"><ele>205.4</ele><time>2026-04-12T07:48:09.002Z</time></trkpt><trkpt lat="45.6169423" lon="9.4207477"><ele>205.2</ele><time>2026-04-12T07:48:11.002Z</time></trkpt><trkpt lat="45.6169337" lon="9.4206107"><ele>205.0</ele><time>2026-04-12T07:48:13.001Z</time></trkpt><trkpt lat="45.6169296" lon="9.4204671"><ele>204.99999999999997</ele><time>2026-04-12T07:48:15.001Z</time></trkpt><trkpt lat="45.6169189" lon="9.4203312"><ele>205.0</ele><time>2026-04-12T07:48:17.002Z</time></trkpt><trkpt lat="45.6169078" lon="9.420193"><ele>205.0</ele><time>2026-04-12T07:48:19.002Z</time></trkpt><trkpt lat="45.6169018" lon="9.4200604"><ele>205.0</ele><time>2026-04-12T07:48:21.001Z</time></trkpt><trkpt lat="45.6168971" lon="9.419929"><ele>204.99999999999997</ele><time>2026-04-12T07:48:23.001Z</time></trkpt><trkpt lat="45.6169046" lon="9.4198332"><ele>205.0</ele><time>2026-04-12T07:48:25.002Z</time></trkpt><trkpt lat="45.6168939" lon="9.4197146"><ele>204.99999999999997</ele><time>2026-04-12T07:48:27.002Z</time></trkpt><trkpt lat="45.6168807" lon="9.4195906"><ele>205.0</ele><time>2026-04-12T07:48:29.002Z</time></trkpt><trkpt lat="45.6168815" lon="9.4194689"><ele>205.0</ele><time>2026-04-12T07:48:31.001Z</time></trkpt><trkpt lat="45.6168782" lon="9.419344"><ele>205.0</ele><time>2026-04-12T07:48:33.002Z</time></trkpt><trkpt lat="45.6168766" lon="9.4192119"><ele>204.99999999999997</ele><time>2026-04-12T07:48:35.001Z</time></trkpt><trkpt lat="45.616876" lon="9.4190783"><ele>205.0</ele><time>2026-04-12T07:48:37.001Z</time></trkpt><trkpt lat="45.6168823" lon="9.4189559"><ele>205.0</ele><time>2026-04-12T07:48:39.002Z</time></trkpt><trkpt lat="45.6168823" lon="9.4188404"><ele>205.0</ele><time>2026-04-12T07:48:41.002Z</time></trkpt><trkpt lat="45.6168822" lon="9.4187389"><ele>205.0</ele><time>2026-04-12T07:48:43.002Z</time></trkpt><trkpt lat="45.6168795" lon="9.4186339"><ele>205.0</ele><time>2026-04-12T07:48:46.002Z</time></trkpt><trkpt lat="45.6168811" lon="9.4185413"><ele>205.0</ele><time>2026-04-12T07:48:49.002Z</time></trkpt><trkpt lat="45.616886" lon="9.4184461"><ele>205.0</ele><time>2026-04-12T07:49:09.002Z</time></trkpt><trkpt lat="45.6169006" lon="9.4183331"><ele>205.0</ele><time>2026-04-12T07:49:13.002Z</time></trkpt><trkpt lat="45.6169202" lon="9.4182437"><ele>204.83333333333331</ele><time>2026-04-12T07:49:16.001Z</time></trkpt><trkpt lat="45.6169324" lon="9.4181395"><ele>204.66666666666666</ele><time>2026-04-12T07:49:19.002Z</time></trkpt><trkpt lat="45.6169666" lon="9.418028"><ele>204.5</ele><time>2026-04-12T07:49:23.001Z</time></trkpt><trkpt lat="45.6170409" lon="9.4179659"><ele>204.33333333333331</ele><time>2026-04-12T07:49:26.002Z</time></trkpt><trkpt lat="45.6171067" lon="9.4179411"><ele>204.16666666666666</ele><time>2026-04-12T07:49:28.001Z</time></trkpt><trkpt lat="45.6171747" lon="9.4179271"><ele>204.0</ele><time>2026-04-12T07:49:30.002Z</time></trkpt><trkpt lat="45.6172407" lon="9.4179516"><ele>204.28571428571428</ele><time>2026-04-12T07:49:32.001Z</time></trkpt><trkpt lat="45.6173079" lon="9.4179613"><ele>204.57142857142858</ele><time>2026-04-12T07:49:34.001Z</time></trkpt><trkpt lat="45.6173729" lon="9.4179746"><ele>204.85714285714283</ele><time>2026-04-12T07:49:36.001Z</time></trkpt><trkpt lat="45.6174413" lon="9.4179824"><ele>205.14285714285714</ele><time>2026-04-12T07:49:38.002Z</time></trkpt><trkpt lat="45.6175108" lon="9.4179858"><ele>205.42857142857142</ele><time>2026-04-12T07:49:40.001Z</time></trkpt><trkpt lat="45.6175786" lon="9.4179937"><ele>205.7142857142857</ele><time>2026-04-12T07:49:42.001Z</time></trkpt><trkpt lat="45.6176441" lon="9.4180041"><ele>206.0</ele><time>2026-04-12T07:49:44.001Z</time></trkpt><trkpt lat="45.6177087" lon="9.4180111"><ele>205.99999999999997</ele><time>2026-04-12T07:49:46.002Z</time></trkpt><trkpt lat="45.6177731" lon="9.4180155"><ele>206.0</ele><time>2026-04-12T07:49:48.002Z</time></trkpt><trkpt lat="45.6178435" lon="9.418019"><ele>206.0</ele><time>2026-04-12T07:49:50.001Z</time></trkpt><trkpt lat="45.6179119" lon="9.418028"><ele>206.0</ele><time>2026-04-12T07:49:52.001Z</time></trkpt><trkpt lat="45.6179781" lon="9.4180297"><ele>206.0</ele><time>2026-04-12T07:49:54.001Z</time></trkpt><trkpt lat="45.6180437" lon="9.4180255"><ele>205.99999999999997</ele><time>2026-04-12T07:49:57.002Z</time></trkpt><trkpt lat="45.6180974" lon="9.4180843"><ele>206.0</ele><time>2026-04-12T07:50:01.002Z</time></trkpt><trkpt lat="45.6181451" lon="9.4181544"><ele>206.16666666666669</ele><time>2026-04-12T07:50:05.002Z</time></trkpt><trkpt lat="45.618091" lon="9.4182159"><ele>206.33333333333334</ele><time>2026-04-12T07:50:47.002Z</time></trkpt><trkpt lat="45.618027" lon="9.4182434"><ele>206.5</ele><time>2026-04-12T07:52:10.002Z</time></trkpt><trkpt lat="45.6180308" lon="9.4181524"><ele>206.66666666666669</ele><time>2026-04-12T07:54:10.95Z</time></trkpt><trkpt lat="45.6181536" lon="9.4181425"><ele>206.83333333333334</ele><time>2026-04-12T07:54:43.039Z</time></trkpt><trkpt lat="45.6182178" lon="9.4181441"><ele>207.0</ele><time>2026-04-12T07:55:19.02Z</time></trkpt><trkpt lat="45.6181541" lon="9.4181407"><ele>207.00000000000003</ele><time>2026-04-12T07:57:42.011Z</time></trkpt><trkpt lat="45.618084" lon="9.4182047"><ele>207.0</ele><time>2026-04-12T08:00:38.002Z</time></trkpt><trkpt lat="45.6180288" lon="9.4181491"><ele>207.0</ele><time>2026-04-12T08:02:14.002Z</time></trkpt><trkpt lat="45.6179838" lon="9.4180845"><ele>207.0</ele><time>2026-04-12T08:02:19.002Z</time></trkpt><trkpt lat="45.6179333" lon="9.4180303"><ele>207.0</ele><time>2026-04-12T08:02:23.002Z</time></trkpt><trkpt lat="45.6180127" lon="9.4180563"><ele>207.00000000000003</ele><time>2026-04-12T08:02:28.002Z</time></trkpt><trkpt lat="45.6180887" lon="9.4180671"><ele>207.0</ele><time>2026-04-12T08:02:32.002Z</time></trkpt><trkpt lat="45.618162" lon="9.4180866"><ele>207.00000000000003</ele><time>2026-04-12T08:02:36.002Z</time></trkpt><trkpt lat="45.6182266" lon="9.4181009"><ele>207.0</ele><time>2026-04-12T08:02:39.002Z</time></trkpt><trkpt lat="45.6183111" lon="9.4181043"><ele>207.0</ele><time>2026-04-12T08:02:43.002Z</time></trkpt><trkpt lat="45.6183771" lon="9.4181178"><ele>207.0</ele><time>2026-04-12T08:02:46.002Z</time></trkpt><trkpt lat="45.6184422" lon="9.4181512"><ele>207.0</ele><time>2026-04-12T08:02:49.002Z</time></trkpt><trkpt lat="45.6184894" lon="9.4182113"><ele>207.00000000000003</ele><time>2026-04-12T08:02:52.002Z</time></trkpt><trkpt lat="45.6185598" lon="9.418248"><ele>207.0</ele><time>2026-04-12T08:02:55.001Z</time></trkpt><trkpt lat="45.6186258" lon="9.418285"><ele>207.33333333333334</ele><time>2026-04-12T08:02:58.002Z</time></trkpt><trkpt lat="45.6186826" lon="9.4183302"><ele>207.66666666666669</ele><time>2026-04-12T08:03:01.002Z</time></trkpt><trkpt lat="45.6187482" lon="9.418376"><ele>208.0</ele><time>2026-04-12T08:03:05.002Z</time></trkpt><trkpt lat="45.6188257" lon="9.4184053"><ele>208.33333333333334</ele><time>2026-04-12T08:03:09.001Z</time></trkpt><trkpt lat="45.6188648" lon="9.4183144"><ele>208.66666666666669</ele><time>2026-04-12T08:03:12.002Z</time></trkpt><trkpt lat="45.6188471" lon="9.4181863"><ele>209.0</ele><time>2026-04-12T08:03:15.001Z</time></trkpt><trkpt lat="45.6188506" lon="9.4180642"><ele>209.00000000000003</ele><time>2026-04-12T08:03:18.001Z</time></trkpt><trkpt lat="45.6188522" lon="9.4179564"><ele>209.0</ele><time>2026-04-12T08:03:21.001Z</time></trkpt><trkpt lat="45.6188479" lon="9.4178398"><ele>209.0</ele><time>2026-04-12T08:03:24.002Z</time></trkpt><trkpt lat="45.6188487" lon="9.4177184"><ele>209.0</ele><time>2026-04-12T08:03:27.001Z</time></trkpt><trkpt lat="45.6188476" lon="9.4175938"><ele>209.00000000000003</ele><time>2026-04-12T08:03:30.002Z</time></trkpt><trkpt lat="45.6188467" lon="9.4174701"><ele>209.0</ele><time>2026-04-12T08:03:33.002Z</time></trkpt><trkpt lat="45.6188474" lon="9.4173494"><ele>209.00000000000003</ele><time>2026-04-12T08:03:36.002Z</time></trkpt><trkpt lat="45.6188506" lon="9.4172426"><ele>209.0</ele><time>2026-04-12T08:03:39.002Z</time></trkpt><trkpt lat="45.6188505" lon="9.4171137"><ele>209.0</ele><time>2026-04-12T08:03:42.001Z</time></trkpt><trkpt lat="45.6188474" lon="9.4169892"><ele>209.0</ele><time>2026-04-12T08:03:45.002Z</time></trkpt><trkpt lat="45.6188489" lon="9.4168809"><ele>209.00000000000003</ele><time>2026-04-12T08:03:48.002Z</time></trkpt><trkpt lat="45.6188473" lon="9.4167656"><ele>209.0</ele><time>2026-04-12T08:03:51.002Z</time></trkpt><trkpt lat="45.6188405" lon="9.4166461"><ele>209.16666666666669</ele><time>2026-04-12T08:03:54.001Z</time></trkpt><trkpt lat="45.6188378" lon="9.4165273"><ele>209.33333333333334</ele><time>2026-04-12T08:03:57.002Z</time></trkpt><trkpt lat="45.6188381" lon="9.4164095"><ele>209.5</ele><time>2026-04-12T08:04:00.002Z</time></trkpt><trkpt lat="45.6188366" lon="9.4162862"><ele>209.66666666666669</ele><time>2026-04-12T08:04:03.002Z</time></trkpt><trkpt lat="45.6188428" lon="9.4161548"><ele>209.83333333333334</ele><time>2026-04-12T08:04:06.001Z</time></trkpt><trkpt lat="45.6188407" lon="9.4160314"><ele>210.0</ele><time>2026-04-12T08:04:09.002Z</time></trkpt><trkpt lat="45.6188414" lon="9.4159132"><ele>210.0</ele><time>2026-04-12T08:04:12.001Z</time></trkpt><trkpt lat="45.6188415" lon="9.4157886"><ele>210.0</ele><time>2026-04-12T08:04:15.002Z</time></trkpt><trkpt lat="45.6188338" lon="9.415669"><ele>210.0</ele><time>2026-04-12T08:04:18.002Z</time></trkpt><trkpt lat="45.6188219" lon="9.4155523"><ele>210.0</ele><time>2026-04-12T08:04:21.002Z</time></trkpt><trkpt lat="45.6188264" lon="9.4154439"><ele>210.0</ele><time>2026-04-12T08:04:25.002Z</time></trkpt><trkpt lat="45.6188201" lon="9.415354"><ele>210.0</ele><time>2026-04-12T08:04:36.002Z</time></trkpt><trkpt lat="45.6188224" lon="9.4152453"><ele>209.71428571428572</ele><time>2026-04-12T08:04:42.002Z</time></trkpt><trkpt lat="45.6188116" lon="9.4151479"><ele>209.42857142857144</ele><time>2026-04-12T08:04:46.002Z</time></trkpt><trkpt lat="45.6188217" lon="9.4150305"><ele>209.14285714285714</ele><time>2026-04-12T08:04:50.002Z</time></trkpt><trkpt lat="45.6188372" lon="9.4149374"><ele>208.85714285714286</ele><time>2026-04-12T08:04:53.002Z</time></trkpt><trkpt lat="45.6188377" lon="9.4148323"><ele>208.57142857142858</ele><time>2026-04-12T08:04:56.002Z</time></trkpt><trkpt lat="45.6188235" lon="9.4147356"><ele>208.28571428571428</ele><time>2026-04-12T08:04:59.002Z</time></trkpt><trkpt lat="45.6188448" lon="9.4146509"><ele>208.0</ele><time>2026-04-12T08:05:03.002Z</time></trkpt><trkpt lat="45.6189192" lon="9.4146252"><ele>207.83333333333331</ele><time>2026-04-12T08:05:08.001Z</time></trkpt><trkpt lat="45.6189905" lon="9.4146057"><ele>207.66666666666666</ele><time>2026-04-12T08:05:11.002Z</time></trkpt><trkpt lat="45.6190749" lon="9.4145964"><ele>207.5</ele><time>2026-04-12T08:05:14.002Z</time></trkpt><trkpt lat="45.6191517" lon="9.4145948"><ele>207.33333333333331</ele><time>2026-04-12T08:05:17.002Z</time></trkpt><trkpt lat="45.6192255" lon="9.4145843"><ele>207.16666666666666</ele><time>2026-04-12T08:05:20.002Z</time></trkpt><trkpt lat="45.6193037" lon="9.4145823"><ele>207.0</ele><time>2026-04-12T08:05:23.001Z</time></trkpt><trkpt lat="45.6193812" lon="9.41459"><ele>207.16666666666666</ele><time>2026-04-12T08:05:26.001Z</time></trkpt><trkpt lat="45.619442" lon="9.4146721"><ele>207.33333333333331</ele><time>2026-04-12T08:05:29.002Z</time></trkpt><trkpt lat="45.6194595" lon="9.4147758"><ele>207.5</ele><time>2026-04-12T08:05:32.001Z</time></trkpt><trkpt lat="45.6194475" lon="9.4148841"><ele>207.66666666666666</ele><time>2026-04-12T08:05:35.002Z</time></trkpt><trkpt lat="45.6194517" lon="9.4149992"><ele>207.83333333333331</ele><time>2026-04-12T08:05:38.001Z</time></trkpt><trkpt lat="45.6194582" lon="9.4151175"><ele>208.0</ele><time>2026-04-12T08:05:41.001Z</time></trkpt><trkpt lat="45.6194659" lon="9.415248"><ele>207.99999999999997</ele><time>2026-04-12T08:05:44.002Z</time></trkpt><trkpt lat="45.6194551" lon="9.4153641"><ele>208.0</ele><time>2026-04-12T08:05:47.002Z</time></trkpt><trkpt lat="45.6194507" lon="9.4154765"><ele>208.0</ele><time>2026-04-12T08:05:50.001Z</time></trkpt><trkpt lat="45.6194459" lon="9.4156009"><ele>208.0</ele><time>2026-04-12T08:05:53.002Z</time></trkpt><trkpt lat="45.6194277" lon="9.4157172"><ele>207.99999999999997</ele><time>2026-04-12T08:05:56.002Z</time></trkpt><trkpt lat="45.6193332" lon="9.4157212"><ele>208.0</ele><time>2026-04-12T08:05:59.002Z</time></trkpt><trkpt lat="45.6192667" lon="9.4157011"><ele>208.28571428571428</ele><time>2026-04-12T08:06:01.001Z</time></trkpt><trkpt lat="45.6192003" lon="9.4156895"><ele>208.57142857142858</ele><time>2026-04-12T08:06:03.001Z</time></trkpt><trkpt lat="45.6191328" lon="9.415674"><ele>208.85714285714286</ele><time>2026-04-12T08:06:05.002Z</time></trkpt><trkpt lat="45.6190596" lon="9.415661"><ele>209.14285714285714</ele><time>2026-04-12T08:06:07.001Z</time></trkpt><trkpt lat="45.6189838" lon="9.4156535"><ele>209.42857142857144</ele><time>2026-04-12T08:06:09.002Z</time></trkpt><trkpt lat="45.6189059" lon="9.4156385"><ele>209.71428571428572</ele><time>2026-04-12T08:06:11.002Z</time></trkpt><trkpt lat="45.6188363" lon="9.415651"><ele>210.0</ele><time>2026-04-12T08:06:13.002Z</time></trkpt><trkpt lat="45.6188024" lon="9.4157321"><ele>210.0</ele><time>2026-04-12T08:06:15.002Z</time></trkpt><trkpt lat="45.6188022" lon="9.4158326"><ele>210.0</ele><time>2026-04-12T08:06:17.002Z</time></trkpt><trkpt lat="45.6188089" lon="9.4159286"><ele>210.0</ele><time>2026-04-12T08:06:19.001Z</time></trkpt><trkpt lat="45.6188147" lon="9.416026"><ele>210.0</ele><time>2026-04-12T08:06:21.002Z</time></trkpt><trkpt lat="45.6188278" lon="9.4161247"><ele>210.0</ele><time>2026-04-12T08:06:23.002Z</time></trkpt><trkpt lat="45.6188279" lon="9.4162265"><ele>210.0</ele><time>2026-04-12T08:06:25.001Z</time></trkpt><trkpt lat="45.6188232" lon="9.4163267"><ele>210.0</ele><time>2026-04-12T08:06:27.002Z</time></trkpt><trkpt lat="45.6188335" lon="9.4164627"><ele>209.57142857142858</ele><time>2026-04-12T08:06:30.002Z</time></trkpt><trkpt lat="45.6188356" lon="9.4165571"><ele>209.14285714285714</ele><time>2026-04-12T08:06:32.002Z</time></trkpt><trkpt lat="45.6188293" lon="9.4166509"><ele>208.71428571428572</ele><time>2026-04-12T08:06:34.002Z</time></trkpt><trkpt lat="45.6188161" lon="9.4167443"><ele>208.28571428571428</ele><time>2026-04-12T08:06:36.002Z</time></trkpt><trkpt lat="45.6188167" lon="9.4168371"><ele>207.85714285714286</ele><time>2026-04-12T08:06:38.002Z</time></trkpt><trkpt lat="45.6188214" lon="9.41693"><ele>207.42857142857144</ele><time>2026-04-12T08:06:40.002Z</time></trkpt><trkpt lat="45.6188179" lon="9.4170264"><ele>207.0</ele><time>2026-04-12T08:06:42.002Z</time></trkpt><trkpt lat="45.6188124" lon="9.4171234"><ele>207.2857142857143</ele><time>2026-04-12T08:06:44.001Z</time></trkpt><trkpt lat="45.6188151" lon="9.417215"><ele>207.57142857142858</ele><time>2026-04-12T08:06:46.001Z</time></trkpt><trkpt lat="45.6188139" lon="9.4173065"><ele>207.85714285714286</ele><time>2026-04-12T08:06:48.002Z</time></trkpt><trkpt lat="45.6188143" lon="9.4173968"><ele>208.14285714285717</ele><time>2026-04-12T08:06:50.002Z</time></trkpt><trkpt lat="45.6188212" lon="9.4174894"><ele>208.42857142857142</ele><time>2026-04-12T08:06:52.002Z</time></trkpt><trkpt lat="45.618827" lon="9.4175847"><ele>208.71428571428572</ele><time>2026-04-12T08:06:54.002Z</time></trkpt><trkpt lat="45.6188281" lon="9.4176766"><ele>209.0</ele><time>2026-04-12T08:06:56.002Z</time></trkpt><trkpt lat="45.6188351" lon="9.4177693"><ele>209.0</ele><time>2026-04-12T08:06:58.001Z</time></trkpt><trkpt lat="45.6188326" lon="9.4178609"><ele>209.0</ele><time>2026-04-12T08:07:00.002Z</time></trkpt><trkpt lat="45.6188324" lon="9.4179558"><ele>209.0</ele><time>2026-04-12T08:07:02.002Z</time></trkpt><trkpt lat="45.6188335" lon="9.4180605"><ele>209.0</ele><time>2026-04-12T08:07:04.002Z</time></trkpt><trkpt lat="45.6188373" lon="9.4181664"><ele>209.0</ele><time>2026-04-12T08:07:06.001Z</time></trkpt><trkpt lat="45.6188439" lon="9.4182628"><ele>209.0</ele><time>2026-04-12T08:07:08.002Z</time></trkpt><trkpt lat="45.6187926" lon="9.4183543"><ele>209.0</ele><time>2026-04-12T08:07:11.001Z</time></trkpt><trkpt lat="45.6187277" lon="9.4183345"><ele>209.0</ele><time>2026-04-12T08:07:13.001Z</time></trkpt><trkpt lat="45.6186879" lon="9.4182552"><ele>209.0</ele><time>2026-04-12T08:07:15.001Z</time></trkpt><trkpt lat="45.6186412" lon="9.4181907"><ele>209.0</ele><time>2026-04-12T08:07:17.002Z</time></trkpt><trkpt lat="45.6185808" lon="9.4181465"><ele>209.0</ele><time>2026-04-12T08:07:19.002Z</time></trkpt><trkpt lat="45.6185162" lon="9.4181103"><ele>209.0</ele><time>2026-04-12T08:07:21.001Z</time></trkpt><trkpt lat="45.6184519" lon="9.4180762"><ele>209.0</ele><time>2026-04-12T08:07:23.002Z</time></trkpt><trkpt lat="45.6183658" lon="9.4180526"><ele>209.0</ele><time>2026-04-12T08:07:26.001Z</time></trkpt><trkpt lat="45.618301" lon="9.4180404"><ele>208.71428571428572</ele><time>2026-04-12T08:07:28.002Z</time></trkpt><trkpt lat="45.6182306" lon="9.4180352"><ele>208.42857142857142</ele><time>2026-04-12T08:07:30.001Z</time></trkpt><trkpt lat="45.6181642" lon="9.4180292"><ele>208.14285714285717</ele><time>2026-04-12T08:07:32.002Z</time></trkpt><trkpt lat="45.6180753" lon="9.4180222"><ele>207.85714285714286</ele><time>2026-04-12T08:07:35.001Z</time></trkpt><trkpt lat="45.6180075" lon="9.418014"><ele>207.57142857142858</ele><time>2026-04-12T08:07:37.002Z</time></trkpt><trkpt lat="45.6179392" lon="9.4180046"><ele>207.2857142857143</ele><time>2026-04-12T08:07:39.001Z</time></trkpt><trkpt lat="45.617871" lon="9.4179933"><ele>207.0</ele><time>2026-04-12T08:07:41.002Z</time></trkpt><trkpt lat="45.6177785" lon="9.4179797"><ele>207.00000000000003</ele><time>2026-04-12T08:07:44.001Z</time></trkpt><trkpt lat="45.6176842" lon="9.4179772"><ele>207.0</ele><time>2026-04-12T08:07:47.002Z</time></trkpt><trkpt lat="45.6176167" lon="9.4179654"><ele>207.0</ele><time>2026-04-12T08:07:49.001Z</time></trkpt><trkpt lat="45.6175446" lon="9.4179578"><ele>207.0</ele><time>2026-04-12T08:07:51.001Z</time></trkpt><trkpt lat="45.6174715" lon="9.4179477"><ele>207.0</ele><time>2026-04-12T08:07:53.002Z</time></trkpt><trkpt lat="45.6174037" lon="9.4179413"><ele>207.00000000000003</ele><time>2026-04-12T08:07:55.002Z</time></trkpt><trkpt lat="45.617337" lon="9.4179375"><ele>207.0</ele><time>2026-04-12T08:07:57.002Z</time></trkpt><trkpt lat="45.6172688" lon="9.41793"><ele>207.00000000000003</ele><time>2026-04-12T08:07:59.002Z</time></trkpt><trkpt lat="45.6172006" lon="9.41793"><ele>207.0</ele><time>2026-04-12T08:08:01.002Z</time></trkpt><trkpt lat="45.6171268" lon="9.4179364"><ele>207.0</ele><time>2026-04-12T08:08:03.001Z</time></trkpt><trkpt lat="45.6170551" lon="9.4179619"><ele>207.0</ele><time>2026-04-12T08:08:05.002Z</time></trkpt><trkpt lat="45.6169913" lon="9.4179937"><ele>207.0</ele><time>2026-04-12T08:08:07.001Z</time></trkpt><trkpt lat="45.6169132" lon="9.4180339"><ele>207.00000000000003</ele><time>2026-04-12T08:08:10.002Z</time></trkpt><trkpt lat="45.616886" lon="9.4181162"><ele>207.0</ele><time>2026-04-12T08:08:12.002Z</time></trkpt><trkpt lat="45.6168788" lon="9.4182152"><ele>206.71428571428572</ele><time>2026-04-12T08:08:14.002Z</time></trkpt><trkpt lat="45.6168786" lon="9.4183157"><ele>206.42857142857144</ele><time>2026-04-12T08:08:16.002Z</time></trkpt><trkpt lat="45.6168738" lon="9.418414"><ele>206.14285714285717</ele><time>2026-04-12T08:08:18.002Z</time></trkpt><trkpt lat="45.616872" lon="9.4185064"><ele>205.85714285714286</ele><time>2026-04-12T08:08:20.001Z</time></trkpt><trkpt lat="45.6168699" lon="9.4185978"><ele>205.57142857142856</ele><time>2026-04-12T08:08:22.002Z</time></trkpt><trkpt lat="45.6168612" lon="9.4186898"><ele>205.2857142857143</ele><time>2026-04-12T08:08:24.002Z</time></trkpt><trkpt lat="45.6168612" lon="9.4187816"><ele>205.0</ele><time>2026-04-12T08:08:26.002Z</time></trkpt><trkpt lat="45.616862" lon="9.4188716"><ele>205.0</ele><time>2026-04-12T08:08:28.001Z</time></trkpt><trkpt lat="45.616858" lon="9.418964"><ele>205.0</ele><time>2026-04-12T08:08:30.001Z</time></trkpt><trkpt lat="45.6168582" lon="9.4190642"><ele>205.0</ele><time>2026-04-12T08:08:32.002Z</time></trkpt><trkpt lat="45.6168592" lon="9.4191712"><ele>205.0</ele><time>2026-04-12T08:08:34.002Z</time></trkpt><trkpt lat="45.6168592" lon="9.4192771"><ele>205.0</ele><time>2026-04-12T08:08:36.002Z</time></trkpt><trkpt lat="45.6168598" lon="9.4193776"><ele>205.0</ele><time>2026-04-12T08:08:38.002Z</time></trkpt><trkpt lat="45.6168618" lon="9.4194796"><ele>205.0</ele><time>2026-04-12T08:08:40.002Z</time></trkpt><trkpt lat="45.6168642" lon="9.4195791"><ele>205.0</ele><time>2026-04-12T08:08:42.002Z</time></trkpt><trkpt lat="45.6168644" lon="9.4196718"><ele>205.0</ele><time>2026-04-12T08:08:44.002Z</time></trkpt><trkpt lat="45.6168539" lon="9.419767"><ele>205.0</ele><time>2026-04-12T08:08:46.002Z</time></trkpt><trkpt lat="45.6168577" lon="9.419863"><ele>205.0</ele><time>2026-04-12T08:08:48.001Z</time></trkpt><trkpt lat="45.6168723" lon="9.4199553"><ele>205.0</ele><time>2026-04-12T08:08:50.002Z</time></trkpt><trkpt lat="45.6168795" lon="9.4200516"><ele>205.0</ele><time>2026-04-12T08:08:52.002Z</time></trkpt><trkpt lat="45.6168857" lon="9.4201511"><ele>205.0</ele><time>2026-04-12T08:08:54.001Z</time></trkpt><trkpt lat="45.6168909" lon="9.4202516"><ele>204.99999999999997</ele><time>2026-04-12T08:08:56.002Z</time></trkpt><trkpt lat="45.616898" lon="9.4203576"><ele>205.0</ele><time>2026-04-12T08:08:58.001Z</time></trkpt><trkpt lat="45.6169017" lon="9.420468"><ele>205.0</ele><time>2026-04-12T08:09:00.002Z</time></trkpt><trkpt lat="45.6169047" lon="9.4205799"><ele>205.0</ele><time>2026-04-12T08:09:02.002Z</time></trkpt><trkpt lat="45.6169078" lon="9.4206909"><ele>204.99999999999997</ele><time>2026-04-12T08:09:04.002Z</time></trkpt><trkpt lat="45.6169118" lon="9.4207994"><ele>205.0</ele><time>2026-04-12T08:09:06.001Z</time></trkpt><trkpt lat="45.6169161" lon="9.4209106"><ele>204.99999999999997</ele><time>2026-04-12T08:09:08.002Z</time></trkpt><trkpt lat="45.6169182" lon="9.4210236"><ele>205.0</ele><time>2026-04-12T08:09:10.002Z</time></trkpt><trkpt lat="45.6169234" lon="9.4211313"><ele>205.0</ele><time>2026-04-12T08:09:12.001Z</time></trkpt><trkpt lat="45.6169277" lon="9.4212396"><ele>205.0</ele><time>2026-04-12T08:09:14.002Z</time></trkpt><trkpt lat="45.6169289" lon="9.4213505"><ele>204.99999999999997</ele><time>2026-04-12T08:09:16.001Z</time></trkpt><trkpt lat="45.6169317" lon="9.4214649"><ele>205.0</ele><time>2026-04-12T08:09:18.002Z</time></trkpt><trkpt lat="45.6169323" lon="9.421574"><ele>204.99999999999997</ele><time>2026-04-12T08:09:20.002Z</time></trkpt><trkpt lat="45.616937" lon="9.4216828"><ele>205.0</ele><time>2026-04-12T08:09:22.002Z</time></trkpt><trkpt lat="45.6169396" lon="9.4217964"><ele>205.0</ele><time>2026-04-12T08:09:24.002Z</time></trkpt><trkpt lat="45.6169399" lon="9.4219082"><ele>205.0</ele><time>2026-04-12T08:09:26.002Z</time></trkpt><trkpt lat="45.6169426" lon="9.4220158"><ele>204.99999999999997</ele><time>2026-04-12T08:09:28.002Z</time></trkpt><trkpt lat="45.6169438" lon="9.4221183"><ele>205.0</ele><time>2026-04-12T08:09:30.001Z</time></trkpt><trkpt lat="45.6169416" lon="9.4222223"><ele>205.0</ele><time>2026-04-12T08:09:32.002Z</time></trkpt><trkpt lat="45.6169409" lon="9.4223238"><ele>205.0</ele><time>2026-04-12T08:09:34.002Z</time></trkpt><trkpt lat="45.6169383" lon="9.4224232"><ele>205.0</ele><time>2026-04-12T08:09:36.002Z</time></trkpt><trkpt lat="45.6169369" lon="9.422528"><ele>205.0</ele><time>2026-04-12T08:09:38.002Z</time></trkpt><trkpt lat="45.6169415" lon="9.4226304"><ele>205.0</ele><time>2026-04-12T08:09:40.001Z</time></trkpt><trkpt lat="45.6169403" lon="9.4227249"><ele>205.0</ele><time>2026-04-12T08:09:42.002Z</time></trkpt><trkpt lat="45.616926" lon="9.4228483"><ele>205.0</ele><time>2026-04-12T08:09:45.002Z</time></trkpt><trkpt lat="45.6169381" lon="9.4229499"><ele>205.0</ele><time>2026-04-12T08:09:48.001Z</time></trkpt><trkpt lat="45.6169286" lon="9.4230571"><ele>205.0</ele><time>2026-04-12T08:09:51.001Z</time></trkpt><trkpt lat="45.616911" lon="9.4231598"><ele>205.0</ele><time>2026-04-12T08:09:54.002Z</time></trkpt><trkpt lat="45.6168945" lon="9.423271"><ele>205.0</ele><time>2026-04-12T08:09:56.002Z</time></trkpt><trkpt lat="45.6168774" lon="9.42338"><ele>205.0</ele><time>2026-04-12T08:09:58.002Z</time></trkpt><trkpt lat="45.6168706" lon="9.423471"><ele>205.0</ele><time>2026-04-12T08:10:00.001Z</time></trkpt><trkpt lat="45.6168635" lon="9.4235722"><ele>205.0</ele><time>2026-04-12T08:10:03.002Z</time></trkpt><trkpt lat="45.6168471" lon="9.4236681"><ele>204.99999999999997</ele><time>2026-04-12T08:10:05.002Z</time></trkpt><trkpt lat="45.6168325" lon="9.423765"><ele>205.0</ele><time>2026-04-12T08:10:07.001Z</time></trkpt><trkpt lat="45.6168241" lon="9.4238648"><ele>205.0</ele><time>2026-04-12T08:10:09.002Z</time></trkpt><trkpt lat="45.6168089" lon="9.4239732"><ele>205.0</ele><time>2026-04-12T08:10:11.001Z</time></trkpt><trkpt lat="45.6167915" lon="9.4240941"><ele>204.99999999999997</ele><time>2026-04-12T08:10:13.001Z</time></trkpt><trkpt lat="45.6167836" lon="9.4242214"><ele>205.0</ele><time>2026-04-12T08:10:15.002Z</time></trkpt><trkpt lat="45.6167721" lon="9.4243416"><ele>205.16666666666666</ele><time>2026-04-12T08:10:17.001Z</time></trkpt><trkpt lat="45.6167618" lon="9.4244532"><ele>205.33333333333331</ele><time>2026-04-12T08:10:19.002Z</time></trkpt><trkpt lat="45.6167469" lon="9.424563"><ele>205.5</ele><time>2026-04-12T08:10:21.002Z</time></trkpt><trkpt lat="45.6167381" lon="9.4246775"><ele>205.66666666666669</ele><time>2026-04-12T08:10:23.001Z</time></trkpt><trkpt lat="45.6167245" lon="9.4247942"><ele>205.83333333333334</ele><time>2026-04-12T08:10:25.002Z</time></trkpt><trkpt lat="45.6167187" lon="9.4249075"><ele>206.0</ele><time>2026-04-12T08:10:27.001Z</time></trkpt><trkpt lat="45.616705" lon="9.4250215"><ele>206.00000000000003</ele><time>2026-04-12T08:10:29.002Z</time></trkpt><trkpt lat="45.6166933" lon="9.4251342"><ele>206.0</ele><time>2026-04-12T08:10:31.002Z</time></trkpt><trkpt lat="45.6166907" lon="9.4252523"><ele>206.0</ele><time>2026-04-12T08:10:33.002Z</time></trkpt><trkpt lat="45.6166777" lon="9.4253699"><ele>206.0</ele><time>2026-04-12T08:10:35.002Z</time></trkpt><trkpt lat="45.6166643" lon="9.4254869"><ele>206.00000000000003</ele><time>2026-04-12T08:10:37.001Z</time></trkpt><trkpt lat="45.6166533" lon="9.4255975"><ele>206.0</ele><time>2026-04-12T08:10:39.001Z</time></trkpt><trkpt lat="45.6166353" lon="9.4257094"><ele>205.83333333333334</ele><time>2026-04-12T08:10:41.002Z</time></trkpt><trkpt lat="45.6166232" lon="9.4258243"><ele>205.66666666666669</ele><time>2026-04-12T08:10:43.001Z</time></trkpt><trkpt lat="45.6166075" lon="9.4259372"><ele>205.5</ele><time>2026-04-12T08:10:45.002Z</time></trkpt><trkpt lat="45.6165921" lon="9.4260469"><ele>205.33333333333331</ele><time>2026-04-12T08:10:47.002Z</time></trkpt><trkpt lat="45.6165801" lon="9.4261628"><ele>205.16666666666666</ele><time>2026-04-12T08:10:49.002Z</time></trkpt><trkpt lat="45.6165732" lon="9.4262791"><ele>205.0</ele><time>2026-04-12T08:10:51.001Z</time></trkpt><trkpt lat="45.6165628" lon="9.4263969"><ele>204.99999999999997</ele><time>2026-04-12T08:10:53.002Z</time></trkpt><trkpt lat="45.6165544" lon="9.4265163"><ele>205.0</ele><time>2026-04-12T08:10:55.001Z</time></trkpt><trkpt lat="45.6165413" lon="9.426633"><ele>205.0</ele><time>2026-04-12T08:10:57.002Z</time></trkpt><trkpt lat="45.6165296" lon="9.4267501"><ele>205.0</ele><time>2026-04-12T08:10:59.002Z</time></trkpt><trkpt lat="45.6165172" lon="9.4268661"><ele>204.99999999999997</ele><time>2026-04-12T08:11:01.002Z</time></trkpt><trkpt lat="45.6165047" lon="9.4269801"><ele>205.0</ele><time>2026-04-12T08:11:03.001Z</time></trkpt><trkpt lat="45.6164811" lon="9.4270917"><ele>205.16666666666666</ele><time>2026-04-12T08:11:05.001Z</time></trkpt><trkpt lat="45.6164721" lon="9.4272093"><ele>205.33333333333331</ele><time>2026-04-12T08:11:07.002Z</time></trkpt><trkpt lat="45.6164553" lon="9.4273214"><ele>205.5</ele><time>2026-04-12T08:11:09.002Z</time></trkpt><trkpt lat="45.6164399" lon="9.42743"><ele>205.66666666666669</ele><time>2026-04-12T08:11:11.002Z</time></trkpt><trkpt lat="45.6164322" lon="9.4275362"><ele>205.83333333333334</ele><time>2026-04-12T08:11:13.001Z</time></trkpt><trkpt lat="45.6164251" lon="9.4276512"><ele>206.0</ele><time>2026-04-12T08:11:15.002Z</time></trkpt><trkpt lat="45.6164131" lon="9.427767"><ele>206.00000000000003</ele><time>2026-04-12T08:11:17.002Z</time></trkpt><trkpt lat="45.6163988" lon="9.4278816"><ele>206.0</ele><time>2026-04-12T08:11:19.002Z</time></trkpt><trkpt lat="45.6163873" lon="9.4279984"><ele>206.0</ele><time>2026-04-12T08:11:21.002Z</time></trkpt><trkpt lat="45.6163768" lon="9.4281161"><ele>206.0</ele><time>2026-04-12T08:11:23.002Z</time></trkpt><trkpt lat="45.6163673" lon="9.4282348"><ele>206.00000000000003</ele><time>2026-04-12T08:11:25.002Z</time></trkpt><trkpt lat="45.616355" lon="9.4283576"><ele>206.0</ele><time>2026-04-12T08:11:27.001Z</time></trkpt><trkpt lat="45.6163399" lon="9.4284819"><ele>206.00000000000003</ele><time>2026-04-12T08:11:29.002Z</time></trkpt><trkpt lat="45.6163305" lon="9.4286068"><ele>206.0</ele><time>2026-04-12T08:11:31.001Z</time></trkpt><trkpt lat="45.616318" lon="9.4287281"><ele>206.0</ele><time>2026-04-12T08:11:33.002Z</time></trkpt><trkpt lat="45.616302" lon="9.4288459"><ele>206.0</ele><time>2026-04-12T08:11:35.002Z</time></trkpt><trkpt lat="45.6162917" lon="9.4289643"><ele>206.00000000000003</ele><time>2026-04-12T08:11:37.002Z</time></trkpt><trkpt lat="45.6162789" lon="9.4290811"><ele>206.0</ele><time>2026-04-12T08:11:39.002Z</time></trkpt><trkpt lat="45.616267" lon="9.429199"><ele>206.00000000000003</ele><time>2026-04-12T08:11:41.002Z</time></trkpt><trkpt lat="45.6162523" lon="9.4293182"><ele>206.0</ele><time>2026-04-12T08:11:43.002Z</time></trkpt><trkpt lat="45.6162338" lon="9.4294336"><ele>206.0</ele><time>2026-04-12T08:11:45.002Z</time></trkpt><trkpt lat="45.6162211" lon="9.4295485"><ele>206.0</ele><time>2026-04-12T08:11:47.002Z</time></trkpt><trkpt lat="45.6162104" lon="9.4296642"><ele>206.00000000000003</ele><time>2026-04-12T08:11:49.001Z</time></trkpt><trkpt lat="45.6162014" lon="9.4297802"><ele>206.0</ele><time>2026-04-12T08:11:51.002Z</time></trkpt><trkpt lat="45.6162185" lon="9.4298833"><ele>205.7142857142857</ele><time>2026-04-12T08:11:53.002Z</time></trkpt><trkpt lat="45.6162138" lon="9.4299941"><ele>205.42857142857142</ele><time>2026-04-12T08:11:55.002Z</time></trkpt><trkpt lat="45.6162137" lon="9.430103"><ele>205.14285714285714</ele><time>2026-04-12T08:11:57.002Z</time></trkpt><trkpt lat="45.6162166" lon="9.4302111"><ele>204.85714285714283</ele><time>2026-04-12T08:11:59.002Z</time></trkpt><trkpt lat="45.6162037" lon="9.4303147"><ele>204.57142857142858</ele><time>2026-04-12T08:12:01.002Z</time></trkpt><trkpt lat="45.6162021" lon="9.4304212"><ele>204.28571428571428</ele><time>2026-04-12T08:12:03.002Z</time></trkpt><trkpt lat="45.6161916" lon="9.4305187"><ele>204.0</ele><time>2026-04-12T08:12:05.001Z</time></trkpt><trkpt lat="45.6161816" lon="9.4306159"><ele>204.0</ele><time>2026-04-12T08:12:07.002Z</time></trkpt><trkpt lat="45.6161696" lon="9.4307073"><ele>204.0</ele><time>2026-04-12T08:12:09.002Z</time></trkpt><trkpt lat="45.6161583" lon="9.4308272"><ele>204.0</ele><time>2026-04-12T08:12:12.002Z</time></trkpt><trkpt lat="45.6162059" lon="9.4308979"><ele>204.0</ele><time>2026-04-12T08:12:15.001Z</time></trkpt><trkpt lat="45.6162098" lon="9.4310212"><ele>204.0</ele><time>2026-04-12T08:12:18.001Z</time></trkpt><trkpt lat="45.6161558" lon="9.4310795"><ele>204.0</ele><time>2026-04-12T08:12:20.001Z</time></trkpt><trkpt lat="45.6161107" lon="9.4311448"><ele>204.0</ele><time>2026-04-12T08:12:22.002Z</time></trkpt><trkpt lat="45.6160875" lon="9.431238"><ele>204.14285714285714</ele><time>2026-04-12T08:12:24.002Z</time></trkpt><trkpt lat="45.6160725" lon="9.4313348"><ele>204.28571428571428</ele><time>2026-04-12T08:12:26.001Z</time></trkpt><trkpt lat="45.6160527" lon="9.4314299"><ele>204.42857142857144</ele><time>2026-04-12T08:12:28.002Z</time></trkpt><trkpt lat="45.6160367" lon="9.4315302"><ele>204.57142857142856</ele><time>2026-04-12T08:12:30.001Z</time></trkpt><trkpt lat="45.6160145" lon="9.43163"><ele>204.7142857142857</ele><time>2026-04-12T08:12:32.002Z</time></trkpt><trkpt lat="45.6159971" lon="9.4317306"><ele>204.85714285714286</ele><time>2026-04-12T08:12:34.002Z</time></trkpt><trkpt lat="45.6159844" lon="9.431831"><ele>205.0</ele><time>2026-04-12T08:12:36.002Z</time></trkpt><trkpt lat="45.6159676" lon="9.4319357"><ele>204.99999999999997</ele><time>2026-04-12T08:12:38.002Z</time></trkpt><trkpt lat="45.6159508" lon="9.4320459"><ele>205.0</ele><time>2026-04-12T08:12:40.002Z</time></trkpt><trkpt lat="45.6159402" lon="9.4321575"><ele>205.0</ele><time>2026-04-12T08:12:42.002Z</time></trkpt><trkpt lat="45.6159277" lon="9.4322621"><ele>205.0</ele><time>2026-04-12T08:12:44.002Z</time></trkpt><trkpt lat="45.6159188" lon="9.4323682"><ele>204.99999999999997</ele><time>2026-04-12T08:12:46.001Z</time></trkpt><trkpt lat="45.6159037" lon="9.4324918"><ele>205.0</ele><time>2026-04-12T08:12:48.001Z</time></trkpt><trkpt lat="45.6158875" lon="9.4326278"><ele>204.75</ele><time>2026-04-12T08:12:50.001Z</time></trkpt><trkpt lat="45.6158768" lon="9.4327466"><ele>204.5</ele><time>2026-04-12T08:12:52.002Z</time></trkpt><trkpt lat="45.6158452" lon="9.4328366"><ele>204.25</ele><time>2026-04-12T08:12:54.002Z</time></trkpt><trkpt lat="45.6156992" lon="9.4330506"><ele>204.0</ele><time>2026-04-12T08:13:00.002Z</time></trkpt><trkpt lat="45.6156364" lon="9.4331359"><ele>204.0</ele><time>2026-04-12T08:13:02.001Z</time></trkpt><trkpt lat="45.6156275" lon="9.4332444"><ele>204.0</ele><time>2026-04-12T08:13:04.002Z</time></trkpt><trkpt lat="45.6156193" lon="9.4333452"><ele>204.0</ele><time>2026-04-12T08:13:06.002Z</time></trkpt><trkpt lat="45.615613" lon="9.4334565"><ele>204.0</ele><time>2026-04-12T08:13:09.002Z</time></trkpt><trkpt lat="45.6155687" lon="9.4335248"><ele>204.0</ele><time>2026-04-12T08:13:12.002Z</time></trkpt><trkpt lat="45.6155068" lon="9.4335082"><ele>204.0</ele><time>2026-04-12T08:13:14.002Z</time></trkpt><trkpt lat="45.6154377" lon="9.4334738"><ele>204.0</ele><time>2026-04-12T08:13:16.002Z</time></trkpt><trkpt lat="45.6153673" lon="9.4334379"><ele>204.16666666666666</ele><time>2026-04-12T08:13:18.001Z</time></trkpt><trkpt lat="45.6152942" lon="9.4334074"><ele>204.33333333333331</ele><time>2026-04-12T08:13:20.002Z</time></trkpt><trkpt lat="45.6152173" lon="9.4333753"><ele>204.5</ele><time>2026-04-12T08:13:22.001Z</time></trkpt><trkpt lat="45.6151423" lon="9.4333382"><ele>204.66666666666666</ele><time>2026-04-12T08:13:24.001Z</time></trkpt><trkpt lat="45.6150687" lon="9.433307"><ele>204.83333333333331</ele><time>2026-04-12T08:13:26.002Z</time></trkpt><trkpt lat="45.6149902" lon="9.4332741"><ele>205.0</ele><time>2026-04-12T08:13:28.002Z</time></trkpt><trkpt lat="45.6149117" lon="9.4332333"><ele>205.0</ele><time>2026-04-12T08:13:30.001Z</time></trkpt><trkpt lat="45.6148272" lon="9.4331944"><ele>205.0</ele><time>2026-04-12T08:13:32.002Z</time></trkpt><trkpt lat="45.6147395" lon="9.4331452"><ele>205.0</ele><time>2026-04-12T08:13:34.001Z</time></trkpt><trkpt lat="45.6146481" lon="9.4330987"><ele>205.0</ele><time>2026-04-12T08:13:36.002Z</time></trkpt><trkpt lat="45.6145638" lon="9.4330534"><ele>205.0</ele><time>2026-04-12T08:13:38.001Z</time></trkpt><trkpt lat="45.6144707" lon="9.4330163"><ele>204.8</ele><time>2026-04-12T08:13:40.002Z</time></trkpt><trkpt lat="45.6143799" lon="9.4329805"><ele>204.6</ele><time>2026-04-12T08:13:42.001Z</time></trkpt><trkpt lat="45.6142898" lon="9.4329387"><ele>204.39999999999998</ele><time>2026-04-12T08:13:44.002Z</time></trkpt><trkpt lat="45.6142026" lon="9.4329017"><ele>204.2</ele><time>2026-04-12T08:13:46.002Z</time></trkpt><trkpt lat="45.6141155" lon="9.43286"><ele>204.0</ele><time>2026-04-12T08:13:48.002Z</time></trkpt><trkpt lat="45.6140394" lon="9.4328033"><ele>203.79999999999998</ele><time>2026-04-12T08:13:50.002Z</time></trkpt><trkpt lat="45.6139561" lon="9.4327845"><ele>203.6</ele><time>2026-04-12T08:13:52.002Z</time></trkpt><trkpt lat="45.6138681" lon="9.4328256"><ele>203.4</ele><time>2026-04-12T08:13:54.001Z</time></trkpt><trkpt lat="45.6137805" lon="9.4328775"><ele>203.2</ele><time>2026-04-12T08:13:56.001Z</time></trkpt><trkpt lat="45.6136904" lon="9.4328807"><ele>203.0</ele><time>2026-04-12T08:13:58.001Z</time></trkpt><trkpt lat="45.6135963" lon="9.4328527"><ele>203.00000000000003</ele><time>2026-04-12T08:14:00.002Z</time></trkpt><trkpt lat="45.6135089" lon="9.4328139"><ele>203.0</ele><time>2026-04-12T08:14:02.001Z</time></trkpt><trkpt lat="45.6134255" lon="9.4327772"><ele>203.0</ele><time>2026-04-12T08:14:04.001Z</time></trkpt><trkpt lat="45.6133391" lon="9.4327355"><ele>203.0</ele><time>2026-04-12T08:14:06.002Z</time></trkpt><trkpt lat="45.6132598" lon="9.4326824"><ele>203.00000000000003</ele><time>2026-04-12T08:14:08.002Z</time></trkpt><trkpt lat="45.6131829" lon="9.4326244"><ele>203.0</ele><time>2026-04-12T08:14:10.002Z</time></trkpt><trkpt lat="45.6130974" lon="9.4325842"><ele>203.0</ele><time>2026-04-12T08:14:12.001Z</time></trkpt><trkpt lat="45.6130091" lon="9.4325378"><ele>203.0</ele><time>2026-04-12T08:14:14.001Z</time></trkpt><trkpt lat="45.6129175" lon="9.4324982"><ele>203.0</ele><time>2026-04-12T08:14:16.002Z</time></trkpt><trkpt lat="45.6128238" lon="9.4324559"><ele>203.0</ele><time>2026-04-12T08:14:18.002Z</time></trkpt><trkpt lat="45.6127307" lon="9.4324256"><ele>203.0</ele><time>2026-04-12T08:14:20.001Z</time></trkpt><trkpt lat="45.6126423" lon="9.4323967"><ele>203.00000000000003</ele><time>2026-04-12T08:14:22.002Z</time></trkpt><trkpt lat="45.6125519" lon="9.4323792"><ele>203.0</ele><time>2026-04-12T08:14:24.002Z</time></trkpt><trkpt lat="45.6124631" lon="9.4323637"><ele>203.0</ele><time>2026-04-12T08:14:26.002Z</time></trkpt><trkpt lat="45.6123737" lon="9.4323574"><ele>203.0</ele><time>2026-04-12T08:14:28.002Z</time></trkpt><trkpt lat="45.6122846" lon="9.43235"><ele>203.00000000000003</ele><time>2026-04-12T08:14:30.001Z</time></trkpt><trkpt lat="45.6121989" lon="9.432343"><ele>203.0</ele><time>2026-04-12T08:14:32.002Z</time></trkpt><trkpt lat="45.6121067" lon="9.4323397"><ele>203.00000000000003</ele><time>2026-04-12T08:14:34.002Z</time></trkpt><trkpt lat="45.6120194" lon="9.4323278"><ele>203.0</ele><time>2026-04-12T08:14:36.002Z</time></trkpt><trkpt lat="45.6119252" lon="9.4323248"><ele>203.0</ele><time>2026-04-12T08:14:38.002Z</time></trkpt><trkpt lat="45.6118327" lon="9.4323152"><ele>203.0</ele><time>2026-04-12T08:14:40.002Z</time></trkpt><trkpt lat="45.6117682" lon="9.4322341"><ele>203.00000000000003</ele><time>2026-04-12T08:14:42.001Z</time></trkpt><trkpt lat="45.6117308" lon="9.4321245"><ele>203.0</ele><time>2026-04-12T08:14:44.001Z</time></trkpt><trkpt lat="45.6116582" lon="9.4320408"><ele>202.8</ele><time>2026-04-12T08:14:46.002Z</time></trkpt><trkpt lat="45.6115662" lon="9.431993"><ele>202.60000000000002</ele><time>2026-04-12T08:14:48.002Z</time></trkpt><trkpt lat="45.6114726" lon="9.4319693"><ele>202.39999999999998</ele><time>2026-04-12T08:14:50.001Z</time></trkpt><trkpt lat="45.6113802" lon="9.4319596"><ele>202.2</ele><time>2026-04-12T08:14:52.001Z</time></trkpt><trkpt lat="45.611275" lon="9.4319709"><ele>202.0</ele><time>2026-04-12T08:14:54.002Z</time></trkpt><trkpt lat="45.6111762" lon="9.4319722"><ele>201.39999999999998</ele><time>2026-04-12T08:14:56.002Z</time></trkpt><trkpt lat="45.6110707" lon="9.4319799"><ele>200.79999999999998</ele><time>2026-04-12T08:14:58.002Z</time></trkpt><trkpt lat="45.6109631" lon="9.4319718"><ele>200.2</ele><time>2026-04-12T08:15:00.001Z</time></trkpt><trkpt lat="45.6108606" lon="9.4319474"><ele>199.6</ele><time>2026-04-12T08:15:02.002Z</time></trkpt><trkpt lat="45.6107563" lon="9.4319414"><ele>199.0</ele><time>2026-04-12T08:15:04.001Z</time></trkpt><trkpt lat="45.6106502" lon="9.4319687"><ele>199.0</ele><time>2026-04-12T08:15:06.001Z</time></trkpt><trkpt lat="45.6105592" lon="9.4320395"><ele>199.0</ele><time>2026-04-12T08:15:08.001Z</time></trkpt><trkpt lat="45.6104795" lon="9.4321358"><ele>199.0</ele><time>2026-04-12T08:15:10.001Z</time></trkpt><trkpt lat="45.6104007" lon="9.4322431"><ele>199.0</ele><time>2026-04-12T08:15:12.001Z</time></trkpt><trkpt lat="45.6103064" lon="9.4323224"><ele>199.0</ele><time>2026-04-12T08:15:14.002Z</time></trkpt><trkpt lat="45.610217" lon="9.4324165"><ele>198.39999999999998</ele><time>2026-04-12T08:15:16.002Z</time></trkpt><trkpt lat="45.6101313" lon="9.4325101"><ele>197.8</ele><time>2026-04-12T08:15:18.002Z</time></trkpt><trkpt lat="45.6100394" lon="9.4325909"><ele>197.2</ele><time>2026-04-12T08:15:20.001Z</time></trkpt><trkpt lat="45.6099401" lon="9.432646"><ele>196.60000000000002</ele><time>2026-04-12T08:15:22.002Z</time></trkpt><trkpt lat="45.6098266" lon="9.4326413"><ele>196.0</ele><time>2026-04-12T08:15:24.001Z</time></trkpt><trkpt lat="45.6097118" lon="9.4326149"><ele>196.0</ele><time>2026-04-12T08:15:26.002Z</time></trkpt><trkpt lat="45.6096048" lon="9.4325775"><ele>196.0</ele><time>2026-04-12T08:15:28.002Z</time></trkpt><trkpt lat="45.6095063" lon="9.4325216"><ele>196.0</ele><time>2026-04-12T08:15:30.002Z</time></trkpt><trkpt lat="45.6094023" lon="9.4324817"><ele>196.0</ele><time>2026-04-12T08:15:32.002Z</time></trkpt><trkpt lat="45.6093009" lon="9.4324354"><ele>196.0</ele><time>2026-04-12T08:15:34.002Z</time></trkpt><trkpt lat="45.6091956" lon="9.4323892"><ele>196.0</ele><time>2026-04-12T08:15:36.002Z</time></trkpt><trkpt lat="45.6090865" lon="9.4323391"><ele>196.0</ele><time>2026-04-12T08:15:38.002Z</time></trkpt><trkpt lat="45.6089719" lon="9.4322841"><ele>196.0</ele><time>2026-04-12T08:15:40.002Z</time></trkpt><trkpt lat="45.6088773" lon="9.4322383"><ele>196.0</ele><time>2026-04-12T08:15:42.002Z</time></trkpt><trkpt lat="45.6087733" lon="9.432185"><ele>196.0</ele><time>2026-04-12T08:15:44.001Z</time></trkpt><trkpt lat="45.608679" lon="9.4321355"><ele>196.20000000000002</ele><time>2026-04-12T08:15:46.002Z</time></trkpt><trkpt lat="45.6085745" lon="9.432102"><ele>196.4</ele><time>2026-04-12T08:15:48.002Z</time></trkpt><trkpt lat="45.6084773" lon="9.4321281"><ele>196.6</ele><time>2026-04-12T08:15:50.002Z</time></trkpt><trkpt lat="45.6084185" lon="9.4322571"><ele>196.8</ele><time>2026-04-12T08:15:52.002Z</time></trkpt><trkpt lat="45.6083845" lon="9.4323925"><ele>197.0</ele><time>2026-04-12T08:15:54.001Z</time></trkpt><trkpt lat="45.6083652" lon="9.4325469"><ele>197.0</ele><time>2026-04-12T08:15:56.001Z</time></trkpt><trkpt lat="45.6083471" lon="9.4326826"><ele>197.0</ele><time>2026-04-12T08:15:58.002Z</time></trkpt><trkpt lat="45.6083185" lon="9.4328227"><ele>197.0</ele><time>2026-04-12T08:16:00.002Z</time></trkpt><trkpt lat="45.6083063" lon="9.4329719"><ele>197.0</ele><time>2026-04-12T08:16:02.002Z</time></trkpt><trkpt lat="45.6082768" lon="9.4331098"><ele>197.0</ele><time>2026-04-12T08:16:04.002Z</time></trkpt><trkpt lat="45.6082532" lon="9.4332425"><ele>197.0</ele><time>2026-04-12T08:16:06.002Z</time></trkpt><trkpt lat="45.6082354" lon="9.4333917"><ele>197.0</ele><time>2026-04-12T08:16:08.002Z</time></trkpt><trkpt lat="45.6081991" lon="9.4335186"><ele>197.0</ele><time>2026-04-12T08:16:10.002Z</time></trkpt><trkpt lat="45.6081555" lon="9.4336577"><ele>197.0</ele><time>2026-04-12T08:16:12.001Z</time></trkpt><trkpt lat="45.6080852" lon="9.4337786"><ele>197.0</ele><time>2026-04-12T08:16:14.002Z</time></trkpt><trkpt lat="45.6080053" lon="9.4338883"><ele>197.0</ele><time>2026-04-12T08:16:16.001Z</time></trkpt><trkpt lat="45.6079456" lon="9.4339276"><ele>197.0</ele><time>2026-04-12T08:16:17.001Z</time></trkpt><trkpt lat="45.6078508" lon="9.4340141"><ele>197.0</ele><time>2026-04-12T08:16:19.002Z</time></trkpt><trkpt lat="45.6077667" lon="9.4340943"><ele>197.0</ele><time>2026-04-12T08:16:21.002Z</time></trkpt><trkpt lat="45.6076814" lon="9.4341765"><ele>197.0</ele><time>2026-04-12T08:16:23.002Z</time></trkpt><trkpt lat="45.6076001" lon="9.4342641"><ele>197.0</ele><time>2026-04-12T08:16:25.002Z</time></trkpt><trkpt lat="45.6075216" lon="9.4343235"><ele>197.0</ele><time>2026-04-12T08:16:27.001Z</time></trkpt><trkpt lat="45.6074436" lon="9.4343831"><ele>197.0</ele><time>2026-04-12T08:16:29.002Z</time></trkpt><trkpt lat="45.6073666" lon="9.4344785"><ele>197.0</ele><time>2026-04-12T08:16:31.002Z</time></trkpt><trkpt lat="45.607286" lon="9.4345844"><ele>197.0</ele><time>2026-04-12T08:16:33.001Z</time></trkpt><trkpt lat="45.6072064" lon="9.4346943"><ele>197.2</ele><time>2026-04-12T08:16:35.002Z</time></trkpt><trkpt lat="45.6071388" lon="9.4347964"><ele>197.39999999999998</ele><time>2026-04-12T08:16:37.002Z</time></trkpt><trkpt lat="45.6070627" lon="9.4348703"><ele>197.60000000000002</ele><time>2026-04-12T08:16:39.001Z</time></trkpt><trkpt lat="45.6069864" lon="9.4349713"><ele>197.8</ele><time>2026-04-12T08:16:41.002Z</time></trkpt><trkpt lat="45.6069249" lon="9.4350757"><ele>198.0</ele><time>2026-04-12T08:16:43.002Z</time></trkpt><trkpt lat="45.6068686" lon="9.4351916"><ele>198.33333333333334</ele><time>2026-04-12T08:16:45.001Z</time></trkpt><trkpt lat="45.6068147" lon="9.4352879"><ele>198.66666666666669</ele><time>2026-04-12T08:16:47.002Z</time></trkpt><trkpt lat="45.6067654" lon="9.4353962"><ele>199.0</ele><time>2026-04-12T08:16:49.002Z</time></trkpt><trkpt lat="45.6067247" lon="9.4355048"><ele>199.33333333333334</ele><time>2026-04-12T08:16:51.001Z</time></trkpt><trkpt lat="45.6066917" lon="9.4356213"><ele>199.66666666666669</ele><time>2026-04-12T08:16:53.002Z</time></trkpt><trkpt lat="45.6066514" lon="9.435726"><ele>200.0</ele><time>2026-04-12T08:16:55.002Z</time></trkpt><trkpt lat="45.6066174" lon="9.4358401"><ele>199.0</ele><time>2026-04-12T08:16:57.002Z</time></trkpt><trkpt lat="45.6065749" lon="9.4359637"><ele>198.0</ele><time>2026-04-12T08:16:59.002Z</time></trkpt><trkpt lat="45.6065288" lon="9.4360866"><ele>197.0</ele><time>2026-04-12T08:17:01.002Z</time></trkpt><trkpt lat="45.6064815" lon="9.4362114"><ele>196.0</ele><time>2026-04-12T08:17:03.001Z</time></trkpt><trkpt lat="45.6064386" lon="9.436327"><ele>195.0</ele><time>2026-04-12T08:17:05.001Z</time></trkpt><trkpt lat="45.6063974" lon="9.4364591"><ele>195.0</ele><time>2026-04-12T08:17:07.001Z</time></trkpt><trkpt lat="45.6063479" lon="9.4365879"><ele>195.0</ele><time>2026-04-12T08:17:09.002Z</time></trkpt><trkpt lat="45.6062949" lon="9.4367127"><ele>195.0</ele><time>2026-04-12T08:17:11.002Z</time></trkpt><trkpt lat="45.60624" lon="9.4368391"><ele>195.0</ele><time>2026-04-12T08:17:13.002Z</time></trkpt><trkpt lat="45.6061812" lon="9.4369521"><ele>195.0</ele><time>2026-04-12T08:17:15.001Z</time></trkpt><trkpt lat="45.6061178" lon="9.437036"><ele>195.0</ele><time>2026-04-12T08:17:17.002Z</time></trkpt><trkpt lat="45.6060284" lon="9.4371151"><ele>195.0</ele><time>2026-04-12T08:17:19.002Z</time></trkpt><trkpt lat="45.6059312" lon="9.4371407"><ele>195.0</ele><time>2026-04-12T08:17:21.002Z</time></trkpt><trkpt lat="45.6058365" lon="9.437188"><ele>195.0</ele><time>2026-04-12T08:17:23.002Z</time></trkpt><trkpt lat="45.6057701" lon="9.4372874"><ele>195.0</ele><time>2026-04-12T08:17:25.001Z</time></trkpt><trkpt lat="45.605731" lon="9.4374136"><ele>195.0</ele><time>2026-04-12T08:17:27.002Z</time></trkpt><trkpt lat="45.6057044" lon="9.4375454"><ele>195.0</ele><time>2026-04-12T08:17:29.002Z</time></trkpt><trkpt lat="45.60568" lon="9.4376813"><ele>195.0</ele><time>2026-04-12T08:17:31.002Z</time></trkpt><trkpt lat="45.605656" lon="9.4378188"><ele>195.0</ele><time>2026-04-12T08:17:33.002Z</time></trkpt><trkpt lat="45.6056322" lon="9.437956"><ele>195.0</ele><time>2026-04-12T08:17:35.002Z</time></trkpt><trkpt lat="45.6056025" lon="9.4380858"><ele>194.83333333333334</ele><time>2026-04-12T08:17:37.002Z</time></trkpt><trkpt lat="45.6055796" lon="9.4382173"><ele>194.66666666666669</ele><time>2026-04-12T08:17:39.002Z</time></trkpt><trkpt lat="45.6055566" lon="9.4383411"><ele>194.5</ele><time>2026-04-12T08:17:41.001Z</time></trkpt><trkpt lat="45.6055415" lon="9.4384515"><ele>194.33333333333334</ele><time>2026-04-12T08:17:43.002Z</time></trkpt><trkpt lat="45.6054857" lon="9.4385013"><ele>194.16666666666669</ele><time>2026-04-12T08:17:45.002Z</time></trkpt><trkpt lat="45.6054146" lon="9.4385085"><ele>194.0</ele><time>2026-04-12T08:17:47.001Z</time></trkpt><trkpt lat="45.6053364" lon="9.4384818"><ele>194.0</ele><time>2026-04-12T08:17:49.002Z</time></trkpt><trkpt lat="45.6052523" lon="9.4384573"><ele>194.0</ele><time>2026-04-12T08:17:51.002Z</time></trkpt><trkpt lat="45.6051667" lon="9.4384245"><ele>194.0</ele><time>2026-04-12T08:17:53.002Z</time></trkpt><trkpt lat="45.6050769" lon="9.4383904"><ele>194.0</ele><time>2026-04-12T08:17:55.001Z</time></trkpt><trkpt lat="45.6049854" lon="9.4383566"><ele>194.0</ele><time>2026-04-12T08:17:57.002Z</time></trkpt><trkpt lat="45.6048856" lon="9.4383242"><ele>194.0</ele><time>2026-04-12T08:17:59.002Z</time></trkpt><trkpt lat="45.6047853" lon="9.438297"><ele>194.0</ele><time>2026-04-12T08:18:01.002Z</time></trkpt><trkpt lat="45.6046874" lon="9.4382612"><ele>194.0</ele><time>2026-04-12T08:18:03.002Z</time></trkpt><trkpt lat="45.6045864" lon="9.4382264"><ele>194.0</ele><time>2026-04-12T08:18:05.001Z</time></trkpt><trkpt lat="45.6044863" lon="9.4381891"><ele>194.0</ele><time>2026-04-12T08:18:07.001Z</time></trkpt><trkpt lat="45.604386" lon="9.4381503"><ele>193.79999999999998</ele><time>2026-04-12T08:18:09.001Z</time></trkpt><trkpt lat="45.6042833" lon="9.4381131"><ele>193.6</ele><time>2026-04-12T08:18:11.002Z</time></trkpt><trkpt lat="45.6041793" lon="9.4380797"><ele>193.4</ele><time>2026-04-12T08:18:13.002Z</time></trkpt><trkpt lat="45.6040793" lon="9.4380448"><ele>193.2</ele><time>2026-04-12T08:18:15.001Z</time></trkpt><trkpt lat="45.6039743" lon="9.4380183"><ele>193.0</ele><time>2026-04-12T08:18:17.002Z</time></trkpt><trkpt lat="45.6038649" lon="9.4379936"><ele>193.0</ele><time>2026-04-12T08:18:19.002Z</time></trkpt><trkpt lat="45.6037565" lon="9.4379709"><ele>193.0</ele><time>2026-04-12T08:18:21.002Z</time></trkpt><trkpt lat="45.6036473" lon="9.4379541"><ele>193.0</ele><time>2026-04-12T08:18:23.002Z</time></trkpt><trkpt lat="45.6035392" lon="9.4379463"><ele>193.0</ele><time>2026-04-12T08:18:25.002Z</time></trkpt><trkpt lat="45.6034283" lon="9.4379329"><ele>193.0</ele><time>2026-04-12T08:18:27.002Z</time></trkpt><trkpt lat="45.6033172" lon="9.4379201"><ele>193.0</ele><time>2026-04-12T08:18:29.002Z</time></trkpt><trkpt lat="45.6032051" lon="9.4379095"><ele>193.0</ele><time>2026-04-12T08:18:31.002Z</time></trkpt><trkpt lat="45.6030941" lon="9.4379012"><ele>193.0</ele><time>2026-04-12T08:18:33.002Z</time></trkpt><trkpt lat="45.6029853" lon="9.4378921"><ele>193.0</ele><time>2026-04-12T08:18:35.002Z</time></trkpt><trkpt lat="45.6028732" lon="9.4378813"><ele>193.0</ele><time>2026-04-12T08:18:37.002Z</time></trkpt><trkpt lat="45.6027582" lon="9.4378705"><ele>193.0</ele><time>2026-04-12T08:18:39.001Z</time></trkpt><trkpt lat="45.6026508" lon="9.4378534"><ele>193.0</ele><time>2026-04-12T08:18:41.002Z</time></trkpt><trkpt lat="45.6025457" lon="9.4378357"><ele>193.0</ele><time>2026-04-12T08:18:43.001Z</time></trkpt><trkpt lat="45.6024387" lon="9.4378224"><ele>193.0</ele><time>2026-04-12T08:18:45.002Z</time></trkpt><trkpt lat="45.6023363" lon="9.437816"><ele>193.0</ele><time>2026-04-12T08:18:47.002Z</time></trkpt><trkpt lat="45.6022306" lon="9.4378144"><ele>193.0</ele><time>2026-04-12T08:18:49.002Z</time></trkpt><trkpt lat="45.6021262" lon="9.4377985"><ele>193.0</ele><time>2026-04-12T08:18:51.002Z</time></trkpt><trkpt lat="45.6020235" lon="9.4377703"><ele>193.0</ele><time>2026-04-12T08:18:53.002Z</time></trkpt><trkpt lat="45.601923" lon="9.4377534"><ele>193.0</ele><time>2026-04-12T08:18:55.001Z</time></trkpt><trkpt lat="45.6018209" lon="9.4377364"><ele>193.0</ele><time>2026-04-12T08:18:57.002Z</time></trkpt><trkpt lat="45.6017169" lon="9.4377424"><ele>193.0</ele><time>2026-04-12T08:18:59.002Z</time></trkpt><trkpt lat="45.6016174" lon="9.4377161"><ele>193.0</ele><time>2026-04-12T08:19:01.002Z</time></trkpt><trkpt lat="45.6015276" lon="9.4377179"><ele>193.0</ele><time>2026-04-12T08:19:03.002Z</time></trkpt><trkpt lat="45.6014308" lon="9.4377116"><ele>193.0</ele><time>2026-04-12T08:19:05.002Z</time></trkpt><trkpt lat="45.6013312" lon="9.4376994"><ele>193.0</ele><time>2026-04-12T08:19:07.002Z</time></trkpt><trkpt lat="45.6012309" lon="9.4376822"><ele>192.8</ele><time>2026-04-12T08:19:09.001Z</time></trkpt><trkpt lat="45.6011259" lon="9.437667"><ele>192.60000000000002</ele><time>2026-04-12T08:19:11.002Z</time></trkpt><trkpt lat="45.6010183" lon="9.4376596"><ele>192.39999999999998</ele><time>2026-04-12T08:19:13.002Z</time></trkpt><trkpt lat="45.6009062" lon="9.4376481"><ele>192.2</ele><time>2026-04-12T08:19:15.001Z</time></trkpt><trkpt lat="45.6007974" lon="9.43763"><ele>192.0</ele><time>2026-04-12T08:19:17.001Z</time></trkpt><trkpt lat="45.6006855" lon="9.4376251"><ele>192.0</ele><time>2026-04-12T08:19:19.001Z</time></trkpt><trkpt lat="45.6005756" lon="9.4376159"><ele>192.0</ele><time>2026-04-12T08:19:21.001Z</time></trkpt><trkpt lat="45.6004579" lon="9.4376153"><ele>192.0</ele><time>2026-04-12T08:19:23.002Z</time></trkpt><trkpt lat="45.6003415" lon="9.4376234"><ele>192.0</ele><time>2026-04-12T08:19:25.001Z</time></trkpt><trkpt lat="45.6002214" lon="9.43763"><ele>191.75</ele><time>2026-04-12T08:19:27.002Z</time></trkpt><trkpt lat="45.6001054" lon="9.4376422"><ele>191.5</ele><time>2026-04-12T08:19:29.002Z</time></trkpt><trkpt lat="45.5999883" lon="9.437662"><ele>191.25</ele><time>2026-04-12T08:19:31.001Z</time></trkpt><trkpt lat="45.5998735" lon="9.4376727"><ele>191.0</ele><time>2026-04-12T08:19:33.002Z</time></trkpt><trkpt lat="45.5997581" lon="9.437687"><ele>191.0</ele><time>2026-04-12T08:19:35.002Z</time></trkpt><trkpt lat="45.5996491" lon="9.4376924"><ele>191.0</ele><time>2026-04-12T08:19:37.002Z</time></trkpt><trkpt lat="45.5995408" lon="9.4377069"><ele>191.0</ele><time>2026-04-12T08:19:39.002Z</time></trkpt><trkpt lat="45.5994395" lon="9.4377135"><ele>191.0</ele><time>2026-04-12T08:19:41.002Z</time></trkpt><trkpt lat="45.5993469" lon="9.4377171"><ele>191.0</ele><time>2026-04-12T08:19:43.002Z</time></trkpt><trkpt lat="45.5992466" lon="9.4377196"><ele>190.83333333333331</ele><time>2026-04-12T08:19:45.002Z</time></trkpt><trkpt lat="45.5991464" lon="9.4377326"><ele>190.66666666666666</ele><time>2026-04-12T08:19:47.001Z</time></trkpt><trkpt lat="45.5990579" lon="9.4377517"><ele>190.5</ele><time>2026-04-12T08:19:49.001Z</time></trkpt><trkpt lat="45.5989675" lon="9.4377596"><ele>190.33333333333334</ele><time>2026-04-12T08:19:51.001Z</time></trkpt><trkpt lat="45.5988928" lon="9.437767"><ele>190.16666666666669</ele><time>2026-04-12T08:19:53.002Z</time></trkpt><trkpt lat="45.5988285" lon="9.4377824"><ele>190.0</ele><time>2026-04-12T08:19:56.002Z</time></trkpt><trkpt lat="45.5987688" lon="9.4378531"><ele>190.0</ele><time>2026-04-12T08:20:00.002Z</time></trkpt><trkpt lat="45.5987374" lon="9.4379402"><ele>190.0</ele><time>2026-04-12T08:20:07.002Z</time></trkpt><trkpt lat="45.5987258" lon="9.4380335"><ele>190.0</ele><time>2026-04-12T08:20:09.002Z</time></trkpt><trkpt lat="45.5987313" lon="9.438141"><ele>190.0</ele><time>2026-04-12T08:20:11.002Z</time></trkpt><trkpt lat="45.5987409" lon="9.4382669"><ele>190.0</ele><time>2026-04-12T08:20:13.002Z</time></trkpt><trkpt lat="45.598743" lon="9.4384096"><ele>190.0</ele><time>2026-04-12T08:20:15.002Z</time></trkpt><trkpt lat="45.5987492" lon="9.4385618"><ele>190.0</ele><time>2026-04-12T08:20:17.002Z</time></trkpt><trkpt lat="45.5987549" lon="9.4387243"><ele>190.0</ele><time>2026-04-12T08:20:19.002Z</time></trkpt><trkpt lat="45.5987402" lon="9.4388837"><ele>190.0</ele><time>2026-04-12T08:20:21.002Z</time></trkpt><trkpt lat="45.5987383" lon="9.4390376"><ele>190.0</ele><time>2026-04-12T08:20:23.001Z</time></trkpt><trkpt lat="45.5987371" lon="9.4391924"><ele>190.0</ele><time>2026-04-12T08:20:25.002Z</time></trkpt><trkpt lat="45.5987366" lon="9.4393315"><ele>190.16666666666669</ele><time>2026-04-12T08:20:27.001Z</time></trkpt><trkpt lat="45.5987409" lon="9.4394371"><ele>190.33333333333334</ele><time>2026-04-12T08:20:29.002Z</time></trkpt><trkpt lat="45.5987518" lon="9.4395449"><ele>190.5</ele><time>2026-04-12T08:20:31.001Z</time></trkpt><trkpt lat="45.5987621" lon="9.4396446"><ele>190.66666666666666</ele><time>2026-04-12T08:20:33.002Z</time></trkpt><trkpt lat="45.5987668" lon="9.4397455"><ele>190.83333333333331</ele><time>2026-04-12T08:20:36.001Z</time></trkpt><trkpt lat="45.5986832" lon="9.4397744"><ele>191.0</ele><time>2026-04-12T08:20:39.001Z</time></trkpt><trkpt lat="45.5986057" lon="9.439799"><ele>192.0</ele><time>2026-04-12T08:20:41.002Z</time></trkpt><trkpt lat="45.5985036" lon="9.4398428"><ele>193.0</ele><time>2026-04-12T08:20:43.002Z</time></trkpt><trkpt lat="45.5984104" lon="9.4398742"><ele>194.0</ele><time>2026-04-12T08:20:45.001Z</time></trkpt><trkpt lat="45.598315" lon="9.439911"><ele>195.0</ele><time>2026-04-12T08:20:47.002Z</time></trkpt><trkpt lat="45.598215" lon="9.43994"><ele>196.0</ele><time>2026-04-12T08:20:49.002Z</time></trkpt><trkpt lat="45.5981152" lon="9.439979"><ele>196.0</ele><time>2026-04-12T08:20:51.001Z</time></trkpt><trkpt lat="45.5980123" lon="9.4400204"><ele>196.0</ele><time>2026-04-12T08:20:53.001Z</time></trkpt><trkpt lat="45.5979151" lon="9.4400693"><ele>196.0</ele><time>2026-04-12T08:20:55.001Z</time></trkpt><trkpt lat="45.5978105" lon="9.4401013"><ele>196.0</ele><time>2026-04-12T08:20:57.002Z</time></trkpt><trkpt lat="45.5977168" lon="9.4401533"><ele>196.0</ele><time>2026-04-12T08:20:59.001Z</time></trkpt><trkpt lat="45.5976131" lon="9.4401774"><ele>195.0</ele><time>2026-04-12T08:21:01.002Z</time></trkpt><trkpt lat="45.5975126" lon="9.4402231"><ele>194.0</ele><time>2026-04-12T08:21:03.001Z</time></trkpt><trkpt lat="45.5974113" lon="9.4402629"><ele>193.0</ele><time>2026-04-12T08:21:05.002Z</time></trkpt><trkpt lat="45.5973005" lon="9.4403131"><ele>192.0</ele><time>2026-04-12T08:21:07.002Z</time></trkpt><trkpt lat="45.597193" lon="9.4403613"><ele>191.0</ele><time>2026-04-12T08:21:09.002Z</time></trkpt><trkpt lat="45.5970919" lon="9.4404001"><ele>191.20000000000002</ele><time>2026-04-12T08:21:11.001Z</time></trkpt><trkpt lat="45.5969834" lon="9.4404537"><ele>191.4</ele><time>2026-04-12T08:21:13.002Z</time></trkpt><trkpt lat="45.5968691" lon="9.440471"><ele>191.6</ele><time>2026-04-12T08:21:15.001Z</time></trkpt><trkpt lat="45.5967788" lon="9.4404117"><ele>191.8</ele><time>2026-04-12T08:21:17.002Z</time></trkpt><trkpt lat="45.5966898" lon="9.4403741"><ele>192.0</ele><time>2026-04-12T08:21:19.002Z</time></trkpt><trkpt lat="45.5965981" lon="9.4403495"><ele>192.0</ele><time>2026-04-12T08:21:21.001Z</time></trkpt><trkpt lat="45.5965143" lon="9.4403476"><ele>192.0</ele><time>2026-04-12T08:21:23.002Z</time></trkpt><trkpt lat="45.5964286" lon="9.4403925"><ele>192.0</ele><time>2026-04-12T08:21:25.002Z</time></trkpt><trkpt lat="45.5963417" lon="9.4404742"><ele>192.0</ele><time>2026-04-12T08:21:27.001Z</time></trkpt><trkpt lat="45.5962465" lon="9.4405494"><ele>192.0</ele><time>2026-04-12T08:21:29.002Z</time></trkpt><trkpt lat="45.5961545" lon="9.4406222"><ele>192.6</ele><time>2026-04-12T08:21:31.002Z</time></trkpt><trkpt lat="45.5960572" lon="9.4406896"><ele>193.2</ele><time>2026-04-12T08:21:33.002Z</time></trkpt><trkpt lat="45.5959596" lon="9.4407399"><ele>193.8</ele><time>2026-04-12T08:21:35.002Z</time></trkpt><trkpt lat="45.5958555" lon="9.440778"><ele>194.4</ele><time>2026-04-12T08:21:37.001Z</time></trkpt><trkpt lat="45.5957532" lon="9.4408306"><ele>195.0</ele><time>2026-04-12T08:21:39.001Z</time></trkpt><trkpt lat="45.5956549" lon="9.4409118"><ele>195.0</ele><time>2026-04-12T08:21:41.002Z</time></trkpt><trkpt lat="45.5955641" lon="9.4409956"><ele>195.0</ele><time>2026-04-12T08:21:43.002Z</time></trkpt><trkpt lat="45.595504" lon="9.4410502"><ele>195.0</ele><time>2026-04-12T08:21:44.002Z</time></trkpt><trkpt lat="45.5954128" lon="9.4411213"><ele>195.0</ele><time>2026-04-12T08:21:46.001Z</time></trkpt><trkpt lat="45.5953525" lon="9.4411562"><ele>195.0</ele><time>2026-04-12T08:21:47.002Z</time></trkpt><trkpt lat="45.5952901" lon="9.4412163"><ele>195.0</ele><time>2026-04-12T08:21:48.001Z</time></trkpt><trkpt lat="45.5952056" lon="9.4413374"><ele>194.28571428571428</ele><time>2026-04-12T08:21:50.002Z</time></trkpt><trkpt lat="45.5951549" lon="9.4413984"><ele>193.57142857142856</ele><time>2026-04-12T08:21:51.001Z</time></trkpt><trkpt lat="45.5951071" lon="9.4414676"><ele>192.85714285714286</ele><time>2026-04-12T08:21:52.002Z</time></trkpt><trkpt lat="45.5950546" lon="9.4415444"><ele>192.14285714285714</ele><time>2026-04-12T08:21:53.002Z</time></trkpt><trkpt lat="45.5950042" lon="9.4416193"><ele>191.42857142857144</ele><time>2026-04-12T08:21:54.002Z</time></trkpt><trkpt lat="45.5949558" lon="9.4416818"><ele>190.71428571428572</ele><time>2026-04-12T08:21:55.002Z</time></trkpt><trkpt lat="45.5948898" lon="9.4417225"><ele>190.0</ele><time>2026-04-12T08:21:56.001Z</time></trkpt><trkpt lat="45.5948294" lon="9.4417614"><ele>190.0</ele><time>2026-04-12T08:21:57.001Z</time></trkpt><trkpt lat="45.594764" lon="9.4417866"><ele>190.0</ele><time>2026-04-12T08:21:58.002Z</time></trkpt><trkpt lat="45.5947006" lon="9.4418223"><ele>190.0</ele><time>2026-04-12T08:21:59.002Z</time></trkpt><trkpt lat="45.5946371" lon="9.4418245"><ele>190.0</ele><time>2026-04-12T08:22:00.002Z</time></trkpt><trkpt lat="45.5945305" lon="9.4418209"><ele>190.0</ele><time>2026-04-12T08:22:02.001Z</time></trkpt><trkpt lat="45.5944405" lon="9.4418235"><ele>190.0</ele><time>2026-04-12T08:22:05.002Z</time></trkpt><trkpt lat="45.5943653" lon="9.4418937"><ele>190.0</ele><time>2026-04-12T08:22:08.002Z</time></trkpt><trkpt lat="45.5943001" lon="9.4419764"><ele>190.0</ele><time>2026-04-12T08:22:10.002Z</time></trkpt><trkpt lat="45.594218" lon="9.4420712"><ele>190.0</ele><time>2026-04-12T08:22:12.002Z</time></trkpt><trkpt lat="45.5941356" lon="9.4421694"><ele>190.0</ele><time>2026-04-12T08:22:14.002Z</time></trkpt><trkpt lat="45.594061" lon="9.4422707"><ele>190.0</ele><time>2026-04-12T08:22:16.002Z</time></trkpt><trkpt lat="45.5939733" lon="9.4423547"><ele>189.2</ele><time>2026-04-12T08:22:18.002Z</time></trkpt><trkpt lat="45.5938841" lon="9.4424485"><ele>188.4</ele><time>2026-04-12T08:22:20.001Z</time></trkpt><trkpt lat="45.5937873" lon="9.4424984"><ele>187.60000000000002</ele><time>2026-04-12T08:22:22.002Z</time></trkpt><trkpt lat="45.5936959" lon="9.442536"><ele>186.8</ele><time>2026-04-12T08:22:24.002Z</time></trkpt><trkpt lat="45.5936232" lon="9.4425833"><ele>186.0</ele><time>2026-04-12T08:22:26.002Z</time></trkpt><trkpt lat="45.5935347" lon="9.4426431"><ele>186.0</ele><time>2026-04-12T08:22:28.001Z</time></trkpt><trkpt lat="45.5934419" lon="9.4427239"><ele>186.0</ele><time>2026-04-12T08:22:30.002Z</time></trkpt><trkpt lat="45.5933612" lon="9.4428247"><ele>186.0</ele><time>2026-04-12T08:22:32.002Z</time></trkpt><trkpt lat="45.5933241" lon="9.4428981"><ele>186.0</ele><time>2026-04-12T08:22:33.002Z</time></trkpt><trkpt lat="45.5932342" lon="9.4429867"><ele>186.0</ele><time>2026-04-12T08:22:35.001Z</time></trkpt><trkpt lat="45.5931372" lon="9.4430373"><ele>184.8</ele><time>2026-04-12T08:22:37.002Z</time></trkpt><trkpt lat="45.5930328" lon="9.4430563"><ele>183.60000000000002</ele><time>2026-04-12T08:22:39.002Z</time></trkpt><trkpt lat="45.5929293" lon="9.4430948"><ele>182.4</ele><time>2026-04-12T08:22:41.002Z</time></trkpt><trkpt lat="45.5928328" lon="9.4431253"><ele>181.2</ele><time>2026-04-12T08:22:43.001Z</time></trkpt><trkpt lat="45.5927248" lon="9.4431685"><ele>180.0</ele><time>2026-04-12T08:22:45.001Z</time></trkpt><trkpt lat="45.5926089" lon="9.4432059"><ele>179.5</ele><time>2026-04-12T08:22:47.002Z</time></trkpt><trkpt lat="45.5925011" lon="9.4432583"><ele>179.0</ele><time>2026-04-12T08:22:49.002Z</time></trkpt><trkpt lat="45.5923926" lon="9.4433126"><ele>178.5</ele><time>2026-04-12T08:22:51.002Z</time></trkpt><trkpt lat="45.5922927" lon="9.4433821"><ele>178.0</ele><time>2026-04-12T08:22:53.002Z</time></trkpt><trkpt lat="45.5921934" lon="9.4434515"><ele>178.0</ele><time>2026-04-12T08:22:55.001Z</time></trkpt><trkpt lat="45.5920924" lon="9.4435186"><ele>178.0</ele><time>2026-04-12T08:22:57.002Z</time></trkpt><trkpt lat="45.5919994" lon="9.4435447"><ele>178.0</ele><time>2026-04-12T08:22:59.002Z</time></trkpt><trkpt lat="45.591931" lon="9.4435781"><ele>178.0</ele><time>2026-04-12T08:23:01.002Z</time></trkpt><trkpt lat="45.5918958" lon="9.4437183"><ele>178.0</ele><time>2026-04-12T08:23:03.001Z</time></trkpt><trkpt lat="45.5918442" lon="9.4438473"><ele>178.0</ele><time>2026-04-12T08:23:05.002Z</time></trkpt><trkpt lat="45.591771" lon="9.4439574"><ele>178.0</ele><time>2026-04-12T08:23:07.001Z</time></trkpt><trkpt lat="45.5917028" lon="9.4440815"><ele>178.0</ele><time>2026-04-12T08:23:09.001Z</time></trkpt><trkpt lat="45.5916959" lon="9.4442074"><ele>178.0</ele><time>2026-04-12T08:23:11.001Z</time></trkpt><trkpt lat="45.591699" lon="9.4443485"><ele>178.0</ele><time>2026-04-12T08:23:13.002Z</time></trkpt><trkpt lat="45.5916321" lon="9.4444415"><ele>178.0</ele><time>2026-04-12T08:23:15.002Z</time></trkpt><trkpt lat="45.5915744" lon="9.4445355"><ele>178.0</ele><time>2026-04-12T08:23:17.002Z</time></trkpt><trkpt lat="45.591529" lon="9.4446636"><ele>178.0</ele><time>2026-04-12T08:23:19.001Z</time></trkpt><trkpt lat="45.5914638" lon="9.4447672"><ele>178.0</ele><time>2026-04-12T08:23:21.001Z</time></trkpt><trkpt lat="45.5913927" lon="9.4448609"><ele>178.0</ele><time>2026-04-12T08:23:23.001Z</time></trkpt><trkpt lat="45.5913086" lon="9.4449096"><ele>178.0</ele><time>2026-04-12T08:23:25.001Z</time></trkpt><trkpt lat="45.5912215" lon="9.4449578"><ele>178.0</ele><time>2026-04-12T08:23:27.002Z</time></trkpt><trkpt lat="45.5911508" lon="9.4450302"><ele>178.0</ele><time>2026-04-12T08:23:29.002Z</time></trkpt><trkpt lat="45.5910764" lon="9.4451143"><ele>178.0</ele><time>2026-04-12T08:23:31.002Z</time></trkpt><trkpt lat="45.590985" lon="9.4451448"><ele>178.0</ele><time>2026-04-12T08:23:33.001Z</time></trkpt><trkpt lat="45.5909085" lon="9.4451533"><ele>178.0</ele><time>2026-04-12T08:23:35.001Z</time></trkpt><trkpt lat="45.5908219" lon="9.4451805"><ele>178.28571428571428</ele><time>2026-04-12T08:23:37.002Z</time></trkpt><trkpt lat="45.5907352" lon="9.4451983"><ele>178.57142857142856</ele><time>2026-04-12T08:23:39.002Z</time></trkpt><trkpt lat="45.5906754" lon="9.4451623"><ele>178.85714285714283</ele><time>2026-04-12T08:23:41.002Z</time></trkpt><trkpt lat="45.5906076" lon="9.4450991"><ele>179.14285714285714</ele><time>2026-04-12T08:23:44.001Z</time></trkpt><trkpt lat="45.5905542" lon="9.4450504"><ele>179.42857142857144</ele><time>2026-04-12T08:23:47.002Z</time></trkpt><trkpt lat="45.590508" lon="9.4449468"><ele>179.7142857142857</ele><time>2026-04-12T08:23:51.002Z</time></trkpt><trkpt lat="45.5904891" lon="9.4448607"><ele>180.0</ele><time>2026-04-12T08:23:54.002Z</time></trkpt><trkpt lat="45.5904673" lon="9.4447555"><ele>180.0</ele><time>2026-04-12T08:23:57.001Z</time></trkpt><trkpt lat="45.5903906" lon="9.4446942"><ele>180.0</ele><time>2026-04-12T08:24:00.002Z</time></trkpt><trkpt lat="45.5903224" lon="9.4446953"><ele>180.0</ele><time>2026-04-12T08:24:02.002Z</time></trkpt><trkpt lat="45.590245" lon="9.444722"><ele>180.0</ele><time>2026-04-12T08:24:04.001Z</time></trkpt><trkpt lat="45.5901801" lon="9.4447887"><ele>180.0</ele><time>2026-04-12T08:24:06.002Z</time></trkpt><trkpt lat="45.590113" lon="9.4448362"><ele>180.0</ele><time>2026-04-12T08:24:08.002Z</time></trkpt><trkpt lat="45.590041" lon="9.4448718"><ele>180.33333333333334</ele><time>2026-04-12T08:24:10.002Z</time></trkpt><trkpt lat="45.5899667" lon="9.444904"><ele>180.66666666666666</ele><time>2026-04-12T08:24:12.002Z</time></trkpt><trkpt lat="45.589893" lon="9.4449368"><ele>181.0</ele><time>2026-04-12T08:24:14.002Z</time></trkpt><trkpt lat="45.5898211" lon="9.444967"><ele>181.33333333333331</ele><time>2026-04-12T08:24:16.001Z</time></trkpt><trkpt lat="45.5897439" lon="9.4450033"><ele>181.66666666666666</ele><time>2026-04-12T08:24:18.002Z</time></trkpt><trkpt lat="45.5896627" lon="9.4450383"><ele>182.0</ele><time>2026-04-12T08:24:20.002Z</time></trkpt><trkpt lat="45.5895797" lon="9.4450804"><ele>181.6</ele><time>2026-04-12T08:24:22.001Z</time></trkpt><trkpt lat="45.5894921" lon="9.445119"><ele>181.2</ele><time>2026-04-12T08:24:24.002Z</time></trkpt><trkpt lat="45.5894038" lon="9.4451565"><ele>180.8</ele><time>2026-04-12T08:24:26.001Z</time></trkpt><trkpt lat="45.589321" lon="9.4451902"><ele>180.4</ele><time>2026-04-12T08:24:28.001Z</time></trkpt><trkpt lat="45.5892381" lon="9.4452339"><ele>180.0</ele><time>2026-04-12T08:24:30.002Z</time></trkpt><trkpt lat="45.5891475" lon="9.4452851"><ele>180.0</ele><time>2026-04-12T08:24:32.002Z</time></trkpt><trkpt lat="45.5890493" lon="9.4453368"><ele>180.0</ele><time>2026-04-12T08:24:34.002Z</time></trkpt><trkpt lat="45.5889587" lon="9.4453799"><ele>180.0</ele><time>2026-04-12T08:24:36.002Z</time></trkpt><trkpt lat="45.5888672" lon="9.4454235"><ele>180.0</ele><time>2026-04-12T08:24:38.002Z</time></trkpt><trkpt lat="45.5887808" lon="9.4454706"><ele>180.0</ele><time>2026-04-12T08:24:40.002Z</time></trkpt><trkpt lat="45.5887045" lon="9.4455098"><ele>179.66666666666666</ele><time>2026-04-12T08:24:42.001Z</time></trkpt><trkpt lat="45.5886353" lon="9.4455481"><ele>179.33333333333334</ele><time>2026-04-12T08:24:44.002Z</time></trkpt><trkpt lat="45.5885761" lon="9.4456401"><ele>179.0</ele><time>2026-04-12T08:24:47.001Z</time></trkpt><trkpt lat="45.5885851" lon="9.4457428"><ele>178.66666666666669</ele><time>2026-04-12T08:24:49.002Z</time></trkpt><trkpt lat="45.5886095" lon="9.4458398"><ele>178.33333333333334</ele><time>2026-04-12T08:24:51.002Z</time></trkpt><trkpt lat="45.5886328" lon="9.4459465"><ele>178.0</ele><time>2026-04-12T08:24:53.002Z</time></trkpt><trkpt lat="45.5886586" lon="9.4460525"><ele>178.0</ele><time>2026-04-12T08:24:55.001Z</time></trkpt><trkpt lat="45.5886656" lon="9.4461598"><ele>178.0</ele><time>2026-04-12T08:24:57.002Z</time></trkpt><trkpt lat="45.5886186" lon="9.4462385"><ele>178.0</ele><time>2026-04-12T08:24:59.002Z</time></trkpt><trkpt lat="45.5885458" lon="9.4462693"><ele>178.0</ele><time>2026-04-12T08:25:01.002Z</time></trkpt><trkpt lat="45.588475" lon="9.4462848"><ele>178.0</ele><time>2026-04-12T08:25:03.002Z</time></trkpt><trkpt lat="45.5884084" lon="9.4463215"><ele>178.0</ele><time>2026-04-12T08:25:06.002Z</time></trkpt><trkpt lat="45.5883351" lon="9.4463987"><ele>177.5</ele><time>2026-04-12T08:25:09.001Z</time></trkpt><trkpt lat="45.5882682" lon="9.4464574"><ele>177.0</ele><time>2026-04-12T08:25:12.002Z</time></trkpt><trkpt lat="45.5882043" lon="9.4464702"><ele>176.5</ele><time>2026-04-12T08:25:15.001Z</time></trkpt><trkpt lat="45.5882485" lon="9.4466149"><ele>176.0</ele><time>2026-04-12T08:25:19.002Z</time></trkpt><trkpt lat="45.5882847" lon="9.4467406"><ele>175.5</ele><time>2026-04-12T08:25:22.001Z</time></trkpt><trkpt lat="45.5882412" lon="9.4468136"><ele>175.0</ele><time>2026-04-12T08:25:25.002Z</time></trkpt><trkpt lat="45.5881668" lon="9.4468192"><ele>175.0</ele><time>2026-04-12T08:25:27.002Z</time></trkpt><trkpt lat="45.5880802" lon="9.446806"><ele>175.0</ele><time>2026-04-12T08:25:29.002Z</time></trkpt><trkpt lat="45.5879911" lon="9.4468507"><ele>175.0</ele><time>2026-04-12T08:25:31.001Z</time></trkpt><trkpt lat="45.5879071" lon="9.4468281"><ele>175.0</ele><time>2026-04-12T08:25:33.002Z</time></trkpt><trkpt lat="45.5878128" lon="9.4468593"><ele>175.0</ele><time>2026-04-12T08:25:35.002Z</time></trkpt><trkpt lat="45.5877162" lon="9.4468443"><ele>175.5</ele><time>2026-04-12T08:25:37.001Z</time></trkpt><trkpt lat="45.5876259" lon="9.446802"><ele>176.0</ele><time>2026-04-12T08:25:39.002Z</time></trkpt><trkpt lat="45.5875434" lon="9.4467494"><ele>176.5</ele><time>2026-04-12T08:25:41.001Z</time></trkpt><trkpt lat="45.5874486" lon="9.4467554"><ele>177.0</ele><time>2026-04-12T08:25:44.002Z</time></trkpt><trkpt lat="45.5873741" lon="9.4467576"><ele>177.5</ele><time>2026-04-12T08:25:46.002Z</time></trkpt><trkpt lat="45.587286" lon="9.4467608"><ele>178.0</ele><time>2026-04-12T08:25:49.002Z</time></trkpt><trkpt lat="45.5872026" lon="9.4468229"><ele>178.0</ele><time>2026-04-12T08:25:52.002Z</time></trkpt><trkpt lat="45.5871375" lon="9.4468677"><ele>178.0</ele><time>2026-04-12T08:25:54.002Z</time></trkpt><trkpt lat="45.5870627" lon="9.446947"><ele>178.0</ele><time>2026-04-12T08:25:57.002Z</time></trkpt><trkpt lat="45.5869967" lon="9.4469926"><ele>178.0</ele><time>2026-04-12T08:25:59.002Z</time></trkpt><trkpt lat="45.5869217" lon="9.4470739"><ele>178.0</ele><time>2026-04-12T08:26:02.002Z</time></trkpt><trkpt lat="45.5868493" lon="9.4471375"><ele>178.0</ele><time>2026-04-12T08:26:05.002Z</time></trkpt><trkpt lat="45.5867863" lon="9.4471868"><ele>177.57142857142856</ele><time>2026-04-12T08:26:08.001Z</time></trkpt><trkpt lat="45.586715" lon="9.4472246"><ele>177.14285714285714</ele><time>2026-04-12T08:26:12.002Z</time></trkpt><trkpt lat="45.5866522" lon="9.4472581"><ele>176.71428571428572</ele><time>2026-04-12T08:26:14.001Z</time></trkpt><trkpt lat="45.5865809" lon="9.447274"><ele>176.28571428571428</ele><time>2026-04-12T08:26:16.001Z</time></trkpt><trkpt lat="45.5865041" lon="9.4473043"><ele>175.85714285714286</ele><time>2026-04-12T08:26:18.002Z</time></trkpt><trkpt lat="45.5864304" lon="9.4472968"><ele>175.42857142857142</ele><time>2026-04-12T08:26:21.002Z</time></trkpt><trkpt lat="45.5863553" lon="9.4473344"><ele>175.0</ele><time>2026-04-12T08:26:27.001Z</time></trkpt><trkpt lat="45.5863214" lon="9.4474111"><ele>175.0</ele><time>2026-04-12T08:26:31.002Z</time></trkpt><trkpt lat="45.5863572" lon="9.4474988"><ele>175.0</ele><time>2026-04-12T08:26:34.001Z</time></trkpt><trkpt lat="45.5864113" lon="9.447573"><ele>175.0</ele><time>2026-04-12T08:26:37.002Z</time></trkpt><trkpt lat="45.5864546" lon="9.4476383"><ele>175.0</ele><time>2026-04-12T08:26:40.002Z</time></trkpt><trkpt lat="45.5864969" lon="9.4477123"><ele>175.0</ele><time>2026-04-12T08:26:44.002Z</time></trkpt><trkpt lat="45.5865529" lon="9.4477817"><ele>175.0</ele><time>2026-04-12T08:26:57.002Z</time></trkpt><trkpt lat="45.5866054" lon="9.4478575"><ele>175.0</ele><time>2026-04-12T08:27:01.002Z</time></trkpt><trkpt lat="45.5866522" lon="9.4479204"><ele>174.83333333333334</ele><time>2026-04-12T08:27:04.002Z</time></trkpt><trkpt lat="45.5867124" lon="9.4480004"><ele>174.66666666666669</ele><time>2026-04-12T08:27:08.001Z</time></trkpt><trkpt lat="45.5867598" lon="9.4480674"><ele>174.5</ele><time>2026-04-12T08:27:11.001Z</time></trkpt><trkpt lat="45.5868004" lon="9.4481405"><ele>174.33333333333334</ele><time>2026-04-12T08:27:14.001Z</time></trkpt><trkpt lat="45.5868578" lon="9.4482225"><ele>174.16666666666666</ele><time>2026-04-12T08:27:18.002Z</time></trkpt><trkpt lat="45.5869158" lon="9.4482992"><ele>174.0</ele><time>2026-04-12T08:27:22.002Z</time></trkpt><trkpt lat="45.5869617" lon="9.4483911"><ele>174.0</ele><time>2026-04-12T08:27:26.002Z</time></trkpt><trkpt lat="45.5870096" lon="9.4484532"><ele>174.0</ele><time>2026-04-12T08:27:29.002Z</time></trkpt><trkpt lat="45.5870498" lon="9.448523"><ele>174.0</ele><time>2026-04-12T08:27:32.002Z</time></trkpt><trkpt lat="45.5871008" lon="9.4485944"><ele>174.0</ele><time>2026-04-12T08:27:36.002Z</time></trkpt><trkpt lat="45.5871588" lon="9.4486753"><ele>174.0</ele><time>2026-04-12T08:27:40.001Z</time></trkpt><trkpt lat="45.5872034" lon="9.4487406"><ele>174.0</ele><time>2026-04-12T08:27:43.001Z</time></trkpt><trkpt lat="45.5872537" lon="9.4488107"><ele>174.0</ele><time>2026-04-12T08:27:46.001Z</time></trkpt><trkpt lat="45.5872994" lon="9.448885"><ele>174.0</ele><time>2026-04-12T08:27:49.001Z</time></trkpt><trkpt lat="45.5873426" lon="9.4489541"><ele>174.0</ele><time>2026-04-12T08:27:52.002Z</time></trkpt><trkpt lat="45.5873905" lon="9.4490179"><ele>174.0</ele><time>2026-04-12T08:27:55.002Z</time></trkpt><trkpt lat="45.5874438" lon="9.4490841"><ele>174.0</ele><time>2026-04-12T08:27:58.002Z</time></trkpt><trkpt lat="45.587499" lon="9.4491563"><ele>174.0</ele><time>2026-04-12T08:28:01.002Z</time></trkpt><trkpt lat="45.5875297" lon="9.4492434"><ele>174.0</ele><time>2026-04-12T08:28:04.002Z</time></trkpt><trkpt lat="45.5875382" lon="9.4493358"><ele>174.0</ele><time>2026-04-12T08:28:07.001Z</time></trkpt><trkpt lat="45.5875284" lon="9.4494457"><ele>174.0</ele><time>2026-04-12T08:28:10.001Z</time></trkpt><trkpt lat="45.5874697" lon="9.4495142"><ele>174.0</ele><time>2026-04-12T08:28:14.002Z</time></trkpt><trkpt lat="45.5873972" lon="9.4495179"><ele>174.0</ele><time>2026-04-12T08:28:17.001Z</time></trkpt><trkpt lat="45.5873232" lon="9.4495115"><ele>174.0</ele><time>2026-04-12T08:28:20.001Z</time></trkpt><trkpt lat="45.5872392" lon="9.4495036"><ele>174.0</ele><time>2026-04-12T08:28:23.002Z</time></trkpt><trkpt lat="45.5871523" lon="9.4494965"><ele>174.0</ele><time>2026-04-12T08:28:26.002Z</time></trkpt><trkpt lat="45.5870699" lon="9.4494685"><ele>174.28571428571428</ele><time>2026-04-12T08:28:29.002Z</time></trkpt><trkpt lat="45.5869852" lon="9.4494392"><ele>174.57142857142858</ele><time>2026-04-12T08:28:32.002Z</time></trkpt><trkpt lat="45.5868936" lon="9.4494184"><ele>174.85714285714286</ele><time>2026-04-12T08:28:35.002Z</time></trkpt><trkpt lat="45.5868253" lon="9.4494209"><ele>175.14285714285714</ele><time>2026-04-12T08:28:37.002Z</time></trkpt><trkpt lat="45.5867591" lon="9.4494205"><ele>175.42857142857142</ele><time>2026-04-12T08:28:39.001Z</time></trkpt><trkpt lat="45.5866926" lon="9.4494177"><ele>175.71428571428572</ele><time>2026-04-12T08:28:41.002Z</time></trkpt><trkpt lat="45.5866273" lon="9.4494181"><ele>176.0</ele><time>2026-04-12T08:28:43.002Z</time></trkpt><trkpt lat="45.5865384" lon="9.449414"><ele>176.0</ele><time>2026-04-12T08:28:46.002Z</time></trkpt><trkpt lat="45.5864508" lon="9.4494116"><ele>176.0</ele><time>2026-04-12T08:28:49.002Z</time></trkpt><trkpt lat="45.5863694" lon="9.4493866"><ele>176.0</ele><time>2026-04-12T08:28:52.002Z</time></trkpt><trkpt lat="45.5863081" lon="9.4493586"><ele>176.0</ele><time>2026-04-12T08:28:54.001Z</time></trkpt><trkpt lat="45.5862342" lon="9.4493114"><ele>176.0</ele><time>2026-04-12T08:28:56.002Z</time></trkpt><trkpt lat="45.5861439" lon="9.4492458"><ele>176.0</ele><time>2026-04-12T08:28:58.001Z</time></trkpt><trkpt lat="45.5860276" lon="9.4491711"><ele>176.0</ele><time>2026-04-12T08:29:00.002Z</time></trkpt><trkpt lat="45.5859675" lon="9.4491351"><ele>176.0</ele><time>2026-04-12T08:29:01.002Z</time></trkpt><trkpt lat="45.5858991" lon="9.4490828"><ele>176.0</ele><time>2026-04-12T08:29:02.001Z</time></trkpt><trkpt lat="45.5858364" lon="9.4490386"><ele>176.0</ele><time>2026-04-12T08:29:03.001Z</time></trkpt><trkpt lat="45.58578" lon="9.4489871"><ele>176.0</ele><time>2026-04-12T08:29:04.001Z</time></trkpt><trkpt lat="45.5857353" lon="9.4489177"><ele>176.0</ele><time>2026-04-12T08:29:05.001Z</time></trkpt><trkpt lat="45.5857019" lon="9.4488414"><ele>176.0</ele><time>2026-04-12T08:29:06.002Z</time></trkpt><trkpt lat="45.5856848" lon="9.4487545"><ele>175.60000000000002</ele><time>2026-04-12T08:29:07.002Z</time></trkpt><trkpt lat="45.5856676" lon="9.4485881"><ele>175.2</ele><time>2026-04-12T08:29:09.002Z</time></trkpt><trkpt lat="45.5856646" lon="9.448428"><ele>174.8</ele><time>2026-04-12T08:29:11.002Z</time></trkpt><trkpt lat="45.5856466" lon="9.4483016"><ele>174.39999999999998</ele><time>2026-04-12T08:29:13.002Z</time></trkpt><trkpt lat="45.585572" lon="9.4481917"><ele>174.0</ele><time>2026-04-12T08:29:15.002Z</time></trkpt><trkpt lat="45.5854743" lon="9.4481558"><ele>174.0</ele><time>2026-04-12T08:29:17.002Z</time></trkpt><trkpt lat="45.5853835" lon="9.4481751"><ele>174.0</ele><time>2026-04-12T08:29:19.002Z</time></trkpt><trkpt lat="45.5853183" lon="9.4481862"><ele>174.0</ele><time>2026-04-12T08:29:21.002Z</time></trkpt><trkpt lat="45.5852424" lon="9.4482096"><ele>174.0</ele><time>2026-04-12T08:29:23.002Z</time></trkpt><trkpt lat="45.5851775" lon="9.4481715"><ele>174.0</ele><time>2026-04-12T08:29:30.002Z</time></trkpt><trkpt lat="45.5851105" lon="9.4482287"><ele>174.0</ele><time>2026-04-12T08:29:33.001Z</time></trkpt><trkpt lat="45.5850607" lon="9.4483279"><ele>173.85714285714286</ele><time>2026-04-12T08:29:36.002Z</time></trkpt><trkpt lat="45.5850223" lon="9.4484355"><ele>173.71428571428572</ele><time>2026-04-12T08:29:39.002Z</time></trkpt><trkpt lat="45.5849932" lon="9.4485223"><ele>173.57142857142856</ele><time>2026-04-12T08:29:43.002Z</time></trkpt><trkpt lat="45.5849478" lon="9.4485958"><ele>173.42857142857144</ele><time>2026-04-12T08:29:47.002Z</time></trkpt><trkpt lat="45.5848887" lon="9.4486327"><ele>173.2857142857143</ele><time>2026-04-12T08:29:51.002Z</time></trkpt><trkpt lat="45.5848234" lon="9.4486267"><ele>173.14285714285714</ele><time>2026-04-12T08:30:36.002Z</time></trkpt><trkpt lat="45.5847713" lon="9.4485362"><ele>173.0</ele><time>2026-04-12T08:30:41.002Z</time></trkpt><trkpt lat="45.5847021" lon="9.4485098"><ele>173.0</ele><time>2026-04-12T08:30:43.001Z</time></trkpt><trkpt lat="45.5846261" lon="9.4484992"><ele>173.0</ele><time>2026-04-12T08:30:56.002Z</time></trkpt><trkpt lat="45.5845618" lon="9.4484839"><ele>173.0</ele><time>2026-04-12T08:31:01.002Z</time></trkpt><trkpt lat="45.5844951" lon="9.448498"><ele>173.0</ele><time>2026-04-12T08:31:07.002Z</time></trkpt><trkpt lat="45.5844344" lon="9.4485266"><ele>173.0</ele><time>2026-04-12T08:31:19.002Z</time></trkpt><trkpt lat="45.5843761" lon="9.4485746"><ele>173.0</ele><time>2026-04-12T08:31:22.001Z</time></trkpt><trkpt lat="45.5843025" lon="9.4486047"><ele>173.0</ele><time>2026-04-12T08:31:25.002Z</time></trkpt><trkpt lat="45.5842438" lon="9.4486634"><ele>173.0</ele><time>2026-04-12T08:31:28.002Z</time></trkpt><trkpt lat="45.584184" lon="9.4487301"><ele>173.0</ele><time>2026-04-12T08:31:30.001Z</time></trkpt><trkpt lat="45.5841171" lon="9.4487858"><ele>173.0</ele><time>2026-04-12T08:31:32.002Z</time></trkpt><trkpt lat="45.5840147" lon="9.4488382"><ele>173.0</ele><time>2026-04-12T08:31:34.002Z</time></trkpt><trkpt lat="45.5839359" lon="9.4488344"><ele>173.0</ele><time>2026-04-12T08:31:36.002Z</time></trkpt><trkpt lat="45.5838579" lon="9.4488105"><ele>173.0</ele><time>2026-04-12T08:31:39.002Z</time></trkpt><trkpt lat="45.5837941" lon="9.4488342"><ele>173.0</ele><time>2026-04-12T08:31:41.002Z</time></trkpt><trkpt lat="45.5836981" lon="9.4488165"><ele>173.0</ele><time>2026-04-12T08:31:44.002Z</time></trkpt><trkpt lat="45.5836294" lon="9.448802"><ele>173.0</ele><time>2026-04-12T08:31:51.002Z</time></trkpt><trkpt lat="45.5835685" lon="9.4487635"><ele>173.0</ele><time>2026-04-12T08:31:53.002Z</time></trkpt><trkpt lat="45.5834958" lon="9.4487803"><ele>173.0</ele><time>2026-04-12T08:31:57.002Z</time></trkpt><trkpt lat="45.5834385" lon="9.4487323"><ele>173.0</ele><time>2026-04-12T08:32:00.002Z</time></trkpt><trkpt lat="45.5833793" lon="9.4486523"><ele>173.0</ele><time>2026-04-12T08:32:04.001Z</time></trkpt><trkpt lat="45.5833465" lon="9.4485607"><ele>173.0</ele><time>2026-04-12T08:32:08.002Z</time></trkpt><trkpt lat="45.5832486" lon="9.4485394"><ele>173.0</ele><time>2026-04-12T08:32:11.002Z</time></trkpt><trkpt lat="45.5831738" lon="9.4485125"><ele>173.0</ele><time>2026-04-12T08:32:13.001Z</time></trkpt><trkpt lat="45.5830886" lon="9.4484698"><ele>173.0</ele><time>2026-04-12T08:32:15.002Z</time></trkpt><trkpt lat="45.582995" lon="9.448476"><ele>173.0</ele><time>2026-04-12T08:32:17.001Z</time></trkpt><trkpt lat="45.5829098" lon="9.4484764"><ele>172.66666666666666</ele><time>2026-04-12T08:32:19.001Z</time></trkpt><trkpt lat="45.5828368" lon="9.4484657"><ele>172.33333333333331</ele><time>2026-04-12T08:32:21.001Z</time></trkpt><trkpt lat="45.5827753" lon="9.4484077"><ele>172.0</ele><time>2026-04-12T08:32:25.001Z</time></trkpt><trkpt lat="45.5827008" lon="9.4484466"><ele>171.66666666666666</ele><time>2026-04-12T08:32:30.002Z</time></trkpt><trkpt lat="45.5826389" lon="9.4484699"><ele>171.33333333333334</ele><time>2026-04-12T08:32:32.001Z</time></trkpt><trkpt lat="45.5825468" lon="9.4484963"><ele>171.0</ele><time>2026-04-12T08:32:35.001Z</time></trkpt><trkpt lat="45.5824686" lon="9.4485064"><ele>171.0</ele><time>2026-04-12T08:32:38.002Z</time></trkpt><trkpt lat="45.5823835" lon="9.448581"><ele>171.0</ele><time>2026-04-12T08:32:41.001Z</time></trkpt><trkpt lat="45.5822922" lon="9.4485753"><ele>171.0</ele><time>2026-04-12T08:32:44.002Z</time></trkpt><trkpt lat="45.5822261" lon="9.4486556"><ele>171.0</ele><time>2026-04-12T08:32:47.002Z</time></trkpt><trkpt lat="45.582203" lon="9.4487604"><ele>171.0</ele><time>2026-04-12T08:32:49.002Z</time></trkpt><trkpt lat="45.5821787" lon="9.4488716"><ele>171.0</ele><time>2026-04-12T08:32:51.002Z</time></trkpt><trkpt lat="45.5821561" lon="9.4489717"><ele>170.33333333333334</ele><time>2026-04-12T08:32:53.002Z</time></trkpt><trkpt lat="45.5821378" lon="9.4490742"><ele>169.66666666666666</ele><time>2026-04-12T08:32:55.001Z</time></trkpt><trkpt lat="45.5820656" lon="9.4491034"><ele>169.0</ele><time>2026-04-12T08:32:58.002Z</time></trkpt><trkpt lat="45.5819952" lon="9.4491021"><ele>168.33333333333331</ele><time>2026-04-12T08:33:01.001Z</time></trkpt><trkpt lat="45.5819119" lon="9.4491313"><ele>167.66666666666666</ele><time>2026-04-12T08:33:13.002Z</time></trkpt><trkpt lat="45.5818486" lon="9.4492315"><ele>167.0</ele><time>2026-04-12T08:33:16.002Z</time></trkpt><trkpt lat="45.5818236" lon="9.449338"><ele>166.66666666666666</ele><time>2026-04-12T08:33:18.001Z</time></trkpt><trkpt lat="45.5817922" lon="9.4494492"><ele>166.33333333333331</ele><time>2026-04-12T08:33:20.002Z</time></trkpt><trkpt lat="45.5817563" lon="9.4495464"><ele>166.0</ele><time>2026-04-12T08:33:22.002Z</time></trkpt><trkpt lat="45.5817289" lon="9.4496477"><ele>165.66666666666666</ele><time>2026-04-12T08:33:24.002Z</time></trkpt><trkpt lat="45.5816984" lon="9.449739"><ele>165.33333333333334</ele><time>2026-04-12T08:33:26.002Z</time></trkpt><trkpt lat="45.5816703" lon="9.4498241"><ele>165.0</ele><time>2026-04-12T08:33:28.002Z</time></trkpt><trkpt lat="45.5816194" lon="9.4499212"><ele>165.0</ele><time>2026-04-12T08:33:31.002Z</time></trkpt><trkpt lat="45.5815382" lon="9.4499242"><ele>165.0</ele><time>2026-04-12T08:33:34.001Z</time></trkpt><trkpt lat="45.5814491" lon="9.4498981"><ele>165.0</ele><time>2026-04-12T08:33:36.002Z</time></trkpt><trkpt lat="45.5813602" lon="9.449875"><ele>165.0</ele><time>2026-04-12T08:33:38.002Z</time></trkpt><trkpt lat="45.5812752" lon="9.4498708"><ele>165.0</ele><time>2026-04-12T08:33:40.001Z</time></trkpt><trkpt lat="45.5812051" lon="9.449921"><ele>165.0</ele><time>2026-04-12T08:33:43.002Z</time></trkpt><trkpt lat="45.5811317" lon="9.4499625"><ele>165.0</ele><time>2026-04-12T08:33:45.002Z</time></trkpt><trkpt lat="45.5810695" lon="9.4500482"><ele>165.0</ele><time>2026-04-12T08:33:47.002Z</time></trkpt><trkpt lat="45.5810379" lon="9.4501643"><ele>165.0</ele><time>2026-04-12T08:33:49.002Z</time></trkpt><trkpt lat="45.5810338" lon="9.4503105"><ele>165.0</ele><time>2026-04-12T08:33:51.001Z</time></trkpt><trkpt lat="45.5810261" lon="9.4504556"><ele>165.0</ele><time>2026-04-12T08:33:53.002Z</time></trkpt><trkpt lat="45.580992" lon="9.4505948"><ele>165.0</ele><time>2026-04-12T08:33:55.002Z</time></trkpt><trkpt lat="45.5809767" lon="9.4507174"><ele>165.0</ele><time>2026-04-12T08:33:57.002Z</time></trkpt><trkpt lat="45.5809507" lon="9.4508267"><ele>165.0</ele><time>2026-04-12T08:33:59.002Z</time></trkpt><trkpt lat="45.5809021" lon="9.4509385"><ele>165.0</ele><time>2026-04-12T08:34:01.002Z</time></trkpt><trkpt lat="45.5808613" lon="9.4510624"><ele>165.0</ele><time>2026-04-12T08:34:03.002Z</time></trkpt><trkpt lat="45.5808088" lon="9.4511929"><ele>165.33333333333334</ele><time>2026-04-12T08:34:05.002Z</time></trkpt><trkpt lat="45.5807586" lon="9.4513128"><ele>165.66666666666666</ele><time>2026-04-12T08:34:07.002Z</time></trkpt><trkpt lat="45.5807071" lon="9.4514297"><ele>166.0</ele><time>2026-04-12T08:34:09.001Z</time></trkpt><trkpt lat="45.5806519" lon="9.4515282"><ele>166.33333333333331</ele><time>2026-04-12T08:34:11.002Z</time></trkpt><trkpt lat="45.5805781" lon="9.4515495"><ele>166.66666666666666</ele><time>2026-04-12T08:34:13.002Z</time></trkpt><trkpt lat="45.5804901" lon="9.4515481"><ele>167.0</ele><time>2026-04-12T08:34:15.001Z</time></trkpt><trkpt lat="45.580396" lon="9.4515551"><ele>166.2</ele><time>2026-04-12T08:34:17.001Z</time></trkpt><trkpt lat="45.5802853" lon="9.4515599"><ele>165.39999999999998</ele><time>2026-04-12T08:34:19.001Z</time></trkpt><trkpt lat="45.5801839" lon="9.4515882"><ele>164.60000000000002</ele><time>2026-04-12T08:34:21.002Z</time></trkpt><trkpt lat="45.5801078" lon="9.4516921"><ele>163.8</ele><time>2026-04-12T08:34:23.002Z</time></trkpt><trkpt lat="45.5800264" lon="9.4517414"><ele>163.0</ele><time>2026-04-12T08:34:25.002Z</time></trkpt><trkpt lat="45.5799836" lon="9.4518355"><ele>163.0</ele><time>2026-04-12T08:34:27.002Z</time></trkpt><trkpt lat="45.5799198" lon="9.4518983"><ele>163.0</ele><time>2026-04-12T08:34:29.002Z</time></trkpt><trkpt lat="45.5798354" lon="9.4518673"><ele>163.0</ele><time>2026-04-12T08:34:32.002Z</time></trkpt><trkpt lat="45.5797528" lon="9.4518383"><ele>163.0</ele><time>2026-04-12T08:34:35.002Z</time></trkpt><trkpt lat="45.5796675" lon="9.4518322"><ele>163.0</ele><time>2026-04-12T08:34:38.002Z</time></trkpt><trkpt lat="45.5795903" lon="9.4518352"><ele>163.0</ele><time>2026-04-12T08:34:41.002Z</time></trkpt><trkpt lat="45.5795272" lon="9.4518206"><ele>163.2857142857143</ele><time>2026-04-12T08:35:07.001Z</time></trkpt><trkpt lat="45.5794659" lon="9.4517997"><ele>163.57142857142856</ele><time>2026-04-12T08:35:10.001Z</time></trkpt><trkpt lat="45.5793875" lon="9.4517917"><ele>163.85714285714286</ele><time>2026-04-12T08:35:13.001Z</time></trkpt><trkpt lat="45.5793013" lon="9.4517882"><ele>164.14285714285717</ele><time>2026-04-12T08:35:16.002Z</time></trkpt><trkpt lat="45.5792395" lon="9.4517667"><ele>164.42857142857144</ele><time>2026-04-12T08:35:18.002Z</time></trkpt><trkpt lat="45.5791922" lon="9.4517058"><ele>164.71428571428572</ele><time>2026-04-12T08:35:20.002Z</time></trkpt><trkpt lat="45.5791105" lon="9.4517219"><ele>165.0</ele><time>2026-04-12T08:35:23.001Z</time></trkpt><trkpt lat="45.5790276" lon="9.4517345"><ele>165.0</ele><time>2026-04-12T08:35:26.002Z</time></trkpt><trkpt lat="45.5789604" lon="9.4516842"><ele>165.0</ele><time>2026-04-12T08:35:32.002Z</time></trkpt><trkpt lat="45.5789428" lon="9.4515801"><ele>165.0</ele><time>2026-04-12T08:35:49.002Z</time></trkpt><trkpt lat="45.5789049" lon="9.4514811"><ele>165.0</ele><time>2026-04-12T08:35:51.002Z</time></trkpt><trkpt lat="45.5788882" lon="9.4513756"><ele>165.0</ele><time>2026-04-12T08:35:53.002Z</time></trkpt><trkpt lat="45.5788871" lon="9.4512712"><ele>165.0</ele><time>2026-04-12T08:35:55.001Z</time></trkpt><trkpt lat="45.5788646" lon="9.4511602"><ele>164.8</ele><time>2026-04-12T08:35:57.001Z</time></trkpt><trkpt lat="45.5787946" lon="9.4510447"><ele>164.6</ele><time>2026-04-12T08:35:59.001Z</time></trkpt><trkpt lat="45.5787339" lon="9.4509182"><ele>164.39999999999998</ele><time>2026-04-12T08:36:01.001Z</time></trkpt><trkpt lat="45.5786564" lon="9.45081"><ele>164.2</ele><time>2026-04-12T08:36:03.001Z</time></trkpt><trkpt lat="45.5785857" lon="9.4507062"><ele>164.0</ele><time>2026-04-12T08:36:05.002Z</time></trkpt><trkpt lat="45.5784908" lon="9.4506253"><ele>164.39999999999998</ele><time>2026-04-12T08:36:07.002Z</time></trkpt><trkpt lat="45.5784233" lon="9.450603"><ele>164.8</ele><time>2026-04-12T08:36:08.001Z</time></trkpt><trkpt lat="45.5783114" lon="9.450612"><ele>165.2</ele><time>2026-04-12T08:36:10.001Z</time></trkpt><trkpt lat="45.5782008" lon="9.4506629"><ele>165.60000000000002</ele><time>2026-04-12T08:36:12.002Z</time></trkpt><trkpt lat="45.5780863" lon="9.4506916"><ele>166.0</ele><time>2026-04-12T08:36:14.002Z</time></trkpt><trkpt lat="45.5779718" lon="9.4507321"><ele>166.0</ele><time>2026-04-12T08:36:16.001Z</time></trkpt><trkpt lat="45.5778572" lon="9.4507935"><ele>166.0</ele><time>2026-04-12T08:36:18.002Z</time></trkpt><trkpt lat="45.5777436" lon="9.4508612"><ele>166.0</ele><time>2026-04-12T08:36:20.002Z</time></trkpt><trkpt lat="45.5776566" lon="9.4509732"><ele>166.0</ele><time>2026-04-12T08:36:22.002Z</time></trkpt><trkpt lat="45.5776145" lon="9.4510438"><ele>166.0</ele><time>2026-04-12T08:36:23.002Z</time></trkpt><trkpt lat="45.5775582" lon="9.4511111"><ele>165.8</ele><time>2026-04-12T08:36:24.002Z</time></trkpt><trkpt lat="45.5774659" lon="9.4512117"><ele>165.60000000000002</ele><time>2026-04-12T08:36:26.002Z</time></trkpt><trkpt lat="45.5773874" lon="9.4513308"><ele>165.4</ele><time>2026-04-12T08:36:28.002Z</time></trkpt><trkpt lat="45.5773408" lon="9.451426"><ele>165.2</ele><time>2026-04-12T08:36:30.002Z</time></trkpt><trkpt lat="45.5772972" lon="9.4515044"><ele>165.0</ele><time>2026-04-12T08:36:32.002Z</time></trkpt><trkpt lat="45.5772144" lon="9.4515377"><ele>165.0</ele><time>2026-04-12T08:36:34.001Z</time></trkpt><trkpt lat="45.5771115" lon="9.4515304"><ele>165.0</ele><time>2026-04-12T08:36:36.002Z</time></trkpt><trkpt lat="45.576997" lon="9.4514943"><ele>165.0</ele><time>2026-04-12T08:36:38.002Z</time></trkpt><trkpt lat="45.5769005" lon="9.4514657"><ele>165.0</ele><time>2026-04-12T08:36:40.001Z</time></trkpt><trkpt lat="45.576784" lon="9.4514826"><ele>165.0</ele><time>2026-04-12T08:36:42.002Z</time></trkpt><trkpt lat="45.576671" lon="9.4514424"><ele>164.75</ele><time>2026-04-12T08:36:44.001Z</time></trkpt><trkpt lat="45.5765658" lon="9.4513779"><ele>164.5</ele><time>2026-04-12T08:36:46.002Z</time></trkpt><trkpt lat="45.5764589" lon="9.451303"><ele>164.25</ele><time>2026-04-12T08:36:48.002Z</time></trkpt><trkpt lat="45.5763677" lon="9.4512042"><ele>164.0</ele><time>2026-04-12T08:36:50.002Z</time></trkpt><trkpt lat="45.5762846" lon="9.4510897"><ele>164.0</ele><time>2026-04-12T08:36:52.002Z</time></trkpt><trkpt lat="45.5761984" lon="9.4509827"><ele>164.0</ele><time>2026-04-12T08:36:54.002Z</time></trkpt><trkpt lat="45.5761538" lon="9.4509173"><ele>164.0</ele><time>2026-04-12T08:36:55.001Z</time></trkpt><trkpt lat="45.5760582" lon="9.4508188"><ele>164.0</ele><time>2026-04-12T08:36:57.002Z</time></trkpt><trkpt lat="45.5759643" lon="9.4507204"><ele>164.0</ele><time>2026-04-12T08:36:59.002Z</time></trkpt><trkpt lat="45.5758597" lon="9.4506604"><ele>164.0</ele><time>2026-04-12T08:37:01.001Z</time></trkpt><trkpt lat="45.5757482" lon="9.4506275"><ele>164.0</ele><time>2026-04-12T08:37:03.002Z</time></trkpt><trkpt lat="45.5756499" lon="9.4506699"><ele>164.0</ele><time>2026-04-12T08:37:05.002Z</time></trkpt><trkpt lat="45.5755739" lon="9.4507425"><ele>164.0</ele><time>2026-04-12T08:37:07.001Z</time></trkpt><trkpt lat="45.5755384" lon="9.4508787"><ele>164.0</ele><time>2026-04-12T08:37:09.001Z</time></trkpt><trkpt lat="45.5755077" lon="9.4510145"><ele>164.0</ele><time>2026-04-12T08:37:11.002Z</time></trkpt><trkpt lat="45.5754668" lon="9.4511118"><ele>164.0</ele><time>2026-04-12T08:37:13.002Z</time></trkpt><trkpt lat="45.5754022" lon="9.4511077"><ele>164.0</ele><time>2026-04-12T08:37:15.002Z</time></trkpt><trkpt lat="45.57532" lon="9.4511124"><ele>164.0</ele><time>2026-04-12T08:37:17.002Z</time></trkpt><trkpt lat="45.5752117" lon="9.4511117"><ele>164.0</ele><time>2026-04-12T08:37:19.001Z</time></trkpt><trkpt lat="45.5750967" lon="9.4510939"><ele>162.6</ele><time>2026-04-12T08:37:21.002Z</time></trkpt><trkpt lat="45.5749915" lon="9.4511279"><ele>161.2</ele><time>2026-04-12T08:37:23.002Z</time></trkpt><trkpt lat="45.5749057" lon="9.4511693"><ele>159.79999999999998</ele><time>2026-04-12T08:37:25.001Z</time></trkpt><trkpt lat="45.5748124" lon="9.4511378"><ele>158.39999999999998</ele><time>2026-04-12T08:37:27.002Z</time></trkpt><trkpt lat="45.5747392" lon="9.4510561"><ele>157.0</ele><time>2026-04-12T08:37:29.002Z</time></trkpt><trkpt lat="45.5746564" lon="9.4509772"><ele>157.0</ele><time>2026-04-12T08:37:31.002Z</time></trkpt><trkpt lat="45.5745874" lon="9.4508503"><ele>157.0</ele><time>2026-04-12T08:37:33.001Z</time></trkpt><trkpt lat="45.5745248" lon="9.4507176"><ele>157.0</ele><time>2026-04-12T08:37:35.002Z</time></trkpt><trkpt lat="45.5744951" lon="9.4505525"><ele>157.0</ele><time>2026-04-12T08:37:37.002Z</time></trkpt><trkpt lat="45.5744499" lon="9.4504091"><ele>156.66666666666669</ele><time>2026-04-12T08:37:39.001Z</time></trkpt><trkpt lat="45.574355" lon="9.450388"><ele>156.33333333333334</ele><time>2026-04-12T08:37:41.002Z</time></trkpt><trkpt lat="45.5742719" lon="9.450374"><ele>156.0</ele><time>2026-04-12T08:37:43.002Z</time></trkpt><trkpt lat="45.5741896" lon="9.4503754"><ele>155.66666666666666</ele><time>2026-04-12T08:37:45.002Z</time></trkpt><trkpt lat="45.5740992" lon="9.4503721"><ele>155.33333333333331</ele><time>2026-04-12T08:37:48.002Z</time></trkpt><trkpt lat="45.5740309" lon="9.4503907"><ele>155.0</ele><time>2026-04-12T08:37:50.002Z</time></trkpt><trkpt lat="45.573985" lon="9.4504587"><ele>155.83333333333331</ele><time>2026-04-12T08:37:52.001Z</time></trkpt><trkpt lat="45.5739752" lon="9.4505674"><ele>156.66666666666666</ele><time>2026-04-12T08:37:54.001Z</time></trkpt><trkpt lat="45.5739792" lon="9.4506664"><ele>157.5</ele><time>2026-04-12T08:37:56.002Z</time></trkpt><trkpt lat="45.5739879" lon="9.4508007"><ele>158.33333333333334</ele><time>2026-04-12T08:37:59.002Z</time></trkpt><trkpt lat="45.5739852" lon="9.4509335"><ele>159.16666666666669</ele><time>2026-04-12T08:38:02.002Z</time></trkpt><trkpt lat="45.5739888" lon="9.4510493"><ele>160.0</ele><time>2026-04-12T08:38:05.002Z</time></trkpt><trkpt lat="45.5739989" lon="9.4511687"><ele>160.0</ele><time>2026-04-12T08:38:08.001Z</time></trkpt><trkpt lat="45.5740094" lon="9.4512666"><ele>160.0</ele><time>2026-04-12T08:38:11.002Z</time></trkpt><trkpt lat="45.5740186" lon="9.4513738"><ele>160.0</ele><time>2026-04-12T08:38:14.002Z</time></trkpt><trkpt lat="45.5740355" lon="9.4514683"><ele>160.0</ele><time>2026-04-12T08:38:17.002Z</time></trkpt><trkpt lat="45.5740438" lon="9.4515738"><ele>160.0</ele><time>2026-04-12T08:38:20.002Z</time></trkpt><trkpt lat="45.5739878" lon="9.4516355"><ele>160.0</ele><time>2026-04-12T08:38:23.001Z</time></trkpt><trkpt lat="45.5739159" lon="9.4515763"><ele>160.0</ele><time>2026-04-12T08:38:26.002Z</time></trkpt><trkpt lat="45.5738517" lon="9.4515747"><ele>160.28571428571428</ele><time>2026-04-12T08:38:28.002Z</time></trkpt><trkpt lat="45.57378" lon="9.4515793"><ele>160.57142857142858</ele><time>2026-04-12T08:38:30.002Z</time></trkpt><trkpt lat="45.5737135" lon="9.4515432"><ele>160.85714285714286</ele><time>2026-04-12T08:38:32.001Z</time></trkpt><trkpt lat="45.5736425" lon="9.4515257"><ele>161.14285714285714</ele><time>2026-04-12T08:38:34.002Z</time></trkpt><trkpt lat="45.5735777" lon="9.4515262"><ele>161.42857142857142</ele><time>2026-04-12T08:38:36.002Z</time></trkpt><trkpt lat="45.57352" lon="9.4514725"><ele>161.71428571428572</ele><time>2026-04-12T08:38:38.001Z</time></trkpt><trkpt lat="45.5734236" lon="9.4514699"><ele>162.0</ele><time>2026-04-12T08:38:41.002Z</time></trkpt><trkpt lat="45.5733629" lon="9.4514454"><ele>161.33333333333334</ele><time>2026-04-12T08:38:43.001Z</time></trkpt><trkpt lat="45.5732759" lon="9.4514383"><ele>160.66666666666666</ele><time>2026-04-12T08:38:46.001Z</time></trkpt><trkpt lat="45.5731827" lon="9.4513966"><ele>160.0</ele><time>2026-04-12T08:38:49.002Z</time></trkpt><trkpt lat="45.5731441" lon="9.4512947"><ele>159.33333333333331</ele><time>2026-04-12T08:38:52.002Z</time></trkpt><trkpt lat="45.5730855" lon="9.4512127"><ele>158.66666666666666</ele><time>2026-04-12T08:38:54.001Z</time></trkpt><trkpt lat="45.5730082" lon="9.4511768"><ele>158.0</ele><time>2026-04-12T08:38:56.001Z</time></trkpt><trkpt lat="45.5729304" lon="9.4511495"><ele>157.83333333333331</ele><time>2026-04-12T08:38:58.002Z</time></trkpt><trkpt lat="45.5728667" lon="9.4511149"><ele>157.66666666666666</ele><time>2026-04-12T08:39:00.001Z</time></trkpt><trkpt lat="45.5727866" lon="9.4510591"><ele>157.5</ele><time>2026-04-12T08:39:03.002Z</time></trkpt><trkpt lat="45.5727175" lon="9.4510527"><ele>157.33333333333334</ele><time>2026-04-12T08:39:06.002Z</time></trkpt><trkpt lat="45.5726198" lon="9.4510358"><ele>157.16666666666669</ele><time>2026-04-12T08:39:09.001Z</time></trkpt><trkpt lat="45.5725403" lon="9.4510683"><ele>157.0</ele><time>2026-04-12T08:39:11.002Z</time></trkpt><trkpt lat="45.5724694" lon="9.4511036"><ele>157.0</ele><time>2026-04-12T08:39:13.001Z</time></trkpt><trkpt lat="45.5723929" lon="9.4511353"><ele>157.0</ele><time>2026-04-12T08:39:15.001Z</time></trkpt><trkpt lat="45.5723289" lon="9.4511187"><ele>157.0</ele><time>2026-04-12T08:39:17.001Z</time></trkpt><trkpt lat="45.5722425" lon="9.4511285"><ele>157.0</ele><time>2026-04-12T08:39:20.002Z</time></trkpt><trkpt lat="45.5721505" lon="9.4511254"><ele>157.0</ele><time>2026-04-12T08:39:23.002Z</time></trkpt><trkpt lat="45.5720809" lon="9.4510302"><ele>157.0</ele><time>2026-04-12T08:39:26.002Z</time></trkpt><trkpt lat="45.5720619" lon="9.4509298"><ele>157.8</ele><time>2026-04-12T08:39:28.002Z</time></trkpt><trkpt lat="45.571987" lon="9.4508383"><ele>158.6</ele><time>2026-04-12T08:39:30.002Z</time></trkpt><trkpt lat="45.5719139" lon="9.4507737"><ele>159.4</ele><time>2026-04-12T08:39:32.002Z</time></trkpt><trkpt lat="45.5718236" lon="9.4507317"><ele>160.20000000000002</ele><time>2026-04-12T08:39:34.002Z</time></trkpt><trkpt lat="45.5717432" lon="9.4506634"><ele>161.0</ele><time>2026-04-12T08:39:36.002Z</time></trkpt><trkpt lat="45.5716961" lon="9.4505681"><ele>161.0</ele><time>2026-04-12T08:39:38.001Z</time></trkpt><trkpt lat="45.5716227" lon="9.4505086"><ele>161.0</ele><time>2026-04-12T08:39:40.001Z</time></trkpt><trkpt lat="45.5715402" lon="9.4504676"><ele>161.0</ele><time>2026-04-12T08:39:42.002Z</time></trkpt><trkpt lat="45.5714601" lon="9.4504426"><ele>161.0</ele><time>2026-04-12T08:39:44.001Z</time></trkpt><trkpt lat="45.5713897" lon="9.4503993"><ele>161.0</ele><time>2026-04-12T08:39:46.002Z</time></trkpt><trkpt lat="45.5713264" lon="9.4503391"><ele>161.0</ele><time>2026-04-12T08:39:48.002Z</time></trkpt><trkpt lat="45.5712664" lon="9.4503044"><ele>160.66666666666666</ele><time>2026-04-12T08:39:51.002Z</time></trkpt><trkpt lat="45.5711859" lon="9.4502283"><ele>160.33333333333331</ele><time>2026-04-12T08:39:56.002Z</time></trkpt><trkpt lat="45.5711154" lon="9.4501832"><ele>160.0</ele><time>2026-04-12T08:39:58.002Z</time></trkpt><trkpt lat="45.5710426" lon="9.4501471"><ele>159.66666666666666</ele><time>2026-04-12T08:40:00.002Z</time></trkpt><trkpt lat="45.5709861" lon="9.4500867"><ele>159.33333333333334</ele><time>2026-04-12T08:40:02.002Z</time></trkpt><trkpt lat="45.5709077" lon="9.4500653"><ele>159.0</ele><time>2026-04-12T08:40:04.001Z</time></trkpt><trkpt lat="45.5708259" lon="9.4500344"><ele>159.0</ele><time>2026-04-12T08:40:06.001Z</time></trkpt><trkpt lat="45.5707586" lon="9.4499888"><ele>159.0</ele><time>2026-04-12T08:40:08.001Z</time></trkpt><trkpt lat="45.5706536" lon="9.4500192"><ele>159.0</ele><time>2026-04-12T08:40:10.002Z</time></trkpt><trkpt lat="45.5705685" lon="9.4500226"><ele>159.0</ele><time>2026-04-12T08:40:12.002Z</time></trkpt><trkpt lat="45.5704773" lon="9.4500276"><ele>159.0</ele><time>2026-04-12T08:40:14.001Z</time></trkpt><trkpt lat="45.570377" lon="9.4500344"><ele>158.6</ele><time>2026-04-12T08:40:16.002Z</time></trkpt><trkpt lat="45.570276" lon="9.4500377"><ele>158.2</ele><time>2026-04-12T08:40:18.002Z</time></trkpt><trkpt lat="45.570177" lon="9.4500451"><ele>157.79999999999998</ele><time>2026-04-12T08:40:20.001Z</time></trkpt><trkpt lat="45.570086" lon="9.4500314"><ele>157.4</ele><time>2026-04-12T08:40:22.001Z</time></trkpt><trkpt lat="45.5699929" lon="9.4500156"><ele>157.0</ele><time>2026-04-12T08:40:24.002Z</time></trkpt><trkpt lat="45.5698972" lon="9.4500509"><ele>157.0</ele><time>2026-04-12T08:40:26.002Z</time></trkpt><trkpt lat="45.5698046" lon="9.450055"><ele>157.0</ele><time>2026-04-12T08:40:28.002Z</time></trkpt><trkpt lat="45.5697168" lon="9.4500525"><ele>157.0</ele><time>2026-04-12T08:40:30.002Z</time></trkpt><trkpt lat="45.5696374" lon="9.450041"><ele>157.0</ele><time>2026-04-12T08:40:33.002Z</time></trkpt><trkpt lat="45.5695511" lon="9.4500284"><ele>157.0</ele><time>2026-04-12T08:40:36.002Z</time></trkpt><trkpt lat="45.5694715" lon="9.4500526"><ele>157.0</ele><time>2026-04-12T08:40:39.002Z</time></trkpt><trkpt lat="45.5694054" lon="9.4500594"><ele>156.83333333333334</ele><time>2026-04-12T08:40:41.001Z</time></trkpt><trkpt lat="45.5693181" lon="9.4500841"><ele>156.66666666666669</ele><time>2026-04-12T08:40:43.001Z</time></trkpt><trkpt lat="45.5692458" lon="9.4500931"><ele>156.5</ele><time>2026-04-12T08:40:45.002Z</time></trkpt><trkpt lat="45.5691679" lon="9.4501119"><ele>156.33333333333334</ele><time>2026-04-12T08:40:47.001Z</time></trkpt><trkpt lat="45.5690924" lon="9.4501193"><ele>156.16666666666666</ele><time>2026-04-12T08:40:49.002Z</time></trkpt><trkpt lat="45.5690218" lon="9.4501362"><ele>156.0</ele><time>2026-04-12T08:40:51.001Z</time></trkpt><trkpt lat="45.5689543" lon="9.4501697"><ele>156.0</ele><time>2026-04-12T08:40:53.002Z</time></trkpt><trkpt lat="45.5688674" lon="9.4502053"><ele>156.0</ele><time>2026-04-12T08:40:56.002Z</time></trkpt><trkpt lat="45.5687932" lon="9.4502656"><ele>156.0</ele><time>2026-04-12T08:40:59.001Z</time></trkpt><trkpt lat="45.568727" lon="9.450261"><ele>156.0</ele><time>2026-04-12T08:41:02.002Z</time></trkpt><trkpt lat="45.5686591" lon="9.4502452"><ele>156.0</ele><time>2026-04-12T08:41:10.001Z</time></trkpt><trkpt lat="45.5685929" lon="9.4502752"><ele>156.0</ele><time>2026-04-12T08:41:18.001Z</time></trkpt><trkpt lat="45.5685337" lon="9.4503173"><ele>156.0</ele><time>2026-04-12T08:41:33.002Z</time></trkpt><trkpt lat="45.5684603" lon="9.4503273"><ele>155.66666666666666</ele><time>2026-04-12T08:41:40.001Z</time></trkpt><trkpt lat="45.5683865" lon="9.4502981"><ele>155.33333333333334</ele><time>2026-04-12T08:41:43.001Z</time></trkpt><trkpt lat="45.5683047" lon="9.45026"><ele>155.0</ele><time>2026-04-12T08:41:46.002Z</time></trkpt><trkpt lat="45.5682358" lon="9.4502992"><ele>154.66666666666669</ele><time>2026-04-12T08:41:49.002Z</time></trkpt><trkpt lat="45.5681721" lon="9.4503245"><ele>154.33333333333334</ele><time>2026-04-12T08:41:51.002Z</time></trkpt><trkpt lat="45.5680899" lon="9.4503367"><ele>154.0</ele><time>2026-04-12T08:41:54.001Z</time></trkpt><trkpt lat="45.5680165" lon="9.4503405"><ele>154.0</ele><time>2026-04-12T08:41:56.002Z</time></trkpt><trkpt lat="45.5679481" lon="9.4503558"><ele>154.0</ele><time>2026-04-12T08:41:58.001Z</time></trkpt><trkpt lat="45.5678747" lon="9.4503594"><ele>154.0</ele><time>2026-04-12T08:42:00.002Z</time></trkpt><trkpt lat="45.5678009" lon="9.4503652"><ele>154.0</ele><time>2026-04-12T08:42:04.001Z</time></trkpt><trkpt lat="45.5677295" lon="9.4503732"><ele>154.0</ele><time>2026-04-12T08:42:07.002Z</time></trkpt><trkpt lat="45.5676544" lon="9.4504105"><ele>154.0</ele><time>2026-04-12T08:42:10.002Z</time></trkpt><trkpt lat="45.5675813" lon="9.450394"><ele>154.0</ele><time>2026-04-12T08:42:12.002Z</time></trkpt><trkpt lat="45.5675157" lon="9.4503898"><ele>153.83333333333334</ele><time>2026-04-12T08:42:14.002Z</time></trkpt><trkpt lat="45.5674453" lon="9.4504003"><ele>153.66666666666669</ele><time>2026-04-12T08:42:17.002Z</time></trkpt><trkpt lat="45.5673759" lon="9.4504095"><ele>153.5</ele><time>2026-04-12T08:42:29.002Z</time></trkpt><trkpt lat="45.567292" lon="9.4504158"><ele>153.33333333333334</ele><time>2026-04-12T08:42:32.002Z</time></trkpt><trkpt lat="45.5672191" lon="9.4504405"><ele>153.16666666666666</ele><time>2026-04-12T08:42:34.001Z</time></trkpt><trkpt lat="45.5671707" lon="9.4505161"><ele>153.0</ele><time>2026-04-12T08:42:36.002Z</time></trkpt><trkpt lat="45.5671011" lon="9.4506082"><ele>152.8</ele><time>2026-04-12T08:42:38.002Z</time></trkpt><trkpt lat="45.5670203" lon="9.4506359"><ele>152.60000000000002</ele><time>2026-04-12T08:42:40.002Z</time></trkpt><trkpt lat="45.5669276" lon="9.4506284"><ele>152.39999999999998</ele><time>2026-04-12T08:42:42.002Z</time></trkpt><trkpt lat="45.5668296" lon="9.4506368"><ele>152.2</ele><time>2026-04-12T08:42:44.002Z</time></trkpt><trkpt lat="45.5667397" lon="9.4506439"><ele>152.0</ele><time>2026-04-12T08:42:46.002Z</time></trkpt><trkpt lat="45.5666519" lon="9.4506512"><ele>152.0</ele><time>2026-04-12T08:42:48.002Z</time></trkpt><trkpt lat="45.5665649" lon="9.4506813"><ele>152.0</ele><time>2026-04-12T08:42:50.001Z</time></trkpt><trkpt lat="45.5664952" lon="9.4506121"><ele>152.0</ele><time>2026-04-12T08:42:52.002Z</time></trkpt><trkpt lat="45.5664446" lon="9.4505266"><ele>152.0</ele><time>2026-04-12T08:42:54.002Z</time></trkpt><trkpt lat="45.5664243" lon="9.4504336"><ele>152.0</ele><time>2026-04-12T08:42:56.002Z</time></trkpt><trkpt lat="45.5663565" lon="9.4504082"><ele>152.0</ele><time>2026-04-12T08:43:00.001Z</time></trkpt><trkpt lat="45.5662985" lon="9.4504743"><ele>152.0</ele><time>2026-04-12T08:43:02.002Z</time></trkpt><trkpt lat="45.5662287" lon="9.4505459"><ele>152.0</ele><time>2026-04-12T08:43:04.002Z</time></trkpt><trkpt lat="45.5661522" lon="9.4506281"><ele>152.0</ele><time>2026-04-12T08:43:06.002Z</time></trkpt><trkpt lat="45.5660884" lon="9.4506983"><ele>152.0</ele><time>2026-04-12T08:43:09.002Z</time></trkpt><trkpt lat="45.566016" lon="9.4507535"><ele>152.0</ele><time>2026-04-12T08:43:13.002Z</time></trkpt><trkpt lat="45.5659492" lon="9.4508237"><ele>152.0</ele><time>2026-04-12T08:43:15.002Z</time></trkpt><trkpt lat="45.5658861" lon="9.4509183"><ele>151.79999999999998</ele><time>2026-04-12T08:43:17.001Z</time></trkpt><trkpt lat="45.5658027" lon="9.4510023"><ele>151.6</ele><time>2026-04-12T08:43:19.001Z</time></trkpt><trkpt lat="45.5657093" lon="9.4510512"><ele>151.39999999999998</ele><time>2026-04-12T08:43:21.001Z</time></trkpt><trkpt lat="45.5656243" lon="9.4510955"><ele>151.2</ele><time>2026-04-12T08:43:23.001Z</time></trkpt><trkpt lat="45.5655394" lon="9.4511315"><ele>151.0</ele><time>2026-04-12T08:43:25.002Z</time></trkpt><trkpt lat="45.5654561" lon="9.4511481"><ele>151.0</ele><time>2026-04-12T08:43:27.002Z</time></trkpt><trkpt lat="45.565372" lon="9.4511463"><ele>151.0</ele><time>2026-04-12T08:43:29.002Z</time></trkpt><trkpt lat="45.565282" lon="9.4511258"><ele>151.0</ele><time>2026-04-12T08:43:31.002Z</time></trkpt><trkpt lat="45.5651981" lon="9.4511152"><ele>151.0</ele><time>2026-04-12T08:43:34.001Z</time></trkpt><trkpt lat="45.5651223" lon="9.4511238"><ele>151.0</ele><time>2026-04-12T08:44:31.002Z</time></trkpt><trkpt lat="45.5651019" lon="9.4510354"><ele>151.0</ele><time>2026-04-12T08:44:53.001Z</time></trkpt><trkpt lat="45.5650905" lon="9.4509426"><ele>151.00000000000003</ele><time>2026-04-12T08:45:13.002Z</time></trkpt><trkpt lat="45.5650399" lon="9.4508849"><ele>151.0</ele><time>2026-04-12T08:45:24.002Z</time></trkpt><trkpt lat="45.5649754" lon="9.4508304"><ele>151.0</ele><time>2026-04-12T08:45:28.001Z</time></trkpt><trkpt lat="45.5649447" lon="9.4507232"><ele>151.0</ele><time>2026-04-12T08:45:33.001Z</time></trkpt><trkpt lat="45.5649388" lon="9.4506321"><ele>151.0</ele><time>2026-04-12T08:45:36.002Z</time></trkpt><trkpt lat="45.5649438" lon="9.4505413"><ele>151.00000000000003</ele><time>2026-04-12T08:45:38.001Z</time></trkpt><trkpt lat="45.5649574" lon="9.4504117"><ele>151.0</ele><time>2026-04-12T08:45:40.001Z</time></trkpt><trkpt lat="45.5649343" lon="9.4502726"><ele>150.85714285714286</ele><time>2026-04-12T08:45:42.002Z</time></trkpt><trkpt lat="45.5649046" lon="9.4501568"><ele>150.71428571428572</ele><time>2026-04-12T08:45:44.001Z</time></trkpt><trkpt lat="45.5648904" lon="9.450064"><ele>150.57142857142856</ele><time>2026-04-12T08:45:46.002Z</time></trkpt><trkpt lat="45.5648811" lon="9.4499492"><ele>150.42857142857144</ele><time>2026-04-12T08:45:49.002Z</time></trkpt><trkpt lat="45.5648701" lon="9.4498508"><ele>150.28571428571428</ele><time>2026-04-12T08:45:52.002Z</time></trkpt><trkpt lat="45.5648598" lon="9.4497554"><ele>150.14285714285714</ele><time>2026-04-12T08:45:55.002Z</time></trkpt><trkpt lat="45.5648463" lon="9.4496577"><ele>150.0</ele><time>2026-04-12T08:45:58.002Z</time></trkpt><trkpt lat="45.5648277" lon="9.4495615"><ele>149.83333333333334</ele><time>2026-04-12T08:46:01.001Z</time></trkpt><trkpt lat="45.5648104" lon="9.449443"><ele>149.66666666666666</ele><time>2026-04-12T08:46:04.002Z</time></trkpt><trkpt lat="45.5648005" lon="9.4493177"><ele>149.5</ele><time>2026-04-12T08:46:07.001Z</time></trkpt><trkpt lat="45.5647869" lon="9.4491906"><ele>149.33333333333331</ele><time>2026-04-12T08:46:10.002Z</time></trkpt><trkpt lat="45.5647721" lon="9.4490612"><ele>149.16666666666666</ele><time>2026-04-12T08:46:13.001Z</time></trkpt><trkpt lat="45.5647604" lon="9.4489319"><ele>149.0</ele><time>2026-04-12T08:46:16.002Z</time></trkpt><trkpt lat="45.5647571" lon="9.4488414"><ele>149.28571428571428</ele><time>2026-04-12T08:46:18.001Z</time></trkpt><trkpt lat="45.5647512" lon="9.4487465"><ele>149.57142857142856</ele><time>2026-04-12T08:46:20.001Z</time></trkpt><trkpt lat="45.5647438" lon="9.4486465"><ele>149.85714285714286</ele><time>2026-04-12T08:46:22.002Z</time></trkpt><trkpt lat="45.5647331" lon="9.448545"><ele>150.14285714285714</ele><time>2026-04-12T08:46:24.002Z</time></trkpt><trkpt lat="45.5647215" lon="9.4484333"><ele>150.42857142857144</ele><time>2026-04-12T08:46:26.002Z</time></trkpt><trkpt lat="45.5647058" lon="9.4483238"><ele>150.71428571428572</ele><time>2026-04-12T08:46:28.001Z</time></trkpt><trkpt lat="45.5646923" lon="9.4482132"><ele>151.0</ele><time>2026-04-12T08:46:30.001Z</time></trkpt><trkpt lat="45.5646768" lon="9.4481057"><ele>151.00000000000003</ele><time>2026-04-12T08:46:32.001Z</time></trkpt><trkpt lat="45.5646639" lon="9.4480028"><ele>151.0</ele><time>2026-04-12T08:46:34.001Z</time></trkpt><trkpt lat="45.564655" lon="9.4478999"><ele>151.0</ele><time>2026-04-12T08:46:36.002Z</time></trkpt><trkpt lat="45.5646448" lon="9.447793"><ele>151.0</ele><time>2026-04-12T08:46:38.002Z</time></trkpt><trkpt lat="45.5646339" lon="9.447685"><ele>151.0</ele><time>2026-04-12T08:46:40.002Z</time></trkpt><trkpt lat="45.5646231" lon="9.4475861"><ele>151.00000000000003</ele><time>2026-04-12T08:46:42.001Z</time></trkpt><trkpt lat="45.5646146" lon="9.4474841"><ele>151.0</ele><time>2026-04-12T08:46:44.002Z</time></trkpt><trkpt lat="45.5646109" lon="9.4473783"><ele>151.00000000000003</ele><time>2026-04-12T08:46:46.002Z</time></trkpt><trkpt lat="45.5646084" lon="9.4472732"><ele>151.0</ele><time>2026-04-12T08:46:48.002Z</time></trkpt><trkpt lat="45.5645891" lon="9.4471743"><ele>151.0</ele><time>2026-04-12T08:46:50.002Z</time></trkpt><trkpt lat="45.5645803" lon="9.4470725"><ele>151.0</ele><time>2026-04-12T08:46:52.001Z</time></trkpt><trkpt lat="45.5645731" lon="9.446969"><ele>151.0</ele><time>2026-04-12T08:46:54.002Z</time></trkpt><trkpt lat="45.5645668" lon="9.4468597"><ele>151.00000000000003</ele><time>2026-04-12T08:46:56.002Z</time></trkpt><trkpt lat="45.5645442" lon="9.4467658"><ele>151.0</ele><time>2026-04-12T08:46:58.002Z</time></trkpt><trkpt lat="45.5645289" lon="9.4466739"><ele>151.00000000000003</ele><time>2026-04-12T08:47:00.001Z</time></trkpt><trkpt lat="45.5645154" lon="9.4465823"><ele>151.0</ele><time>2026-04-12T08:47:02.001Z</time></trkpt><trkpt lat="45.5645043" lon="9.4464926"><ele>151.0</ele><time>2026-04-12T08:47:04.001Z</time></trkpt><trkpt lat="45.5644904" lon="9.446403"><ele>151.0</ele><time>2026-04-12T08:47:06.001Z</time></trkpt><trkpt lat="45.5644765" lon="9.4463087"><ele>151.0</ele><time>2026-04-12T08:47:08.001Z</time></trkpt><trkpt lat="45.564463" lon="9.4462097"><ele>151.00000000000003</ele><time>2026-04-12T08:47:10.001Z</time></trkpt><trkpt lat="45.5644454" lon="9.4461101"><ele>151.0</ele><time>2026-04-12T08:47:12.002Z</time></trkpt><trkpt lat="45.5644328" lon="9.4460112"><ele>151.0</ele><time>2026-04-12T08:47:14.001Z</time></trkpt><trkpt lat="45.5644219" lon="9.4459096"><ele>151.0</ele><time>2026-04-12T08:47:16.001Z</time></trkpt><trkpt lat="45.564408" lon="9.4458053"><ele>151.0</ele><time>2026-04-12T08:47:18.001Z</time></trkpt><trkpt lat="45.5643962" lon="9.4456863"><ele>151.0</ele><time>2026-04-12T08:47:20.002Z</time></trkpt><trkpt lat="45.5643803" lon="9.4455704"><ele>151.0</ele><time>2026-04-12T08:47:22.002Z</time></trkpt><trkpt lat="45.5643671" lon="9.4454629"><ele>151.0</ele><time>2026-04-12T08:47:24.002Z</time></trkpt><trkpt lat="45.5643551" lon="9.4453595"><ele>150.83333333333334</ele><time>2026-04-12T08:47:26.002Z</time></trkpt><trkpt lat="45.5643434" lon="9.4452527"><ele>150.66666666666669</ele><time>2026-04-12T08:47:28.001Z</time></trkpt><trkpt lat="45.5643319" lon="9.4451377"><ele>150.5</ele><time>2026-04-12T08:47:30.002Z</time></trkpt><trkpt lat="45.5643205" lon="9.4450203"><ele>150.33333333333334</ele><time>2026-04-12T08:47:32.001Z</time></trkpt><trkpt lat="45.5643121" lon="9.4449071"><ele>150.16666666666666</ele><time>2026-04-12T08:47:34.002Z</time></trkpt><trkpt lat="45.5643014" lon="9.4447916"><ele>150.0</ele><time>2026-04-12T08:47:36.002Z</time></trkpt><trkpt lat="45.5642883" lon="9.4446725"><ele>150.0</ele><time>2026-04-12T08:47:38.001Z</time></trkpt><trkpt lat="45.5642705" lon="9.4445563"><ele>150.0</ele><time>2026-04-12T08:47:40.002Z</time></trkpt><trkpt lat="45.564256" lon="9.4444418"><ele>150.0</ele><time>2026-04-12T08:47:42.001Z</time></trkpt><trkpt lat="45.564226" lon="9.4443319"><ele>150.0</ele><time>2026-04-12T08:47:44.002Z</time></trkpt><trkpt lat="45.564137" lon="9.4442982"><ele>150.0</ele><time>2026-04-12T08:47:47.002Z</time></trkpt><trkpt lat="45.5641127" lon="9.4441993"><ele>150.0</ele><time>2026-04-12T08:47:49.001Z</time></trkpt><trkpt lat="45.5641102" lon="9.4440836"><ele>150.0</ele><time>2026-04-12T08:47:51.001Z</time></trkpt><trkpt lat="45.5641098" lon="9.4439647"><ele>150.0</ele><time>2026-04-12T08:47:53.002Z</time></trkpt><trkpt lat="45.5641003" lon="9.4438461"><ele>150.0</ele><time>2026-04-12T08:47:55.001Z</time></trkpt><trkpt lat="45.5640883" lon="9.4437315"><ele>150.0</ele><time>2026-04-12T08:47:57.001Z</time></trkpt><trkpt lat="45.5640737" lon="9.4436176"><ele>150.0</ele><time>2026-04-12T08:47:59.001Z</time></trkpt><trkpt lat="45.5640607" lon="9.4435021"><ele>150.0</ele><time>2026-04-12T08:48:01.002Z</time></trkpt><trkpt lat="45.5640472" lon="9.4433865"><ele>150.0</ele><time>2026-04-12T08:48:03.002Z</time></trkpt><trkpt lat="45.564032" lon="9.4432681"><ele>150.0</ele><time>2026-04-12T08:48:05.002Z</time></trkpt><trkpt lat="45.5640174" lon="9.4431484"><ele>150.0</ele><time>2026-04-12T08:48:07.002Z</time></trkpt><trkpt lat="45.564007" lon="9.4430246"><ele>150.0</ele><time>2026-04-12T08:48:09.002Z</time></trkpt><trkpt lat="45.5639933" lon="9.4429001"><ele>150.0</ele><time>2026-04-12T08:48:11.002Z</time></trkpt><trkpt lat="45.5639788" lon="9.442773"><ele>150.0</ele><time>2026-04-12T08:48:13.002Z</time></trkpt><trkpt lat="45.5639622" lon="9.4426488"><ele>149.83333333333334</ele><time>2026-04-12T08:48:15.001Z</time></trkpt><trkpt lat="45.563948" lon="9.4425215"><ele>149.66666666666666</ele><time>2026-04-12T08:48:17.001Z</time></trkpt><trkpt lat="45.5639329" lon="9.4423984"><ele>149.5</ele><time>2026-04-12T08:48:19.002Z</time></trkpt><trkpt lat="45.5639176" lon="9.4422784"><ele>149.33333333333331</ele><time>2026-04-12T08:48:21.002Z</time></trkpt><trkpt lat="45.5639102" lon="9.4421573"><ele>149.16666666666666</ele><time>2026-04-12T08:48:23.001Z</time></trkpt><trkpt lat="45.5638938" lon="9.442033"><ele>149.0</ele><time>2026-04-12T08:48:25.002Z</time></trkpt><trkpt lat="45.5638822" lon="9.4418994"><ele>148.83333333333331</ele><time>2026-04-12T08:48:27.002Z</time></trkpt><trkpt lat="45.5638711" lon="9.4417728"><ele>148.66666666666666</ele><time>2026-04-12T08:48:29.002Z</time></trkpt><trkpt lat="45.5638573" lon="9.4416449"><ele>148.5</ele><time>2026-04-12T08:48:31.002Z</time></trkpt><trkpt lat="45.5638418" lon="9.4415158"><ele>148.33333333333334</ele><time>2026-04-12T08:48:33.002Z</time></trkpt><trkpt lat="45.5638288" lon="9.4413889"><ele>148.16666666666669</ele><time>2026-04-12T08:48:35.001Z</time></trkpt><trkpt lat="45.5638176" lon="9.4412657"><ele>148.0</ele><time>2026-04-12T08:48:37.002Z</time></trkpt><trkpt lat="45.5638047" lon="9.441149"><ele>148.0</ele><time>2026-04-12T08:48:39.002Z</time></trkpt><trkpt lat="45.5637911" lon="9.4410284"><ele>148.0</ele><time>2026-04-12T08:48:41.002Z</time></trkpt><trkpt lat="45.5637762" lon="9.4409154"><ele>148.0</ele><time>2026-04-12T08:48:43.002Z</time></trkpt><trkpt lat="45.5637604" lon="9.4408065"><ele>148.0</ele><time>2026-04-12T08:48:45.002Z</time></trkpt><trkpt lat="45.5637538" lon="9.4406823"><ele>148.0</ele><time>2026-04-12T08:48:47.001Z</time></trkpt><trkpt lat="45.5637425" lon="9.4405446"><ele>148.0</ele><time>2026-04-12T08:48:49.002Z</time></trkpt><trkpt lat="45.5637279" lon="9.4404066"><ele>148.20000000000002</ele><time>2026-04-12T08:48:51.002Z</time></trkpt><trkpt lat="45.5637206" lon="9.4402731"><ele>148.4</ele><time>2026-04-12T08:48:53.002Z</time></trkpt><trkpt lat="45.5637066" lon="9.4401462"><ele>148.60000000000002</ele><time>2026-04-12T08:48:55.001Z</time></trkpt><trkpt lat="45.5636955" lon="9.4400191"><ele>148.8</ele><time>2026-04-12T08:48:57.002Z</time></trkpt><trkpt lat="45.5636801" lon="9.4398893"><ele>149.0</ele><time>2026-04-12T08:48:59.001Z</time></trkpt><trkpt lat="45.5636713" lon="9.4397655"><ele>149.0</ele><time>2026-04-12T08:49:01.001Z</time></trkpt><trkpt lat="45.563655" lon="9.4396355"><ele>149.0</ele><time>2026-04-12T08:49:03.001Z</time></trkpt><trkpt lat="45.5636404" lon="9.439506"><ele>149.0</ele><time>2026-04-12T08:49:05.002Z</time></trkpt><trkpt lat="45.5636278" lon="9.4393725"><ele>149.0</ele><time>2026-04-12T08:49:07.001Z</time></trkpt><trkpt lat="45.5636134" lon="9.4392383"><ele>149.0</ele><time>2026-04-12T08:49:09.001Z</time></trkpt><trkpt lat="45.5635977" lon="9.4391097"><ele>148.6</ele><time>2026-04-12T08:49:11.002Z</time></trkpt><trkpt lat="45.5635807" lon="9.4389818"><ele>148.2</ele><time>2026-04-12T08:49:13.002Z</time></trkpt><trkpt lat="45.5635661" lon="9.4388413"><ele>147.79999999999998</ele><time>2026-04-12T08:49:15.002Z</time></trkpt><trkpt lat="45.5635521" lon="9.4387035"><ele>147.4</ele><time>2026-04-12T08:49:17.002Z</time></trkpt><trkpt lat="45.5635371" lon="9.4385692"><ele>147.0</ele><time>2026-04-12T08:49:19.002Z</time></trkpt><trkpt lat="45.5635276" lon="9.4384335"><ele>147.0</ele><time>2026-04-12T08:49:21.001Z</time></trkpt><trkpt lat="45.5635117" lon="9.4383003"><ele>147.0</ele><time>2026-04-12T08:49:23.001Z</time></trkpt><trkpt lat="45.5634992" lon="9.4381686"><ele>147.0</ele><time>2026-04-12T08:49:25.002Z</time></trkpt><trkpt lat="45.5634871" lon="9.4380366"><ele>147.0</ele><time>2026-04-12T08:49:27.002Z</time></trkpt><trkpt lat="45.5634754" lon="9.4379019"><ele>147.0</ele><time>2026-04-12T08:49:29.002Z</time></trkpt><trkpt lat="45.5634607" lon="9.4377665"><ele>147.16666666666666</ele><time>2026-04-12T08:49:31.002Z</time></trkpt><trkpt lat="45.5634423" lon="9.4376352"><ele>147.33333333333334</ele><time>2026-04-12T08:49:33.001Z</time></trkpt><trkpt lat="45.5634257" lon="9.4375045"><ele>147.5</ele><time>2026-04-12T08:49:35.002Z</time></trkpt><trkpt lat="45.5634031" lon="9.4373843"><ele>147.66666666666669</ele><time>2026-04-12T08:49:37.002Z</time></trkpt><trkpt lat="45.5633888" lon="9.4372902"><ele>147.83333333333334</ele><time>2026-04-12T08:49:39.001Z</time></trkpt><trkpt lat="45.5633739" lon="9.4371587"><ele>148.0</ele><time>2026-04-12T08:49:42.001Z</time></trkpt><trkpt lat="45.5633694" lon="9.4370462"><ele>148.0</ele><time>2026-04-12T08:49:44.001Z</time></trkpt><trkpt lat="45.5633597" lon="9.4369239"><ele>148.0</ele><time>2026-04-12T08:49:46.002Z</time></trkpt><trkpt lat="45.5633482" lon="9.4368037"><ele>148.0</ele><time>2026-04-12T08:49:48.002Z</time></trkpt><trkpt lat="45.5633366" lon="9.4366844"><ele>148.0</ele><time>2026-04-12T08:49:50.001Z</time></trkpt><trkpt lat="45.5633252" lon="9.4365631"><ele>148.0</ele><time>2026-04-12T08:49:52.001Z</time></trkpt><trkpt lat="45.5633116" lon="9.4364396"><ele>148.0</ele><time>2026-04-12T08:49:54.001Z</time></trkpt><trkpt lat="45.5632965" lon="9.4363158"><ele>148.0</ele><time>2026-04-12T08:49:56.002Z</time></trkpt><trkpt lat="45.5632818" lon="9.4361869"><ele>148.0</ele><time>2026-04-12T08:49:58.001Z</time></trkpt><trkpt lat="45.563271" lon="9.4360603"><ele>148.0</ele><time>2026-04-12T08:50:00.002Z</time></trkpt><trkpt lat="45.5632619" lon="9.4359296"><ele>148.0</ele><time>2026-04-12T08:50:02.001Z</time></trkpt><trkpt lat="45.5632456" lon="9.4357956"><ele>148.0</ele><time>2026-04-12T08:50:04.002Z</time></trkpt><trkpt lat="45.5632331" lon="9.4356668"><ele>148.0</ele><time>2026-04-12T08:50:06.002Z</time></trkpt><trkpt lat="45.5632169" lon="9.435531"><ele>148.0</ele><time>2026-04-12T08:50:08.002Z</time></trkpt><trkpt lat="45.5631984" lon="9.4354005"><ele>148.0</ele><time>2026-04-12T08:50:10.002Z</time></trkpt><trkpt lat="45.5631882" lon="9.4352761"><ele>148.0</ele><time>2026-04-12T08:50:12.002Z</time></trkpt><trkpt lat="45.563174" lon="9.4351507"><ele>148.0</ele><time>2026-04-12T08:50:14.002Z</time></trkpt><trkpt lat="45.5631582" lon="9.4350204"><ele>148.4</ele><time>2026-04-12T08:50:16.002Z</time></trkpt><trkpt lat="45.5631464" lon="9.4348876"><ele>148.8</ele><time>2026-04-12T08:50:18.002Z</time></trkpt><trkpt lat="45.5631357" lon="9.4347599"><ele>149.2</ele><time>2026-04-12T08:50:20.002Z</time></trkpt><trkpt lat="45.5631212" lon="9.4346288"><ele>149.6</ele><time>2026-04-12T08:50:22.001Z</time></trkpt><trkpt lat="45.5631054" lon="9.434503"><ele>150.0</ele><time>2026-04-12T08:50:24.002Z</time></trkpt><trkpt lat="45.563091" lon="9.4343787"><ele>150.0</ele><time>2026-04-12T08:50:26.002Z</time></trkpt><trkpt lat="45.563082" lon="9.4342607"><ele>150.0</ele><time>2026-04-12T08:50:28.002Z</time></trkpt><trkpt lat="45.5630665" lon="9.4341413"><ele>150.0</ele><time>2026-04-12T08:50:30.001Z</time></trkpt><trkpt lat="45.5630562" lon="9.4340164"><ele>150.0</ele><time>2026-04-12T08:50:32.001Z</time></trkpt><trkpt lat="45.5630437" lon="9.4338855"><ele>150.0</ele><time>2026-04-12T08:50:34.002Z</time></trkpt><trkpt lat="45.5630263" lon="9.4337632"><ele>150.0</ele><time>2026-04-12T08:50:36.001Z</time></trkpt><trkpt lat="45.5630085" lon="9.433642"><ele>149.6</ele><time>2026-04-12T08:50:38.002Z</time></trkpt><trkpt lat="45.5629953" lon="9.4335199"><ele>149.2</ele><time>2026-04-12T08:50:40.002Z</time></trkpt><trkpt lat="45.5629826" lon="9.4333919"><ele>148.8</ele><time>2026-04-12T08:50:42.002Z</time></trkpt><trkpt lat="45.5629746" lon="9.4332609"><ele>148.4</ele><time>2026-04-12T08:50:44.001Z</time></trkpt><trkpt lat="45.562965" lon="9.4331315"><ele>148.0</ele><time>2026-04-12T08:50:46.002Z</time></trkpt><trkpt lat="45.5629487" lon="9.432987"><ele>148.0</ele><time>2026-04-12T08:50:48.002Z</time></trkpt><trkpt lat="45.5629379" lon="9.4328599"><ele>148.0</ele><time>2026-04-12T08:50:50.002Z</time></trkpt><trkpt lat="45.5629199" lon="9.4327333"><ele>148.0</ele><time>2026-04-12T08:50:52.001Z</time></trkpt><trkpt lat="45.5628963" lon="9.4326072"><ele>148.0</ele><time>2026-04-12T08:50:54.002Z</time></trkpt><trkpt lat="45.5628711" lon="9.4324867"><ele>148.0</ele><time>2026-04-12T08:50:56.002Z</time></trkpt><trkpt lat="45.5628442" lon="9.4323674"><ele>148.0</ele><time>2026-04-12T08:50:58.001Z</time></trkpt><trkpt lat="45.5628216" lon="9.4322542"><ele>148.16666666666669</ele><time>2026-04-12T08:51:00.002Z</time></trkpt><trkpt lat="45.5627977" lon="9.43214"><ele>148.33333333333334</ele><time>2026-04-12T08:51:02.002Z</time></trkpt><trkpt lat="45.5627728" lon="9.432025"><ele>148.5</ele><time>2026-04-12T08:51:04.001Z</time></trkpt><trkpt lat="45.562747" lon="9.4319124"><ele>148.66666666666666</ele><time>2026-04-12T08:51:06.001Z</time></trkpt><trkpt lat="45.5627206" lon="9.4318051"><ele>148.83333333333331</ele><time>2026-04-12T08:51:08.001Z</time></trkpt><trkpt lat="45.5626854" lon="9.4317269"><ele>149.0</ele><time>2026-04-12T08:51:10.001Z</time></trkpt><trkpt lat="45.5626298" lon="9.431677"><ele>148.66666666666666</ele><time>2026-04-12T08:51:13.002Z</time></trkpt><trkpt lat="45.5625338" lon="9.4317119"><ele>148.33333333333331</ele><time>2026-04-12T08:51:16.002Z</time></trkpt><trkpt lat="45.5624551" lon="9.4317504"><ele>148.0</ele><time>2026-04-12T08:51:18.001Z</time></trkpt><trkpt lat="45.5623762" lon="9.4317856"><ele>147.66666666666666</ele><time>2026-04-12T08:51:20.002Z</time></trkpt><trkpt lat="45.5623008" lon="9.4318181"><ele>147.33333333333334</ele><time>2026-04-12T08:51:22.002Z</time></trkpt><trkpt lat="45.5622213" lon="9.4318508"><ele>147.0</ele><time>2026-04-12T08:51:24.002Z</time></trkpt><trkpt lat="45.5621326" lon="9.4318787"><ele>147.0</ele><time>2026-04-12T08:51:26.002Z</time></trkpt><trkpt lat="45.5620404" lon="9.4319163"><ele>147.0</ele><time>2026-04-12T08:51:28.001Z</time></trkpt><trkpt lat="45.5619483" lon="9.4319544"><ele>147.0</ele><time>2026-04-12T08:51:30.002Z</time></trkpt><trkpt lat="45.5618493" lon="9.4319943"><ele>147.0</ele><time>2026-04-12T08:51:32.001Z</time></trkpt><trkpt lat="45.5617482" lon="9.4320389"><ele>147.0</ele><time>2026-04-12T08:51:34.001Z</time></trkpt><trkpt lat="45.561648" lon="9.4320753"><ele>147.0</ele><time>2026-04-12T08:51:36.002Z</time></trkpt><trkpt lat="45.5615472" lon="9.4321131"><ele>147.0</ele><time>2026-04-12T08:51:38.001Z</time></trkpt><trkpt lat="45.5614444" lon="9.432153"><ele>147.0</ele><time>2026-04-12T08:51:40.002Z</time></trkpt><trkpt lat="45.5613444" lon="9.4321945"><ele>147.0</ele><time>2026-04-12T08:51:42.001Z</time></trkpt><trkpt lat="45.5612494" lon="9.4322308"><ele>147.0</ele><time>2026-04-12T08:51:44.002Z</time></trkpt><trkpt lat="45.5611577" lon="9.432269"><ele>147.16666666666666</ele><time>2026-04-12T08:51:46.002Z</time></trkpt><trkpt lat="45.5610715" lon="9.4323096"><ele>147.33333333333334</ele><time>2026-04-12T08:51:48.002Z</time></trkpt><trkpt lat="45.5609904" lon="9.4323407"><ele>147.5</ele><time>2026-04-12T08:51:50.001Z</time></trkpt><trkpt lat="45.5609132" lon="9.4323677"><ele>147.66666666666669</ele><time>2026-04-12T08:51:52.001Z</time></trkpt><trkpt lat="45.5608395" lon="9.4324026"><ele>147.83333333333334</ele><time>2026-04-12T08:51:54.002Z</time></trkpt><trkpt lat="45.5607673" lon="9.4324335"><ele>148.0</ele><time>2026-04-12T08:51:56.002Z</time></trkpt><trkpt lat="45.5606953" lon="9.4324658"><ele>148.0</ele><time>2026-04-12T08:51:58.002Z</time></trkpt><trkpt lat="45.560623" lon="9.4324913"><ele>148.0</ele><time>2026-04-12T08:52:00.001Z</time></trkpt><trkpt lat="45.5605543" lon="9.4325132"><ele>148.0</ele><time>2026-04-12T08:52:03.002Z</time></trkpt><trkpt lat="45.560481" lon="9.4325287"><ele>148.0</ele><time>2026-04-12T08:52:07.001Z</time></trkpt><trkpt lat="45.5604202" lon="9.4325553"><ele>148.0</ele><time>2026-04-12T08:52:09.001Z</time></trkpt><trkpt lat="45.5603619" lon="9.4326005"><ele>148.0</ele><time>2026-04-12T08:52:11.002Z</time></trkpt><trkpt lat="45.5603045" lon="9.4326498"><ele>148.0</ele><time>2026-04-12T08:52:13.001Z</time></trkpt><trkpt lat="45.5602406" lon="9.4326844"><ele>148.16666666666669</ele><time>2026-04-12T08:52:15.002Z</time></trkpt><trkpt lat="45.5601716" lon="9.4326644"><ele>148.33333333333334</ele><time>2026-04-12T08:52:17.001Z</time></trkpt><trkpt lat="45.560102" lon="9.4326482"><ele>148.5</ele><time>2026-04-12T08:52:19.001Z</time></trkpt><trkpt lat="45.5600344" lon="9.4326141"><ele>148.66666666666666</ele><time>2026-04-12T08:52:21.002Z</time></trkpt><trkpt lat="45.5599565" lon="9.4326052"><ele>148.83333333333331</ele><time>2026-04-12T08:52:23.002Z</time></trkpt><trkpt lat="45.5598714" lon="9.4326414"><ele>149.0</ele><time>2026-04-12T08:52:25.002Z</time></trkpt><trkpt lat="45.5597864" lon="9.432677"><ele>149.0</ele><time>2026-04-12T08:52:27.002Z</time></trkpt><trkpt lat="45.5596952" lon="9.4327173"><ele>149.0</ele><time>2026-04-12T08:52:29.002Z</time></trkpt><trkpt lat="45.5596058" lon="9.4327542"><ele>149.0</ele><time>2026-04-12T08:52:31.001Z</time></trkpt><trkpt lat="45.5595107" lon="9.4327915"><ele>149.0</ele><time>2026-04-12T08:52:33.001Z</time></trkpt><trkpt lat="45.5594174" lon="9.4328335"><ele>149.0</ele><time>2026-04-12T08:52:35.001Z</time></trkpt><trkpt lat="45.5593209" lon="9.4328691"><ele>148.6</ele><time>2026-04-12T08:52:37.002Z</time></trkpt><trkpt lat="45.5592255" lon="9.4329088"><ele>148.2</ele><time>2026-04-12T08:52:39.002Z</time></trkpt><trkpt lat="45.5591285" lon="9.4329497"><ele>147.79999999999998</ele><time>2026-04-12T08:52:41.002Z</time></trkpt><trkpt lat="45.5590279" lon="9.4329904"><ele>147.4</ele><time>2026-04-12T08:52:43.001Z</time></trkpt><trkpt lat="45.5589262" lon="9.4330267"><ele>147.0</ele><time>2026-04-12T08:52:45.001Z</time></trkpt><trkpt lat="45.5588223" lon="9.4330727"><ele>147.0</ele><time>2026-04-12T08:52:47.001Z</time></trkpt><trkpt lat="45.5587133" lon="9.4331143"><ele>147.0</ele><time>2026-04-12T08:52:49.002Z</time></trkpt><trkpt lat="45.5586052" lon="9.433156"><ele>147.0</ele><time>2026-04-12T08:52:51.001Z</time></trkpt><trkpt lat="45.5584937" lon="9.4331991"><ele>147.0</ele><time>2026-04-12T08:52:53.001Z</time></trkpt><trkpt lat="45.5583839" lon="9.4332413"><ele>146.5</ele><time>2026-04-12T08:52:55.002Z</time></trkpt><trkpt lat="45.55827" lon="9.4332898"><ele>146.0</ele><time>2026-04-12T08:52:57.001Z</time></trkpt><trkpt lat="45.5581573" lon="9.4333292"><ele>145.5</ele><time>2026-04-12T08:52:59.002Z</time></trkpt><trkpt lat="45.5580422" lon="9.4333369"><ele>145.0</ele><time>2026-04-12T08:53:01.002Z</time></trkpt><trkpt lat="45.55793" lon="9.4332991"><ele>145.25</ele><time>2026-04-12T08:53:03.002Z</time></trkpt><trkpt lat="45.5578174" lon="9.433305"><ele>145.5</ele><time>2026-04-12T08:53:05.002Z</time></trkpt><trkpt lat="45.5577456" lon="9.4334158"><ele>145.75</ele><time>2026-04-12T08:53:07.002Z</time></trkpt><trkpt lat="45.5577213" lon="9.4335856"><ele>146.0</ele><time>2026-04-12T08:53:09.002Z</time></trkpt><trkpt lat="45.5577142" lon="9.4337568"><ele>145.75</ele><time>2026-04-12T08:53:11.002Z</time></trkpt><trkpt lat="45.5577061" lon="9.4339383"><ele>145.5</ele><time>2026-04-12T08:53:13.002Z</time></trkpt><trkpt lat="45.5576888" lon="9.4341133"><ele>145.25</ele><time>2026-04-12T08:53:15.002Z</time></trkpt><trkpt lat="45.557675" lon="9.4342851"><ele>145.0</ele><time>2026-04-12T08:53:17.002Z</time></trkpt><trkpt lat="45.5576692" lon="9.4344477"><ele>145.0</ele><time>2026-04-12T08:53:19.002Z</time></trkpt><trkpt lat="45.5576481" lon="9.4346013"><ele>145.0</ele><time>2026-04-12T08:53:21.002Z</time></trkpt><trkpt lat="45.5576051" lon="9.4347462"><ele>145.0</ele><time>2026-04-12T08:53:23.002Z</time></trkpt><trkpt lat="45.5575158" lon="9.4348294"><ele>145.0</ele><time>2026-04-12T08:53:25.001Z</time></trkpt><trkpt lat="45.5574059" lon="9.4348385"><ele>145.0</ele><time>2026-04-12T08:53:27.002Z</time></trkpt><trkpt lat="45.5573045" lon="9.4348507"><ele>145.0</ele><time>2026-04-12T08:53:29.002Z</time></trkpt><trkpt lat="45.5572032" lon="9.4348614"><ele>145.0</ele><time>2026-04-12T08:53:31.002Z</time></trkpt><trkpt lat="45.5571111" lon="9.4348652"><ele>145.0</ele><time>2026-04-12T08:53:33.001Z</time></trkpt><trkpt lat="45.5570336" lon="9.4348711"><ele>145.0</ele><time>2026-04-12T08:53:35.002Z</time></trkpt><trkpt lat="45.55697" lon="9.4348683"><ele>145.0</ele><time>2026-04-12T08:53:38.001Z</time></trkpt><trkpt lat="45.5568946" lon="9.4348783"><ele>145.0</ele><time>2026-04-12T08:54:15.001Z</time></trkpt><trkpt lat="45.5568112" lon="9.4348905"><ele>145.2</ele><time>2026-04-12T08:54:18.001Z</time></trkpt><trkpt lat="45.5567344" lon="9.4349067"><ele>145.4</ele><time>2026-04-12T08:54:20.002Z</time></trkpt><trkpt lat="45.5566511" lon="9.4349132"><ele>145.6</ele><time>2026-04-12T08:54:22.002Z</time></trkpt><trkpt lat="45.5565621" lon="9.4349244"><ele>145.8</ele><time>2026-04-12T08:54:24.002Z</time></trkpt><trkpt lat="45.5564642" lon="9.4349312"><ele>146.0</ele><time>2026-04-12T08:54:26.001Z</time></trkpt><trkpt lat="45.5563614" lon="9.4349388"><ele>146.0</ele><time>2026-04-12T08:54:28.002Z</time></trkpt><trkpt lat="45.5562501" lon="9.4349453"><ele>146.0</ele><time>2026-04-12T08:54:30.002Z</time></trkpt><trkpt lat="45.5561322" lon="9.4349509"><ele>146.0</ele><time>2026-04-12T08:54:32.001Z</time></trkpt><trkpt lat="45.556016" lon="9.4349578"><ele>146.0</ele><time>2026-04-12T08:54:34.002Z</time></trkpt><trkpt lat="45.5559021" lon="9.4349663"><ele>146.25</ele><time>2026-04-12T08:54:36.002Z</time></trkpt><trkpt lat="45.5557887" lon="9.4349713"><ele>146.5</ele><time>2026-04-12T08:54:38.001Z</time></trkpt><trkpt lat="45.5556739" lon="9.4349786"><ele>146.75</ele><time>2026-04-12T08:54:40.001Z</time></trkpt><trkpt lat="45.5555574" lon="9.4349866"><ele>147.0</ele><time>2026-04-12T08:54:42.002Z</time></trkpt><trkpt lat="45.5554406" lon="9.4350023"><ele>147.0</ele><time>2026-04-12T08:54:44.001Z</time></trkpt><trkpt lat="45.5553199" lon="9.4350058"><ele>147.0</ele><time>2026-04-12T08:54:46.002Z</time></trkpt><trkpt lat="45.5552568" lon="9.4350139"><ele>147.0</ele><time>2026-04-12T08:54:47.001Z</time></trkpt><trkpt lat="45.5551334" lon="9.4350289"><ele>147.0</ele><time>2026-04-12T08:54:49.001Z</time></trkpt><trkpt lat="45.5550105" lon="9.43504"><ele>147.0</ele><time>2026-04-12T08:54:51.002Z</time></trkpt><trkpt lat="45.5549476" lon="9.435044"><ele>147.0</ele><time>2026-04-12T08:54:52.002Z</time></trkpt><trkpt lat="45.5548831" lon="9.4350492"><ele>147.0</ele><time>2026-04-12T08:54:53.002Z</time></trkpt><trkpt lat="45.5548188" lon="9.4350572"><ele>147.0</ele><time>2026-04-12T08:54:54.001Z</time></trkpt><trkpt lat="45.5547556" lon="9.4350611"><ele>147.0</ele><time>2026-04-12T08:54:55.002Z</time></trkpt><trkpt lat="45.5546326" lon="9.435081"><ele>147.0</ele><time>2026-04-12T08:54:57.002Z</time></trkpt><trkpt lat="45.5545685" lon="9.4350863"><ele>147.0</ele><time>2026-04-12T08:54:58.002Z</time></trkpt><trkpt lat="45.5544454" lon="9.4351033"><ele>146.5</ele><time>2026-04-12T08:55:00.001Z</time></trkpt><trkpt lat="45.554327" lon="9.4351261"><ele>146.0</ele><time>2026-04-12T08:55:02.002Z</time></trkpt><trkpt lat="45.5542114" lon="9.4351556"><ele>145.5</ele><time>2026-04-12T08:55:04.002Z</time></trkpt><trkpt lat="45.5540992" lon="9.435184"><ele>145.0</ele><time>2026-04-12T08:55:06.001Z</time></trkpt><trkpt lat="45.553985" lon="9.4352156"><ele>145.0</ele><time>2026-04-12T08:55:08.002Z</time></trkpt><trkpt lat="45.5538783" lon="9.4352458"><ele>145.0</ele><time>2026-04-12T08:55:10.001Z</time></trkpt><trkpt lat="45.5537719" lon="9.4352859"><ele>145.0</ele><time>2026-04-12T08:55:12.002Z</time></trkpt><trkpt lat="45.553669" lon="9.4353184"><ele>145.0</ele><time>2026-04-12T08:55:14.002Z</time></trkpt><trkpt lat="45.553575" lon="9.4353384"><ele>145.0</ele><time>2026-04-12T08:55:16.002Z</time></trkpt><trkpt lat="45.5535068" lon="9.4353613"><ele>144.57142857142858</ele><time>2026-04-12T08:55:18.002Z</time></trkpt><trkpt lat="45.5534411" lon="9.4353558"><ele>144.14285714285717</ele><time>2026-04-12T08:55:21.002Z</time></trkpt><trkpt lat="45.5533749" lon="9.4353576"><ele>143.71428571428572</ele><time>2026-04-12T08:55:27.001Z</time></trkpt><trkpt lat="45.553302" lon="9.4353665"><ele>143.28571428571428</ele><time>2026-04-12T08:55:31.002Z</time></trkpt><trkpt lat="45.553215" lon="9.4354033"><ele>142.85714285714283</ele><time>2026-04-12T08:55:35.001Z</time></trkpt><trkpt lat="45.5531531" lon="9.4354211"><ele>142.42857142857142</ele><time>2026-04-12T08:55:37.002Z</time></trkpt><trkpt lat="45.5530815" lon="9.4354414"><ele>142.0</ele><time>2026-04-12T08:55:39.002Z</time></trkpt><trkpt lat="45.5529997" lon="9.4354622"><ele>142.0</ele><time>2026-04-12T08:55:41.002Z</time></trkpt><trkpt lat="45.5529065" lon="9.4355021"><ele>142.0</ele><time>2026-04-12T08:55:43.002Z</time></trkpt><trkpt lat="45.5528049" lon="9.4355518"><ele>142.0</ele><time>2026-04-12T08:55:45.002Z</time></trkpt><trkpt lat="45.5527027" lon="9.4355912"><ele>142.0</ele><time>2026-04-12T08:55:47.001Z</time></trkpt><trkpt lat="45.5526042" lon="9.4356334"><ele>142.0</ele><time>2026-04-12T08:55:49.002Z</time></trkpt><trkpt lat="45.5525047" lon="9.4356798"><ele>141.79999999999998</ele><time>2026-04-12T08:55:51.002Z</time></trkpt><trkpt lat="45.5524056" lon="9.4357237"><ele>141.6</ele><time>2026-04-12T08:55:53.002Z</time></trkpt><trkpt lat="45.5523001" lon="9.4357709"><ele>141.39999999999998</ele><time>2026-04-12T08:55:55.002Z</time></trkpt><trkpt lat="45.5521918" lon="9.4358196"><ele>141.2</ele><time>2026-04-12T08:55:57.002Z</time></trkpt><trkpt lat="45.5520826" lon="9.4358708"><ele>141.0</ele><time>2026-04-12T08:55:59.001Z</time></trkpt><trkpt lat="45.5519684" lon="9.4359214"><ele>140.75</ele><time>2026-04-12T08:56:01.001Z</time></trkpt><trkpt lat="45.5518582" lon="9.4359764"><ele>140.5</ele><time>2026-04-12T08:56:03.002Z</time></trkpt><trkpt lat="45.5517414" lon="9.4360263"><ele>140.25</ele><time>2026-04-12T08:56:05.001Z</time></trkpt><trkpt lat="45.5516249" lon="9.436077"><ele>140.0</ele><time>2026-04-12T08:56:07.002Z</time></trkpt><trkpt lat="45.551506" lon="9.436127"><ele>140.0</ele><time>2026-04-12T08:56:09.001Z</time></trkpt><trkpt lat="45.5513922" lon="9.4361758"><ele>140.0</ele><time>2026-04-12T08:56:11.002Z</time></trkpt><trkpt lat="45.5512754" lon="9.4362281"><ele>140.0</ele><time>2026-04-12T08:56:13.001Z</time></trkpt><trkpt lat="45.5511618" lon="9.4362887"><ele>140.0</ele><time>2026-04-12T08:56:15.001Z</time></trkpt><trkpt lat="45.5510999" lon="9.4363149"><ele>140.0</ele><time>2026-04-12T08:56:16.001Z</time></trkpt><trkpt lat="45.55098" lon="9.4363637"><ele>139.75</ele><time>2026-04-12T08:56:18.002Z</time></trkpt><trkpt lat="45.5508613" lon="9.4364217"><ele>139.5</ele><time>2026-04-12T08:56:20.001Z</time></trkpt><trkpt lat="45.5507496" lon="9.4364957"><ele>139.25</ele><time>2026-04-12T08:56:22.002Z</time></trkpt><trkpt lat="45.5506489" lon="9.4365873"><ele>139.0</ele><time>2026-04-12T08:56:24.002Z</time></trkpt><trkpt lat="45.5506065" lon="9.4367406"><ele>139.0</ele><time>2026-04-12T08:56:26.001Z</time></trkpt><trkpt lat="45.5505806" lon="9.4368976"><ele>139.0</ele><time>2026-04-12T08:56:28.002Z</time></trkpt><trkpt lat="45.5505522" lon="9.4370543"><ele>139.0</ele><time>2026-04-12T08:56:30.002Z</time></trkpt><trkpt lat="45.5505248" lon="9.4372003"><ele>139.0</ele><time>2026-04-12T08:56:32.001Z</time></trkpt><trkpt lat="45.5504997" lon="9.4373494"><ele>139.0</ele><time>2026-04-12T08:56:34.002Z</time></trkpt><trkpt lat="45.5504788" lon="9.437496"><ele>139.0</ele><time>2026-04-12T08:56:36.002Z</time></trkpt><trkpt lat="45.5504525" lon="9.4376429"><ele>139.0</ele><time>2026-04-12T08:56:38.002Z</time></trkpt><trkpt lat="45.5504268" lon="9.437785"><ele>139.0</ele><time>2026-04-12T08:56:40.001Z</time></trkpt><trkpt lat="45.550403" lon="9.4379205"><ele>139.0</ele><time>2026-04-12T08:56:42.001Z</time></trkpt><trkpt lat="45.5503762" lon="9.4380481"><ele>139.0</ele><time>2026-04-12T08:56:44.002Z</time></trkpt><trkpt lat="45.5503588" lon="9.4381714"><ele>137.0</ele><time>2026-04-12T08:56:46.002Z</time></trkpt><trkpt lat="45.5503351" lon="9.4382742"><ele>137.0</ele><time>2026-04-12T08:56:48.002Z</time></trkpt><trkpt lat="45.5502725" lon="9.4382851"><ele>137.0</ele><time>2026-04-12T08:56:51.002Z</time></trkpt></trkseg></trk></gpx>